     2.10           OBSERVATION DATA    G (GPS)             RINEX VERSION / TYPE
teqc 2000Jul20 Karen Wendt 20040802 23:05:38UTC             PGM / RUN BY / DATE
Linux 2.0.36|Pentium II|gcc -static|Linux|486/DX+           COMMENT
teqc 2000Jul20 Karen Wendt 20040802 23:05:38UTC             COMMENT
BIT 2 OF LLI FLAGS DATA COLLECTED UNDER A/S CONDITION       COMMENT
p229 P_229_1935_USC&GS                                      MARKER NAME
JMS USGS                                                    OBSERVER / AGENCY
LP019992803 ASHTECH Z-XII3 CD00                             REC # / TYPE / VERS
CR14341 ASH700936D_M NONE                                   ANT # / TYPE
 -2746349.0000 -4015171.0000  4111252.0000                  APPROX POSITION XYZ
        1.4832        0.0000        0.0000                  ANTENNA: DELTA H/E/N
     1     1                                                WAVELENGTH FACT L1/2
     5    C1    L1    L2    P1    P2                        # / TYPES OF OBSERV
    30.0000                                                 INTERVAL
                                                            COMMENT
National Earthquake Hazard Reduction Program                COMMENT
Crustal Strain Project                                      COMMENT
345 Middlefield Road, MS/977                                COMMENT
U.S. Geological Survey, Menlo Park, California 94025        COMMENT
Contact: kwendt@usgs.gov (Ph: 650-329-4866)                 COMMENT
Antenna height is vertical to base of antenna               COMMENT
                                                            COMMENT
SNR is mapped to RINEX snr flag value [1-9]                 COMMENT
L1: 1 -> 1; 90 -> 5; 210 -> 9                               COMMENT
L2: 1 -> 1; 150 -> 5; 250 -> 9                              COMMENT
  2004     7    20    16    22    0.0000000     GPS         TIME OF FIRST OBS
                                                            END OF HEADER
 04  7 20 16 22  0.0000000  0  7G22G21G 3G19G18G15G14
                     29507.80049     20335.70443
  22765588.280      172825.21249    122165.27746  22765587.931    22765591.935
  21712244.060       48546.07649     34162.72047  21712243.507    21712247.721
  22779665.380     -153896.80149   -107147.53446  22779664.396    22779667.057
  22046326.000      135047.07449     94180.22247  22046325.366    22046328.799
  20183762.255        1788.85249      1276.83848  20183761.453    20183765.365
  21380663.394     -178347.59449   -127911.18647  21380663.005    21380666.007
 04  7 20 16 22 29.9990000  0  7G22G21G 3G19G18G15G14
                     42651.69849        98.47943
  22480223.089      248636.03649    181238.59346  22480222.186    22480225.703
  21416259.118       68558.32449     49756.65447  21416259.302    21416263.509
  22467394.799     -219468.76849   -158242.56147  22467394.027    22467396.686
  21757638.508      193399.48749    139649.67547  21757637.281    21757640.099
  19884226.786        3140.41549      2329.99948  19884226.207    19884230.101
  21065953.388     -256739.47949   -188995.75047  21065952.954    21065956.073
 04  7 20 16 23  0.0000000  0  7G22G21G 3G19G18G15G14
  20554503.689     -855596.78149   -699835.12347  20554504.093    20554505.134
  22621008.121     -586953.29949   -469870.01846  22621007.612    22621010.744
  21546479.154     -822551.66249   -644614.78847  21546479.193    21546483.388
  22581316.225    -1196226.64849   -919352.58547  22581315.670    22581318.317
  21895079.867     -659756.12149   -525146.90747  21895079.383    21895082.297
  20010872.709     -906748.19249   -706674.12048  20010872.651    20010876.550
  21177429.983    -1246344.90749   -960116.83947  21177429.770    21177432.907
 04  7 20 16 23 30.0000000  0  7G22G21G 3G19G18G15G14
  20558445.993     -834881.32549   -683693.22248  20558446.154    20558447.113
  22636871.952     -503588.36949   -404910.39646  22636871.520    22636874.744
  21551831.061     -794428.24149   -622700.46047  21551830.958    21551835.132
  22570358.994    -1253808.44449   -964221.50547  22570358.286    22570360.894
  21907579.883     -594065.60749   -473959.57347  21907579.778    21907582.968
  20012629.373     -897518.53349   -699482.18948  20012629.015    20012632.919
  21164022.745    -1316801.10049  -1015017.74547  21164022.432    21164025.559
 04  7 20 16 24  0.0000000  0  7G22G21G 3G19G18G15G14
  20562439.522     -813895.67649   -667340.77548  20562439.619    20562440.546
  22652785.815     -419961.40749   -339746.58246  22652785.363    22652788.639
  21557285.540     -765764.97549   -600365.46747  21557285.412    21557289.608
  22559493.763    -1310905.88649  -1008713.00047  22559492.968    22559495.604
  21920109.856     -528221.64849   -422652.57747  21920109.624    21920112.629
  20014466.971     -887862.48849   -691958.00148  20014466.513    20014470.423
  21150702.306    -1386800.67049  -1069562.83947  21150701.974    21150705.065
 04  7 20 16 24 30.0000000  0  7G22G21G 3G19G18G15G14
  20566484.865     -792637.63549   -650776.07448  20566484.939    20566485.839
  22668749.808     -336070.54149   -274377.15246  22668749.340    22668752.585
  21562843.081     -736560.28849   -577608.58547  21562842.934    21562847.116
  22548721.588    -1367514.06649  -1052823.25147  22548720.815    22548723.420
  21932669.071     -462222.19349   -371224.46147  21932668.790    21932671.889
  20016386.380     -877776.30049   -684098.63848  20016385.874    20016389.820
  21137469.685    -1456338.72849  -1123748.30947  21137469.334    21137472.390
 04  7 20 16 25  0.0000000  0  7G22G21G 3G19G18G15G14
  20570581.884     -771107.99149   -633999.74348  20570581.902    20570582.837
  22684763.973     -251916.30249   -208802.45446  22684763.575    22684766.563
  21568503.446     -706815.00149   -554430.46847  21568503.276    21568507.491
  22538043.036    -1423630.92649  -1096550.66647  22538042.218    22538044.746
  21945257.685     -396068.38049   -319676.06646  21945257.434    21945260.553
  20018387.780     -867259.06849   -675903.39948  20018387.259    20018391.203
  21124325.300    -1525413.15849  -1177572.51847  21124324.934    21124327.994
 04  7 20 16 25 30.0000000  0  7G22G21G 3G19G18G15G14
  20574730.525     -749307.05949   -617012.00848  20574730.520    20574731.431
  22700828.260     -167498.70249   -143022.52946  22700827.824    22700830.676
  21574266.551     -676529.97249   -530831.76047  21574266.356    21574270.584
  22527458.371    -1479253.83349  -1139893.17847  22527457.535    22527460.030
  21957875.758     -329760.51449   -268007.61046  21957875.459    21957878.409
  20020471.431     -856309.61749   -667371.35948  20020470.896    20020474.806
  21111269.522    -1594021.77449  -1231033.74747  21111269.162    21111272.195
 04  7 20 16 26  0.0000000  0  7G22G21G 3G19G18G15G14
  20578930.351     -727237.07949   -599814.62848  20578930.323    20578931.245
  22716942.153      -82819.79149    -77039.00246  22716941.689    22716944.493
  21580131.900     -645707.80849   -506814.51347  21580131.696    21580135.925
  22516967.824    -1534382.40749  -1182850.50347  22516966.978    22516969.462
  21970522.751     -263300.87849   -216220.88847  21970522.414    21970525.362
  20022637.322     -844928.27849   -658502.79548  20022636.767    20022640.642
  21098302.493    -1662164.30849  -1284131.79647  21098302.109    21098305.116
 04  7 20 16 26 30.0000000  0  7G22G21G 3G19G18G15G14
  20583181.468     -704897.52049   -582407.18848  20583181.430    20583182.373
  22733105.795        2121.00949    -10851.43446  22733105.378    22733108.404
  21586099.467     -614348.21849   -482378.48447  21586099.234    21586103.506
  22506572.056    -1589012.78849  -1225419.61047  22506571.165    22506573.675
  21983198.541     -196688.74049   -164315.41347  21983198.228    21983201.411
  20024885.838     -833112.75049   -649295.89248  20024885.230    20024889.079
  21085424.826    -1729837.11449  -1336863.82447  21085424.444    21085427.404
 04  7 20 16 27  0.0000000  0  7G22G21G 3G19G18G15G14
  20587483.552     -682290.24449   -564791.11848  20587483.452    20587484.408
  22749319.136       87321.90449     55538.81146  22749318.654    22749321.794
  21592168.825     -582453.67749   -457525.60647  21592168.583    21592172.915
  22496271.249    -1643144.05949  -1267599.80247  22496270.336    22496272.871
  21995903.142     -129926.34549   -112292.72646  21995902.843    21995905.691
  20027216.788     -820863.53749   -639751.05048  20027216.207    20027220.053
  21072636.647    -1797039.53349  -1389229.31047  21072636.257    21072639.199
 04  7 20 16 27 30.0000000  0  7G22G21G 3G19G18G15G14
  20591836.530     -659415.33149   -546966.52748  20591836.458    20591837.421
  22765581.983      172783.13149    122131.90146  22765581.485    22765584.658
  21598339.993     -550024.22249   -432255.92647  21598339.770    21598344.092
  22486065.976    -1696773.18349  -1309388.72147  22486065.041    22486067.618
  22008636.506      -63013.25849    -60152.63846  22008636.079    22008638.808
  20029630.709     -808178.63349   -629866.71148  20029630.115    20029633.977
  21059938.486    -1863768.79549  -1441226.10847  21059938.098    21059941.063
 04  7 20 16 28  0.0000000  0  7G22G21G 3G19G18G15G14
  20596240.179     -636274.35949   -528934.59648  20596240.070    20596241.045
  22781894.164      258503.20049    188926.72446  22781893.632    22781896.659
  21604612.523     -517062.07949   -406571.15147  21604612.298    21604616.627
  22475956.432    -1749899.22749  -1350785.61547  22475955.520    22475958.090
  22021397.874        4048.67749     -7896.66046  22021397.444    22021400.442
  20032127.578     -795057.91749   -619642.76748  20032126.927    20032130.812
  21047330.545    -1930023.97949  -1492853.49247  21047330.156    21047333.088
 04  7 20 16 28 30.0000000  0  7G22G21G 3G19G18G15G14
  20600694.445     -612867.33549   -510695.35748  20600694.346    20600695.276
  22798255.446      344482.17649    255923.28446  22798254.917    22798257.818
  21610986.328     -483567.81049   -380471.74247  21610986.086    21610990.419
  22465943.134    -1802519.39549  -1391788.32547  22465942.212    22465944.770
  22034187.668       71259.35549     44475.30147  22034187.290    22034190.226
  20034707.598     -781499.99649   -609078.15348  20034706.961    20034710.845
  21034813.364    -1995802.37449  -1544109.35147  21034812.972    21034815.870
 04  7 20 16 29  0.0000000  0  7G22G21G 3G19G18G15G14
  20605198.661     -589197.50649   -492251.34748  20605198.578    20605199.526
  22814665.264      430716.80949    323119.07546  22814664.786    22814667.587
  21617460.661     -449545.09349   -353960.55347  21617460.423    21617464.736
  22456026.069    -1854634.09349  -1432397.17047  22456025.147    22456027.676
  22047005.008      138615.42549     96960.50346  22047004.686    22047007.776
  20037370.517     -767506.60449   -598174.21248  20037369.857    20037373.716
  21022386.752    -2061104.72749  -1594994.27247  21022386.345    21022389.237
 04  7 20 16 29 30.0000000  0  7G22G21G 3G19G18G15G14
  20609753.088     -565264.01849   -473601.87648  20609752.995    20609753.945
  22831124.245      517208.84149    390515.38946  22831123.721    22831126.612
  21624035.688     -414993.55049   -327037.29847  21624035.441    21624039.729
  22446205.994    -1906239.32149  -1472609.01747  22446205.046    22446207.515
  22059850.420      206117.87649    149559.79746  22059850.113    22059853.128
  20040116.756     -753075.04049   -586928.83348  20040116.086    20040119.977
  21010051.412    -2125927.43449  -1645505.43847  21010050.974    21010053.897
 04  7 20 16 30  0.0000000  0  7G22G21G 3G19G18G15G14
  20614357.434     -541068.19749   -454747.99248  20614357.337    20614358.309
  22847631.790      603955.85749    458110.39546  22847631.313    22847634.288
  21630711.015     -379915.07249   -299703.43547  21630710.750    21630715.016
  22436482.956    -1957333.88749  -1512422.93747  22436482.037    22436484.559
  22072723.554      273765.27349    202272.11446  22072723.152    22072725.776
  20042946.404     -738204.95349   -575341.75748  20042945.767    20042949.639
  20997807.597    -2190269.30349  -1695641.92847  20997807.141    20997810.057
 04  7 20 16 30 30.0000000  0  7G22G21G 3G19G18G15G14
  20619011.466     -516611.37249   -435690.72848  20619011.355    20619012.307
  22864187.830      690957.33849    525903.68846  22864187.273    22864190.427
  21637486.188     -344311.46349   -271960.38947  21637485.930    21637490.170
  22426857.482    -2007916.28449  -1551837.77247  22426856.550    22426859.078
  22085623.744      341556.61149    255096.45646  22085623.351    22085626.271
  20045859.639     -722896.10149   -563412.78648  20045858.991    20045862.863
  20985655.454    -2254129.00949  -1745402.70947  20985655.023    20985657.906
 04  7 20 16 31  0.0000000  0  7G22G21G 3G19G18G15G14
  20623715.169     -491893.65249   -416430.17048  20623715.049    20623715.934
  22880791.936      778213.10849    593895.09946  22880791.318    22880794.793
  21644361.241     -308183.35649   -243808.63547  21644360.961    21644365.138
  22417329.939    -2057983.99949  -1590851.55547  22417328.986    22417331.510
  22098551.409      409491.39149    308032.58947  22098551.001    22098554.054
  20048856.656     -707146.93749   -551140.71048  20048855.986    20048859.840
  20973595.583    -2317504.13149  -1794785.88647  20973595.142    20973598.043
 04  7 20 16 31 30.0000000  0  7G22G21G 3G19G18G15G14
  20628468.238     -466916.18449   -396967.21248  20628468.129    20628469.016
  22897444.031      865722.16649    662083.87245  22897443.499    22897447.206
  21651335.715     -271532.59549   -215249.61547  21651335.422    21651339.590
  22407900.556    -2107535.53949  -1629463.13047  22407899.634    22407902.198
  22111506.278      477568.70949    361079.86646  22111505.863    22111508.677
  20051937.528     -690957.17949   -538525.30948  20051936.853    20051940.703
  20961628.144    -2380393.45049  -1843790.51747  20961627.687    20961630.591
 04  7 20 16 32  0.0000000  0  7G22G21G 3G19G18G15G14
  20633270.478     -441680.62649   -377303.13648  20633270.334    20633271.189
  22914144.526      953482.86249    730468.80846  22914144.017    22914147.447
  21658409.214     -234361.25049   -186284.94847  21658408.915    21658413.102
  22398569.744    -2156569.38349  -1667671.29547  22398568.853    22398571.373
  22124487.902      545786.82849    414236.87946  22124487.476    22124490.139
  20055102.210     -674326.78449   -525566.56648  20055101.552    20055105.376
  20949753.400    -2442795.65649  -1892415.58147  20949752.968    20949755.850
 04  7 20 16 32 30.0000000  0  7G22G21G 3G19G18G15G14
  20638121.965     -416186.12049   -357437.29748  20638121.875    20638122.733
  22930893.084     1041495.63649    799050.17246  22930892.562    22930895.747
  21665581.817     -196669.34849   -156914.65447  21665581.520    21665585.680
  22389338.105    -2205082.23949  -1705473.50047  22389337.184    22389339.702
  22137496.309      614146.67649    467504.22246  22137495.841    22137498.777
  20058351.203     -657253.40949   -512262.63348  20058350.543    20058354.348
  20937971.937    -2504707.84749  -1940658.81447  20937971.474    20937974.373
 04  7 20 16 33  0.0000000  0  7G22G21G 3G19G18G15G14
  20643022.165     -390435.45949   -337371.85548  20643022.053    20643022.881
  22947689.232     1129758.05549    867826.04146  22947688.695    22947691.687
  21672852.817     -158460.36649   -127141.44747  21672852.506    21672856.650
  22380205.504    -2253074.26949  -1742869.87247  22380204.617    22380207.136
  22150531.209      682645.27249    520879.73846  22150530.816    22150533.686
  20061684.212     -639738.35249   -498614.54248  20061683.555    20061687.393
  20926283.622    -2566130.35149  -1988520.47847  20926283.176    20926286.074
 04  7 20 16 33 30.0000000  0  7G22G21G 3G19G18G15G14
  20647970.931     -364429.81349   -317107.71548  20647970.797    20647971.641
  22964532.456     1218269.16449    936795.66246  22964531.836    22964534.955
  21680221.797     -119736.20449    -96966.79147  21680221.485    21680225.662
  22371172.302    -2300544.14449  -1779859.36447  22371171.401    22371173.960
  22163592.538      751281.57049    574362.56347  22163592.064    22163594.881
  20065101.426     -621781.20949   -484621.97348  20065100.760    20065104.581
  20914688.769    -2627061.66949  -2035999.39947  20914688.313    20914691.212
 04  7 20 16 34  0.0000000  0  7G22G21G 3G19G18G15G14
  20652968.124     -338169.37849   -296645.03848  20652968.008    20652968.849
  22981422.576     1307028.75049   1005958.86446  22981422.043    22981425.514
  21687688.759      -80497.43849    -66391.14847  21687688.426    21687692.587
  22362238.912    -2347489.21649  -1816439.92147  22362238.035    22362240.627
  22176679.821      820055.51149    627952.60346  22176679.344    22176682.216
  20068603.030     -603380.52349   -470283.77848  20068602.326    20068606.142
  20903187.837    -2687499.62249  -2083093.87947  20903187.394    20903190.264
 04  7 20 16 34 30.0000000  0  7G22G21G 3G19G18G15G14
  20658013.546     -311655.38149   -275984.78948  20658013.415    20658014.346
  22998360.059     1396035.34449   1075314.54746  22998359.537    22998363.019
  21695253.179      -40746.33449    -35416.27547  21695252.829    21695257.021
  22353405.683    -2393908.21549  -1852610.55847  22353404.790    22353407.446
  22189792.957      888965.71949    681648.83546  22189792.526    22189795.346
  20072188.971     -584536.26649   -455599.94648  20072188.293    20072192.108
  20891780.934    -2747443.32549  -2129803.22947  20891780.481    20891783.355
 04  7 20 16 35  0.0000000  0  7G22G21G 3G19G18G15G14
  20663107.110     -284888.89449   -255127.78248  20663106.969    20663107.855
  23015344.487     1485287.80849   1144861.87246  23015343.979    23015347.212
  21702914.740        -484.57449     -4043.49947  21702914.415    21702918.623
  22344672.783    -2439799.79649  -1888370.21447  22344671.915    22344674.554
  22202931.859      958011.20849    735450.53546  22202931.400    22202934.078
  20075859.421     -565247.95949   -440570.10048  20075858.732    20075862.575
  20880468.319    -2806891.32949  -2176126.32147  20880467.883    20880470.763
 04  7 20 16 35 30.0000000  0  7G22G21G 3G19G18G15G14
  20668248.365     -257871.38549   -234075.18048  20668248.269    20668249.153
  23032375.463     1574784.91249   1214599.82946  23032374.948    23032378.001
  21710673.126       40285.62149     27725.46647  21710672.784    21710677.001
  22336040.594    -2485162.53749  -1923717.79047  22336039.662    22336042.301
  22216096.376     1027190.79049    789356.68946  22216095.967    22216098.694
  20079614.369     -545515.46549   -425194.11548  20079613.693    20079617.560
  20869250.293    -2865842.46049  -2222062.23947  20869249.869    20869252.757
 04  7 20 16 36  0.0000000  0  7G22G21G 3G19G18G15G14
  20673437.528     -230602.45049   -212826.66748  20673437.367    20673438.318
  23049453.043     1664526.92149   1284528.66245  23049452.476    23049455.090
  21718528.155       81563.94649     59890.36847  21718527.826    21718532.051
  22327509.451    -2529993.66549  -1958651.12447  22327508.578    22327511.260
  22229286.524     1096504.64449    843367.43747  22229286.075    22229288.962
  20083454.203     -525337.13149   -409470.74848  20083453.514    20083457.421
  20858127.291    -2924294.35949  -2267609.14747  20858126.849    20858129.735
 04  7 20 16 36 30.0000000  0  7G22G21G 3G19G18G15G14
  20678674.137     -203084.35549   -191383.99448  20678673.992    20678674.890
  23066576.641     1754511.66149   1354646.64145  23066576.071    23066578.580
  21726479.299      123347.37749     92448.86947  21726478.942    21726483.234
  22319079.560    -2574292.91749  -1993170.01147  22319078.683    22319081.415
  22242501.613     1165950.53749    897481.07546  22242501.147    22242504.200
  20087378.749     -504713.67949   -393400.52748  20087378.048    20087381.976
  20847099.392    -2982246.63749  -2312766.73747  20847098.924    20847101.785
 04  7 20 16 37  0.0000000  0  7G22G21G 3G19G18G15G14
  20683958.138     -175316.80549   -169746.95148  20683957.994    20683958.915
  23083746.198     1844739.15149   1424953.68145  23083745.586    23083748.596
  21734526.394      165634.91549    125400.17447  21734526.051    21734530.373
  22310751.485    -2618057.45949  -2027272.24647  22310750.589    22310753.326
  22255741.858     1235528.73249    951697.85546  22255741.450    22255744.341
  20091388.275     -483643.47949   -376982.18748  20091387.592    20091391.569
  20836166.949    -3039696.83649  -2357533.09847  20836166.512    20836169.375
 04  7 20 16 37 30.0000000  0  7G22G21G 3G19G18G15G14
  20689289.399     -147301.27549   -147916.66648  20689289.243    20689290.132
  23100961.729     1935208.02249   1495448.78745  23100961.178    23100964.539
  21742668.979      208424.44049    158742.64047  21742668.654    21742672.970
  22302525.277    -2661286.41349  -2060957.13747  22302524.394    22302527.090
  22269007.245     1305237.69149   1006016.52746  22269006.817    22269009.625
  20095482.820     -462126.58449   -360215.77848  20095482.147    20095486.144
  20825330.192    -3096644.13849  -2401907.59447  20825329.774    20825332.659
 04  7 20 16 38  0.0000000  0  7G22G21G 3G19G18G15G14
  20694667.628     -119038.39949   -125893.65148  20694667.510    20694668.364
  23118223.401     2025917.56649   1566131.44946  23118222.827    23118226.280
  21750906.900      251714.71649    192475.30447  21750906.571    21750910.894
  22294401.376    -2703977.82249  -2094223.16147  22294400.488    22294403.177
  22282297.253     1375077.04249   1060436.74546  22282296.777    22282299.775
  20099662.528     -440162.25249   -343100.72348  20099661.864    20099665.871
  20814589.505    -3153086.87349  -2445888.91847  20814589.100    20814591.968
 04  7 20 16 38 30.0000000  0  7G22G21G 3G19G18G15G14
  20700092.772      -90529.33449   -103678.80448  20700092.644    20700093.529
  23135530.656     2116866.59449   1637000.74446  23135529.985    23135533.468
  21759239.632      295503.33049    226596.27747  21759239.312    21759243.657
  22286379.994    -2746130.56949  -2127069.45447  22286379.061    22286381.776
  22295611.745     1445045.82249   1114957.83246  22295611.329    22295614.476
  20103927.432     -417750.30649   -325636.87148  20103926.751    20103930.731
  20803945.004    -3209024.05749  -2489476.31047  20803944.589    20803947.409
 04  7 20 16 39  0.0000000  0  7G22G21G 3G19G18G15G14
  20705564.564      -61774.95649    -81272.80048  20705564.446    20705565.319
  23152883.087     2208054.16049   1708055.94545  23152882.453    23152885.978
  21767666.891      339788.73049    261104.35947  21767666.548    21767670.888
  22278461.385    -2787743.04149  -2159494.74647  22278460.483    22278463.172
  22308950.902     1515143.31049   1169579.28846  22308950.465    22308953.454
  20108277.624     -394890.07049   -307823.70748  20108276.940    20108280.889
  20793396.990    -3264454.24049  -2532668.64047  20793396.581    20793399.387
 04  7 20 16 39 30.0000000  0  7G22G21G 3G19G18G15G14
  20711082.851      -32776.28149    -58676.43848  20711082.716    20711083.623
  23170280.658     2299479.02349   1779296.05245  23170280.109    23170283.366
  21776188.294      384568.93349    295998.00447  21776187.979    21776192.343
  22270646.021    -2828813.59049  -2191497.76647  22270645.113    22270647.732
  22322314.350     1585368.34649   1224300.04546  22322313.923    22322316.940
  20112713.126     -371581.29349   -289661.02548  20112712.469    20112716.406
  20782945.735    -3319376.20549  -2575464.95147  20782945.306    20782948.079
 04  7 20 16 40  0.0000000  0  7G22G21G 3G19G18G15G14
  20716647.461       -3534.33149    -35890.50948  20716647.334    20716648.245
  23187723.201     2391140.28049   1850720.36545  23187722.664    23187725.843
  21784803.449      429841.88249    331275.60547  21784803.145    21784807.538
  22262933.864    -2869341.21349  -2223077.72347  22262932.982    22262935.546
  22335701.879     1655720.24149   1279119.63346  22335701.426    22335704.622
  20117234.164     -347823.47149   -271148.43848  20117233.489    20117237.423
  20772591.322    -3373788.97449  -2617864.48947  20772590.894    20772593.662
 04  7 20 16 40 30.0000000  0  7G22G21G 3G19G18G15G14
  20722258.210       25950.68549    -12915.18048  20722258.089    20722259.047
  23205210.581     2483037.16549   1922328.20145  23205210.177    23205213.505
  21793512.193      475606.48249    366936.30247  21793511.925    21793516.283
  22255325.505    -2909323.48949  -2254232.73847  22255324.600    22255327.193
  22349113.516     1726198.68849   1334037.94246  22349113.111    22349116.164
  20121840.782     -323615.65549   -252285.21248  20121840.100    20121844.041
  20762334.216    -3427690.47949  -2659865.64147  20762333.805    20762336.544
 04  7 20 16 41  0.0000000  0  7G22G21G 3G19G18G15G14
  20727914.955       55676.87949     10248.07948  20727914.823    20727915.811
  23222742.619     2575167.87149   1994118.27746  23222742.170    23222745.690
  21802313.907      521859.61849    402977.68047  21802313.632    21802318.006
  22247820.991    -2948760.14249  -2284962.59147  22247820.045    22247822.662
  22362548.843     1796801.70649   1389053.25846  22362548.420    22362551.488
  20126532.846     -298958.57549   -233071.91148  20126532.192    20126536.124
  20752174.471    -3481080.48549  -2701468.22148  20752174.039    20752176.777
 04  7 20 16 41 30.0000000  0  7G22G21G 3G19G18G15G14
  20733617.445       85643.68349     33598.82648  20733617.286    20733618.261
  23240319.105     2667531.97149   2066090.23346  23240318.622    23240322.221
  21811208.264      568599.73049    439398.51747  21811208.005    21811212.402
  22240420.592    -2987649.43149  -2315265.92847  22240419.678    22240422.253
  22376007.806     1867528.82749   1444165.27346  22376007.342    22376010.427
  20131310.590     -273851.58449   -213508.03148  20131309.924    20131313.813
  20742112.335    -3533957.43749  -2742671.02048  20742111.865    20742114.619
 04  7 20 16 42  0.0000000  0  7G22G21G 3G19G18G15G14
  20739365.594      115850.23449     57136.39048  20739365.426    20739366.427
  23257939.690     2760127.91249   2138242.82446  23257939.154    23257942.830
  21820194.935      615824.78249    476197.23347  21820194.644    21820199.071
  22233124.590    -3025990.15849  -2345141.79647  22233123.679    22233126.238
  22389490.091     1938378.95349   1499373.13246  22389489.678    22389492.729
  20136174.028     -248294.28249   -193593.26148  20136173.317    20136177.232
  20732147.974    -3586320.51749  -2783473.39848  20732147.523    20732150.278
 04  7 20 16 42 30.0000000  0  7G22G21G 3G19G18G15G14
  20745159.088      146295.14549     80859.69248  20745158.945    20745159.909
  23275604.226     2852954.61049   2210575.23445  23275603.545    23275607.124
  21829273.545      663532.79049    513372.28247  21829273.248    21829277.652
  22225933.218    -3063781.31749  -2374589.44647  22225932.287    22225934.822
  22402995.851     2009351.34849   1554676.28546  22402995.349    22402998.317
  20141123.181     -222286.32449   -173327.32648  20141122.491    20141126.433
  20722281.653    -3638168.48549  -2823874.39048  20722281.193    20722283.934
 04  7 20 16 43  0.0000000  0  7G22G21G 3G19G18G15G14
  20750998.009      176978.70649    104768.94348  20750997.823    20750998.785
  23293312.259     2946012.06649   2283087.46245  23293311.566    23293315.417
  21838443.829      711722.79249    550922.90047  21838443.540    21838447.938
  22218846.898    -3101020.26949  -2403606.80547  22218845.953    22218848.484
  22416524.874     2080446.17849   1610074.84246  22416524.363    22416527.282
  20146158.355     -195826.44349   -152709.24448  20146157.685    20146161.629
  20712513.679    -3689499.27149  -2863872.38448  20712513.226    20712516.013
 04  7 20 16 43 30.0000000  0  7G22G21G 3G19G18G15G14
  20756882.090      207899.37749    128862.96748  20756881.920    20756882.877
  23311064.125     3039298.24849   2355777.95645  23311063.566    23311067.269
  21847705.281      760391.95049    588846.89647  21847704.988    21847709.386
  22211865.703    -3137706.70949  -2432193.62447  22211864.786    22211867.299
  22430076.755     2151661.83849   1665567.56546  22430076.271    22430079.164
  20151279.442     -168915.22349   -131739.47148  20151278.750    20151282.686
  20702844.277    -3740312.37049  -2903466.98648  20702843.829    20702846.618
 04  7 20 16 44  0.0000000  0  7G22G21G 3G19G18G15G14
  20762811.194      239057.10849    153141.71248  20762811.025    20762811.986
  23328859.600     3132813.07449   2428646.58846  23328858.987    23328862.617
  21857057.727      809539.05849    627143.31747  21857057.414    21857061.814
  22204990.132    -3173838.23249  -2460348.04947  22204989.216    22204991.696
  22443651.618     2222998.44249   1721154.43246  22443651.124    22443654.240
  20156486.689     -141551.17849   -110416.84648  20156485.955    20156489.931
  20693273.738    -3790605.91549  -2942656.74248  20693273.295    20693276.073
 04  7 20 16 44 30.0000000  0  7G22G21G 3G19G18G15G14
  20768784.881      270449.03649    177602.94648  20768784.749    20768785.696
  23346697.938     3226553.78149   2501691.21346  23346697.377    23346701.007
  21866500.390      859160.55149    665809.38647  21866500.087    21866504.504
  22198219.973    -3209415.57549  -2488070.64347  22198219.063    22198221.549
  22457249.144     2294453.36549   1776833.59846  22457248.660    22457251.650
  20161779.735     -113735.97149    -88742.66648  20161779.031    20161783.004
  20683801.875    -3840380.83649  -2981442.37648  20683801.432    20683804.197
 04  7 20 16 45  0.0000000  0  7G22G21G 3G19G18G15G14
  20774803.107      302075.02949    202246.56648  20774802.973    20774803.923
  23364579.279     3320519.97749   2574911.54945  23364578.729    23364582.280
  21876033.005      909254.53749    704843.63647  21876032.718    21876037.115
  22191555.759    -3244436.57049  -2515359.71847  22191554.826    22191557.274
  22470869.182     2366026.31049   1832604.69846  22470868.691    22470871.574
  20167158.833      -85468.55649    -66716.11848  20167158.147    20167162.141
  20674429.074    -3889635.22749  -3019822.40248  20674428.621    20674431.398
 04  7 20 16 45 30.0000000  0  7G22G21G 3G19G18G15G14
  20780865.886      333934.73149    227072.30148  20780865.736    20780866.616
  23382503.257     3414710.97749   2648307.04845  23382502.680    23382506.147
  21885655.241      959819.60449    744244.96047  21885654.946    21885659.356
  22184997.593    -3278899.54349  -2542213.97447  22184996.686    22184999.190
  22484511.497     2437717.16149   1888467.68646  22484510.977    22484513.822
  20172624.081      -56748.31949    -44336.71948  20172623.403    20172627.456
  20665155.644    -3938367.47049  -3057795.55748  20665155.201    20665157.975
 04  7 20 16 46  0.0000000  0  7G22G21G 3G19G18G15G14
  20786972.903      366027.33349    252079.51448  20786972.738    20786973.660
  23400469.836     3509125.72249   2721876.90545  23400469.242    23400472.627
  21895366.773     1010853.83349    784011.86247  21895366.453    21895370.896
  22178545.915    -3312803.36849  -2568632.53647  22178545.013    22178547.532
  22498176.173     2509525.39649   1944422.09446  22498175.627    22498178.606
  20178175.630      -27574.68149    -21604.02748  20178174.980    20178179.036
  20655981.787    -3986576.35149  -3095360.90248  20655981.332    20655984.109
 04  7 20 16 46 30.0000000  0  7G22G21G 3G19G18G15G14
  20793124.031      398351.64349    277267.28448  20793123.890    20793124.789
  23418478.578     3603762.60249   2795619.90245  23418478.055    23418481.507
  21905167.123     1062354.82049    824142.47847  21905166.828    21905171.286
  22172200.774    -3346147.20549  -2594614.73747  22172199.885    22172202.422
  22511862.882     2581449.59949   2000466.91046  22511862.372    22511865.335
  20183813.420        2052.07249      1481.74548  20183812.777    20183816.821
  20646907.574    -4034261.50049  -3132518.14048  20646907.154    20646909.908
 04  7 20 16 47  0.0000000  0  7G22G21G 3G19G18G15G14
  20799319.125      430907.16949    302635.21048  20799319.011    20799319.989
  23436529.569     3698621.10349   2869535.55545  23436529.179    23436532.631
  21915055.986     1114320.89449    864635.49547  21915055.693    21915060.137
  22165962.620    -3378929.22949  -2620159.16847  22165961.684    22165964.205
  22525571.577     2653489.39349   2056601.76546  22525571.081    22525573.974
  20189537.566       32132.54349     24921.06648  20189536.944    20189540.965
  20637933.393    -4081421.24749  -3169265.97548  20637932.966    20637935.721
 04  7 20 16 47 30.0000000  0  7G22G21G 3G19G18G15G14
  20805558.126      463693.02649    328182.62648  20805557.982    20805558.932
  23454622.230     3793700.13249   2943622.96245  23454621.744    23454625.711
  21925032.935     1166749.83449    905489.17847  21925032.636    21925037.063
  22159831.542    -3411148.61349  -2645265.18547  22159830.608    22159833.057
  22539302.202     2725644.16249   2112826.29146  22539301.746    22539304.483
  20195348.005       62666.90249     48714.05948  20195347.432    20195351.420
  20629059.308    -4128054.97049  -3205603.92848  20629058.880    20629061.602
 04  7 20 16 48  0.0000000  0  7G22G21G 3G19G18G15G14
  20811840.717      496708.11649    353908.65748  20811840.602    20811841.527
  23472756.844     3888998.28449   3017881.10945  23472756.469    23472760.369
  21935097.487     1219639.32249    946701.73847  21935097.198    21935101.634
  22153807.685    -3442804.30249  -2669931.95347  22153806.759    22153809.148
  22553054.471     2797913.26549   2169139.81246  22553054.006    22553056.900
  20201244.902       93655.24649     72860.81448  20201244.300    20201248.335
  20620285.470    -4174161.82049  -3241531.32848  20620285.034    20620287.736
 04  7 20 16 48 30.0000000  0  7G22G21G 3G19G18G15G14
  20818166.738      529951.34849    379812.46048  20818166.583    20818167.523
  23490933.078     3984513.82849   3092308.75345  23490932.646    23490936.393
  21945249.288     1272987.12449    988271.42547  21945248.980    21945253.384
  22147891.229    -3473895.62349  -2694158.95747  22147890.315    22147892.720
  22566828.165     2870295.19549   2225541.30246  22566827.761    22566830.721
  20207228.222      125097.45149     97361.22048  20207227.597    20207231.613
  20611612.059    -4219741.13149  -3277047.65748  20611611.608    20611614.306
 04  7 20 16 49  0.0000000  0  7G22G21G 3G19G18G15G14
  20824535.943      563421.81949    405893.33748  20824535.814    20824536.713
  23509150.392     4080246.03449   3166905.25445  23509149.864    23509153.616
  21955487.877     1326790.66549   1030196.23047  21955487.542    21955491.904
  22142082.389    -3504421.52249  -2717945.37347  22142081.476    22142083.840
  22580623.341     2942789.34549   2282030.11446  22580622.919    22580626.112
  20213297.913      156993.57249    122215.33248  20213297.285    20213301.263
  20603039.104    -4264792.17349  -3312152.35048  20603038.663    20603041.361
 04  7 20 16 49 30.0000000  0  7G22G21G 3G19G18G15G14
  20830948.195      597117.94049    432150.04648  20830947.995    20830948.996
  23527408.636     4176193.00149   3241669.04345  23527408.034    23527411.859
  21965812.670     1381047.55349   1072474.29647  21965812.324    21965816.696
  22136381.203    -3534381.46949  -2741290.78547  22136380.303    22136382.674
  22594439.768     3015394.24249   2338605.42546  22594439.315    22594442.159
  20219453.878      189343.47949    147423.04648  20219453.294    20219457.278
  20594566.871    -4309314.45749  -3346845.01848  20594566.408    20594569.080
 04  7 20 16 50  0.0000000  0  7G22G21G 3G19G18G15G14
  20837403.278      631039.87249    458582.70448  20837403.146    20837404.111
  23545707.739     4272354.33249   3316599.84545  23545707.106    23545710.947
  21976223.362     1435755.89049   1115104.14247  21976223.017    21976227.401
  22130788.086    -3563773.65549  -2764193.78447  22130787.165    22130789.531
  22608277.182     3088109.85949   2395266.91846  22608276.745    22608279.635
  20225696.342      222147.86749    172984.88748  20225695.762    20225699.734
  20586195.437    -4353306.50149  -3381124.51748  20586194.984    20586197.636
 04  7 20 16 50 30.0000000  0  7G22G21G 3G19G18G15G14
  20843901.289      665186.70349    485190.61848  20843901.097    20843902.038
  23564047.256     4368728.68949   3391696.66645  23564046.600    23564050.438
  21986719.511     1490913.58749   1158084.13647  21986719.181    21986723.586
  22125303.165    -3592597.03649  -2786653.56447  22125302.252    22125304.644
  22622135.481     3160935.67949   2452014.32246  22622135.072    22622137.918
  20232025.444      255407.06149    198901.13848  20232024.801    20232028.771
  20577925.126    -4396767.27949  -3414990.04148  20577924.669    20577927.335
 04  7 20 16 51  0.0000000  0  7G22G21G 3G19G18G15G14
  20850441.938      699557.94149    511973.38648  20850441.740    20850442.694
  23582427.098     4465315.66449   3466959.17545  23582426.526    23582430.254
  21997300.864     1546518.80949   1201412.84447  21997300.536    21997304.909
  22119926.781    -3620850.29649  -2808669.09747  22119925.844    22119928.243
  22636014.573     3233871.12749   2508847.06746  22636014.194    22636017.210
  20238441.118      289121.51649    225172.12948  20238440.439    20238444.413
  20569756.124    -4439695.67549  -3448440.72848  20569755.674    20569758.318
 04  7 20 16 51 30.0000000  0  7G22G21G 3G19G18G15G14
  20857025.105      734152.72649    538930.35048  20857024.922    20857025.868
  23600847.213     4562113.49349   3542385.98245  23600846.623    23600850.466
  22007966.947     1602569.18549   1245088.42447  22007966.612    22007971.019
  22114659.039    -3648532.72249  -2830239.82147  22114658.081    22114660.442
  22649914.474     3306915.68649   2565764.83346  22649914.100    22649917.202
  20244943.332      323291.12249    251797.77748  20244942.708    20244946.674
  20561688.529    -4482091.15249  -3481476.15048  20561688.079    20561690.710
 04  7 20 16 52  0.0000000  0  7G22G21G 3G19G18G15G14
  20863650.525      768969.71749    566060.46548  20863650.385    20863651.323
  23619307.113     4659120.80949   3617976.01645  23619306.624    23619310.491
  22018717.206     1659062.03749   1289108.79747  22018716.909    22018721.292
  22109500.007    -3675643.54649  -2851365.13847  22109499.072    22109501.394
  22663834.967     3380068.00749   2622766.63746  22663834.554    22663837.596
  20251532.188      357915.50449    278777.80148  20251531.576    20251535.483
  20553722.446    -4523953.30849  -3514095.99348  20553721.964    20553724.590
 04  7 20 16 52 30.0000000  0  7G22G21G 3G19G18G15G14
  20870318.195      804008.18649    593363.15548  20870318.000    20870318.972
  23637806.724     4756336.78749   3693728.65145  23637806.158    23637810.100
  22029551.270     1715995.26349   1333472.31947  22029550.929    22029555.339
  22104449.966    -3702181.81149  -2872044.30847  22104449.038    22104451.324
  22677775.901     3453327.58349   2679851.95346  22677775.452    22677778.604
  20258207.723      392995.06849    306112.51948  20258207.075    20258210.939
  20545858.035    -4565280.92249  -3546299.31248  20545857.579    20545860.191
 04  7 20 16 53  0.0000000  0  7G22G21G 3G19G18G15G14
  20877027.886      839267.61349    620838.02548  20877027.724    20877028.635
  23656345.876     4853760.18549   3769642.91845  23656345.392    23656349.131
  22040468.732     1773366.87349   1378177.43747  22040468.401    22040472.840
  22099508.977    -3728146.57049  -2892276.58247  22099508.079    22099510.378
  22691737.088     3526693.98649   2737020.59246  22691736.697    22691739.682
  20264969.907      428530.11749    333802.16448  20264969.224    20264973.066
  20538095.488    -4606073.38249  -3578085.62748  20538095.043    20538097.630
 04  7 20 16 53 30.0000000  0  7G22G21G 3G19G18G15G14
  20883779.223      874746.12049    648483.60648  20883779.050    20883780.014
  23674924.201     4951388.62549   3845716.96045  23674923.652    23674927.462
  22051469.016     1831173.40149   1423221.45747  22051468.646    22051473.159
  22094677.147    -3753537.95549  -2912062.07447  22094676.224    22094678.611
  22705718.304     3600165.25149   2794270.89146  22705717.879    22705720.872
  20271818.532      464519.58349    361845.89848  20271817.793    20271821.654
  20530434.742    -4646330.87149  -3609455.08148  20530434.306    20530436.863
 04  7 20 16 54  0.0000000  0  7G22G21G 3G19G18G15G14
  20890572.224      910443.83849    676299.99448  20890572.058    20890573.033
  23693541.192     5049222.22149   3921950.81145  23693540.753    23693544.755
  22062551.786     1889413.61649   1468603.40547  22062551.433    22062555.946
  22089954.810    -3778353.94749  -2931399.21547  22089953.913    22089956.305
  22719719.513     3673742.15549   2851603.47546  22719719.145    22719722.097
  20278753.771      500964.69349    390244.67748  20278753.081    20278756.986
  20522876.150    -4686051.56649  -3640406.25648  20522875.709    20522878.283
 04  7 20 16 54 30.0000000  0  7G22G21G 3G19G18G15G14
  20897406.967      946360.38649    704286.90248  20897406.796    20897407.815
  23712197.134     5147259.93149   3998343.73645  23712196.778    23712200.981
  22073716.690     1948085.22249   1514321.50947  22073716.284    22073720.860
  22085342.185    -3802593.40549  -2950287.10047  22085341.296    22085343.707
  22733740.826     3747424.06849   2909017.98346  22733740.448    22733743.211
  20285775.824      537865.78449    418998.76248  20285775.130    20285779.049
  20515419.822    -4725234.74949  -3670938.58848  20515419.361    20515421.933
 04  7 20 16 55  0.0000000  0  7G22G21G 3G19G18G15G14
  20904282.980      982493.81949    732442.81948  20904282.796    20904283.750
  23730891.511     5245499.60549   4074894.07145  23730891.146    23730895.310
  22084962.934     2007185.05549   1560373.28947  22084962.598    22084967.236
  22080839.263    -3826256.61749  -2968725.95847  22080838.364    22080840.870
  22747781.814     3821209.26749   2966512.89646  22747781.399    22747784.174
  20292884.447      575222.00649    448107.50348  20292883.729    20292887.721
  20508065.717    -4763880.69849  -3701052.29848  20508065.282    20508067.873
 04  7 20 16 55 30.0000000  0  7G22G21G 3G19G18G15G14
  20911200.307     1018844.76549    760768.22348  20911200.138    20911201.152
  23749624.362     5343941.01849   4151601.54145  23749623.958    23749628.248
  22096290.630     2066712.14749   1606758.00647  22096290.277    22096294.844
  22076446.381    -3849341.51149  -2986714.18747  22076445.505    22076448.018
  22761842.437     3895098.26249   3024088.68546  22761842.014    22761844.905
  20300079.902      613034.24849    477571.57548  20300079.218    20300083.204
  20500814.220    -4801987.53349  -3730745.91548  20500813.772    20500816.366
 04  7 20 16 56  0.0000000  0  7G22G21G 3G19G18G15G14
  20918158.543     1055410.59649    789261.06948  20918158.390    20918159.410
  23768395.097     5442581.64149   4228464.28145  23768394.733    23768398.951
  22107698.816     2126662.37149   1653472.43247  22107698.469    22107703.027
  22072163.346    -3871849.06549  -3004252.53547  22072162.440    22072165.018
  22775922.370     3969088.95049   3081743.72246  22775921.947    22775924.919
  20307361.900      651300.90949    507389.74648  20307361.196    20307365.083
  20493665.111    -4839556.30449  -3760020.26748  20493664.671    20493667.234
 04  7 20 16 56 30.0000000  0  7G22G21G 3G19G18G15G14
  20925157.768     1092191.61549    817921.58748  20925157.645    20925158.654
  23787203.895     5541421.04049   4305481.94145  23787203.402    23787207.539
  22119187.284     2187034.49649   1700515.62147  22119186.955    22119191.494
  22067990.481    -3893777.37249  -3021339.53347  22067989.619    22067992.248
  22790021.708     4043181.67249   3139478.20246  22790021.267    22790024.419
  20314730.550      690023.37049    537563.08248  20314729.865    20314733.727
  20486618.752    -4876585.13449  -3788873.88348  20486618.309    20486620.879
 04  7 20 16 57  0.0000000  0  7G22G21G 3G19G18G15G14
  20932197.790     1129187.10649    846749.23747  20932197.631    20932198.619
  23806050.102     5640457.94849   4382653.48345  23806049.584    23806053.685
  22130755.555     2247826.04349   1747885.62047  22130755.207    22130759.785
  22063928.023    -3915125.98049  -3037974.81647  22063927.131    22063929.768
  22804140.375     4117375.75349   3197291.68046  22804139.962    22804143.248
  20322185.864      729201.18549    568091.23448  20322185.134    20322189.057
  20479675.188    -4913073.90749  -3817306.67848  20479674.746    20479677.295
 04  7 20 16 57 30.0000000  0  7G22G21G 3G19G18G15G14
  20939278.272     1166395.43449    875742.71848  20939278.169    20939279.218
  23824933.566     5739690.50549   4459977.47145  23824933.063    23824936.888
  22142402.949     2309033.56049   1795579.75247  22142402.604    22142407.185
  22059975.824    -3935894.86849  -3054158.36447  22059974.927    22059977.588
  22818278.182     4191669.59849   3255183.01946  22818277.705    22818280.813
  20329727.638      768833.85949    598973.81748  20329726.963    20329730.928
  20472834.362    -4949022.61449  -3845318.64348  20472833.912    20472836.456
 04  7 20 16 58  0.0000000  0  7G22G21G 3G19G18G15G14
  20946399.362     1203816.16249    904901.72847  20946399.140    20946400.146
  23843854.064     5839117.70449   4537453.14045  23843853.393    23843857.114
  22154129.172     2370655.20749   1843596.58947  22154128.826    22154133.420
  22056134.186    -3956082.96949  -3069889.35847  22056133.267    22056135.963
  22832434.851     4266063.11149   3313151.94046  22832434.414    22832437.470
  20337356.022      808921.46349    630210.89848  20337355.392    20337359.333
  20466096.460    -4984430.38749  -3872909.10048  20466096.017    20466098.575
 04  7 20 16 58 30.0000000  0  7G22G21G 3G19G18G15G14
  20953560.632     1241449.39849    934226.31647  20953560.452    20953561.479
  23862811.524     5938738.79849   4615079.84845  23862810.850    23862814.596
  22165933.844     2432689.07649   1891934.63447  22165933.503    22165938.080
  22052403.258    -3975689.05349  -3085166.82647  22052402.359    22052404.970
  22846610.445     4340556.25249   3371198.55446  22846610.111    22846613.005
  20345071.249      849464.74949    661803.06048  20345070.551    20345074.488
  20459461.764    -5019296.01149  -3900077.10348  20459461.330    20459463.887
 04  7 20 16 59  0.0000000  0  7G22G21G 3G19G18G15G14
  20960762.282     1279293.89249    963715.52348  20960762.106    20960763.085
  23881805.490     6038552.22649   4692856.51245  23881804.799    23881808.261
  22177816.496     2495132.44749   1940591.77146  22177816.137    22177820.682
  22048783.229    -3994712.63749  -3099990.40447  22048782.306    22048784.911
  22860804.795     4415148.29749   3429322.19645  22860804.426    22860807.322
  20352872.916      890463.30549    693749.96648  20352872.290    20352876.276
  20452930.223    -5053619.31849  -3926822.52548  20452929.791    20452932.348
 04  7 20 16 59 30.0000000  0  7G22G21G 3G19G18G15G14
  20968003.657     1317347.79549    993367.89147  20968003.433    20968004.555
  23900835.551     6138556.09849   4770781.60245  23900834.977    23900838.375
  22189776.421     2557982.12549   1989565.51447  22189776.078    22189780.642
  22045273.889    -4013154.18149  -3114360.44147  22045273.005    22045275.533
  22875017.587     4489837.58749   3487521.55546  22875017.255    22875020.315
  20360761.119      931915.99449    726050.74148  20360760.489    20360764.446
  20446501.793    -5087400.84649  -3953145.78248  20446501.362    20446503.949
 04  7 20 17  0  0.0000000  0  7G22G21G 3G19G18G15G14
  20975285.161     1355611.75349   1023183.96347  20975284.972    20975285.924
  23919901.949     6238750.43949   4848855.05845  23919901.416    23919904.817
  22201813.421     2621236.79549   2038854.83046  22201813.055    22201817.639
  22041875.702    -4031011.78449  -3128275.46247  22041874.798    22041877.230
  22889249.359     4564624.96749   3545797.37646  22889249.022    22889252.000
  20368735.999      973824.11649    758706.39348  20368735.338    20368739.310
  20440176.876    -5120638.53249  -3979045.26348  20440176.450    20440179.001
 04  7 20 17  0 30.0000000  0  7G22G21G 3G19G18G15G14
  20982606.546     1394085.73149   1053163.67047  20982606.294    20982607.260
  23939004.561     6339134.30449   4927076.17545  23939003.982    23939007.574
  22213927.162     2684894.51549   2088458.21246  22213926.739    22213931.333
  22038588.871    -4048284.45549  -3141734.68647  22038587.943    22038590.234
  22903499.674     4639510.02549   3604149.30646  22903499.227    22903502.231
  20376797.666     1016188.04249    791717.22948  20376796.997    20376800.958
  20433955.635    -5153331.62249  -4004520.38148  20433955.187    20433957.712
 04  7 20 17  1  0.0000000  0  7G22G21G 3G19G18G15G14
  20989967.174     1432766.24249   1083304.32447  20989966.998    20989967.990
  23958142.105     6439703.56549   5005441.71545  23958141.484    23958145.472
  22226116.529     2748950.15249   2138371.66546  22226116.170    22226120.769
  22035412.905    -4064974.33749  -3154739.79047  22035411.972    22035414.175
  22917767.887     4714489.64649   3662574.96146  22917767.460    22917770.490
  20384945.573     1059005.09649    825081.15948  20384944.866    20384948.827
  20427837.528    -5185482.37849  -4029572.89948  20427837.093    20427839.602
 04  7 20 17  1 30.0000000  0  7G22G21G 3G19G18G15G14
  20997367.432     1471654.57049   1113606.91547  20997367.186    20997368.187
  23977315.131     6540459.18549   5083952.48845  23977314.600    23977318.777
  22238381.585     2813403.19049   2188594.77846  22238381.229    22238385.791
  22032348.369    -4081078.92449  -3167288.81847  22032347.423    22032349.621
  22932054.290     4789565.09049   3721075.30346  22932053.929    22932056.853
  20393179.909     1102276.94749    858799.47148  20393179.206    20393183.188
  20421823.108    -5217088.53849  -4054201.06348  20421822.646    20421825.163
 04  7 20 17  2  0.0000000  0  7G22G21G 3G19G18G15G14
  21004806.767     1510748.79749   1144069.93347  21004806.575    21004807.599
  23996523.364     6641398.87949   5162606.77445  23996522.853    23996527.044
  22250721.574     2878249.87249   2239124.62446  22250721.226    22250725.749
  22029395.085    -4096598.86149  -3179382.27847  22029394.117    22029396.359
  22946358.760     4864735.06449   3779649.26546  22946358.307    22946361.224
  20401500.586     1146002.65749    892871.43648  20401499.905    20401503.883
  20415912.177    -5248150.64349  -4078405.28548  20415911.708    20415914.201
 04  7 20 17  2 30.0000000  0  7G22G21G 3G19G18G15G14
  21012285.485     1550049.70249   1174694.01247  21012285.248    21012286.300
  24015766.520     6742522.47449   5241404.26445  24015766.061    24015770.424
  22263136.274     2943489.17749   2289960.41246  22263135.932    22263140.418
  22026553.363    -4111532.12749  -3191018.60447  22026552.415    22026554.737
  22960681.065     4940000.14649   3838297.30445  22960680.642    22960683.711
  20409907.855     1190183.03149    927297.67348  20409907.175    20409911.159
  20410105.068    -5278667.14849  -4102184.36448  20410104.619    20410107.119
 04  7 20 17  3  0.0000000  0  7G22G21G 3G19G18G15G14
  21019803.292     1589555.94749   1205478.09047  21019803.093    21019804.101
  24035044.316     6843828.19849   5320343.62645  24035043.865    24035048.425
  22275625.084     3009118.09949   2341099.79946  22275624.746    22275629.288
  22023823.241    -4125878.91349  -3202197.92147  22023822.315    22023824.713
  22975021.272     5015359.09949   3897018.54645  22975021.014    22975024.036
  20418401.555     1234817.45849    962077.72848  20418400.865    20418404.861
  20404401.796    -5308638.08149  -4125538.31648  20404401.337    20404403.825
 04  7 20 17  3 30.0000000  0  7G22G21G 3G19G18G15G14
  21027359.890     1629265.87149   1236420.88647  21027359.662    21027360.671
  24054356.664     6945313.86549   5399423.31445  24054356.166    24054360.547
  22288187.273     3075132.98349   2392539.93046  22288186.959    22288191.543
  22021204.632    -4139639.91049  -3212920.78247  22021203.678    22021206.130
  22989379.259     5090810.41849   3955811.77145  22989378.894    22989381.940
  20426981.383     1279904.53049    997210.48448  20426980.695    20426984.685
  20398802.180    -5338064.19049  -4148467.73648  20398801.733    20398804.209
 04  7 20 17  4  0.0000000  0  7G22G21G 3G19G18G15G14
  21034955.258     1669180.52249   1267523.20047  21034955.104    21034956.164
  24073703.241     7046979.96349   5478643.56245  24073702.792    24073707.114
  22300822.917     3141533.25249   2444280.36046  22300822.582    22300827.155
  22018697.855    -4152812.91749  -3223185.46947  22018696.913    22018699.400
  23003755.087     5166355.51049   4014677.99246  23003754.762    23003757.810
  20435647.709     1325446.02349   1032697.34248  20435647.006    20435650.949
  20393306.685    -5366943.37749  -4170970.98548  20393306.218    20393308.667
 04  7 20 17  4 30.0000000  0  7G22G21G 3G19G18G15G14
  21042589.016     1709296.06249   1298782.06047  21042588.869    21042589.940
  24093083.134     7148822.21649   5558001.02845  24093082.695    24093087.089
  22313530.825     3208313.19949   2496316.64646  22313530.454    22313535.013
  22016302.468    -4165400.62249  -3232994.07847  22016301.572    22016304.036
  23018148.219     5241990.78249   4073614.51346  23018147.827    23018150.827
  20444399.833     1371438.61449   1068535.70748  20444399.137    20444403.099
  20387914.734    -5395278.30049  -4193050.13048  20387914.251    20387916.699
 04  7 20 17  5  0.0000000  0  7G22G21G 3G19G18G15G14
  21050261.449     1749614.90249   1330199.32147  21050261.287    21050262.435
  24112496.990     7250841.80449   5637496.67945  24112496.565    24112500.816
  22326310.951     3275473.26649   2548649.13246  22326310.597    22326315.176
  22014019.180    -4177399.62749  -3242343.96147  22014018.272    22014020.714
  23032558.832     5317718.40149   4132623.02146  23032558.422    23032561.381
  20453238.332     1417885.09449   1104727.75148  20453237.628    20453241.571
  20382626.908    -5423065.91049  -4214702.79948  20382626.451    20382628.866
 04  7 20 17  5 30.0000000  0  7G22G21G 3G19G18G15G14
  21057971.999     1790134.12349   1361772.73847  21057971.849    21057972.940
  24131943.989     7353035.41349   5717127.95545  24131943.413    24131947.780
  22339162.565     3343008.84149   2601274.22146  22339162.200    22339166.767
  22011847.541    -4188811.80249  -3251236.56647  22011846.616    22011849.056
  23046986.480     5393535.84249   4191701.51346  23046986.043    23046988.939
  20462162.775     1464783.22949   1141271.73448  20462162.060    20462165.996
  20377442.899    -5450308.05949  -4235930.42948  20377442.440    20377444.869
 04  7 20 17  6  0.0000000  0  7G22G21G 3G19G18G15G14
  21065720.812     1830854.27149   1393502.72147  21065720.655    21065721.727
  24151423.898     7455403.35149   5796895.07645  24151423.596    24151427.816
  22352085.409     3410918.50349   2654190.80546  22352085.013    22352089.595
  22009787.844    -4199635.82349  -3259670.87347  22009786.892    22009789.326
  23061431.291     5469443.74549   4250850.45545  23061430.864    23061433.813
  20471173.329     1512133.82349   1178168.27448  20471172.632    20471176.557
  20372362.942    -5477003.50349  -4256732.06148  20372362.497    20372364.875
 04  7 20 17  6 30.0000000  0  7G22G21G 3G19G18G15G14
  21073507.699     1871774.91449   1425388.91547  21073507.574    21073508.718
  24170936.818     7557944.08249   5876796.95545  24170936.380    24170940.672
  22365078.917     3479199.71749   2707396.91146  22365078.548    22365083.067
  22007840.147    -4209871.09849  -3267646.41647  22007839.210    22007841.640
  23075893.323     5545441.86949   4310069.72945  23075892.811    23075895.874
  20480269.890     1559936.68549   1215417.24448  20480269.215    20480273.120
  20367387.135    -5503151.60849  -4277107.19248  20367386.682    20367389.041
 04  7 20 17  7  0.0000000  0  7G22G21G 3G19G18G15G14
  21081332.612     1912894.95349   1457430.49947  21081332.457    21081333.599
  24190482.512     7660656.09749   5956832.14545  24190481.988    24190486.532
  22378142.579     3547849.61049   2760890.30546  22378142.185    22378146.773
  22006004.479    -4219517.49749  -3275163.09347  22006003.581    22006006.004
  23090372.206     5621529.32149   4369358.60945  23090371.749    23090374.812
  20489452.491     1608191.56749   1253018.42948  20489451.838    20489455.772
  20362515.453    -5528752.60049  -4297056.00348  20362514.974    20362517.336
 04  7 20 17  7 30.0000000  0  7G22G21G 3G19G18G15G14
  21089195.151     1954212.85649   1489626.27247  21089195.034    21089196.018
  24210060.282     7763537.16849   6036999.10945  24210059.584    24210064.058
  22391275.612     3616864.27049   2814667.91846  22391275.262    22391279.860
  22004280.721    -4228576.09949  -3282221.75147  22004279.794    22004282.222
  23104867.910     5697704.76749   4428716.06945  23104867.443    23104870.567
  20498720.838     1656897.05449   1290970.73348  20498720.181    20498724.126
  20357747.710    -5553807.16049  -4316579.02448  20357747.245    20357749.588
 04  7 20 17  8  0.0000000  0  7G22G21G 3G19G18G15G14
  21097095.421     1995728.54249   1521976.15147  21097095.225    21097096.279
  24229670.005     7866586.45049   6117297.17844  24229669.310    24229673.375
  22404477.800     3686242.09149   2868728.53346  22404477.453    22404482.040
  22002668.990    -4237046.05549  -3288821.72147  22002668.050    22002670.478
  23119380.455     5773968.23549   4488142.13545  23119380.006    23119383.039
  20508075.084     1706053.53649   1329274.46548  20508074.396    20508078.312
  20353084.055    -5578314.85149  -4335675.91048  20353083.583    20353085.910
 04  7 20 17  8 30.0000000  0  8G22G21G 3G11G19G18G15G14
  21105032.025     2037435.83049   1554475.31547  21105031.821    21105032.974
  24249310.328     7969797.19649   6197721.07844  24249309.902    24249313.329
  22417747.531     3755974.94349   2923065.78346  22417747.206    22417751.864
  24609708.629    -4479391.42349  -3192789.16945  24609708.214    24609713.558
  22001168.258    -4244932.55849  -3294967.05847  22001167.319    22001169.753
  23133908.674     5850313.67249   4547632.06346  23133908.129    23133911.238
  20517513.986     1755655.03649   1367924.95748  20517513.271    20517517.188
  20348523.460    -5602280.94949  -4354350.77948  20348522.981    20348525.313
 04  7 20 17  9  0.0000000  0  8G22G21G 3G11G19G18G15G14
  21113006.064     2079339.42849   1587127.47247  21113005.900    21113006.908
  24268982.195     8073172.84549   6278273.53345  24268981.563    24268985.029
  22431085.341     3826065.38749   2977681.67846  22431084.973    22431089.679
  24590621.318    -4579695.85649  -3270948.35945  24590620.727    24590626.036
  21999779.554    -4252230.32149  -3300653.63547  21999778.640    21999781.017
  23148453.130     5926745.67549   4607189.41046  23148452.580    23148455.942
  20527038.465     1805706.44749   1406926.03947  20527037.777    20527041.681
  20344066.921    -5625700.06549  -4372599.42848  20344066.446    20344068.771
 04  7 20 17  9 30.0000000  0  8G22G21G 3G11G19G18G15G14
  21121018.066     2121442.83649   1619935.32047  21121017.874    21121018.939
  24288686.021     8176716.82349   6358957.09545  24288685.302    24288689.109
  22444491.550     3896515.17149   3032577.57846  22444491.152    22444495.882
  24571547.034    -4679931.67549  -3349054.09545  24571546.552    24571551.754
  21998503.721    -4258934.97249  -3305878.05247  21998502.783    21998505.157
  23163014.817     6003268.29249   4666817.34646  23163014.349    23163017.823
  20536649.325     1856211.71349   1446280.77147  20536648.614    20536652.512
  20339715.365    -5648567.76049  -4390418.40148  20339714.868    20339717.208
 04  7 20 17 10  0.0000000  0  8G22G21G 3G11G19G18G15G14
  21129067.381     2163741.89349   1652895.61347  21129067.191    21129068.294
  24308420.945     8280424.40649   6439768.05945  24308420.220    24308424.552
  22457964.856     3967317.96849   3087748.54846  22457964.515    22457969.270
  24552485.653    -4780100.79749  -3427107.86045  24552485.118    24552490.026
  21997340.096    -4265049.80549  -3310642.86247  21997339.179    21997341.556
  23177593.067     6079877.31449   4726512.61346  23177592.596    23177596.158
  20546345.925     1907167.03149   1485986.19147  20546345.181    20546349.047
  20335468.064    -5670887.46849  -4407810.36648  20335467.569    20335469.922
 04  7 20 17 10 30.0000000  0  8G22G21G 3G11G19G18G15G14
  21137153.749     2206235.80449   1686007.74047  21137153.503    21137154.532
  24328186.817     8384293.53949   6520704.97345  24328186.166    24328190.460
  22471504.898     4038470.96049   3143192.40546  22471504.521    22471509.294
  24533437.048    -4880201.45849  -3505108.25345  24533436.495    24533441.486
  21996288.687    -4270575.08249  -3314948.27447  21996287.767    21996290.184
  23192187.730     6156572.11549   4786274.72446  23192187.172    23192190.787
  20556127.908     1958571.71949   1526041.77747  20556127.149    20556131.049
  20331324.950    -5692659.47749  -4424775.55148  20331324.467    20331326.807
 04  7 20 17 11  0.0000000  0  8G22G21G 3G11G19G18G15G14
  21145277.144     2248924.26949   1719271.47247  21145276.909    21145277.879
  24347983.084     8488323.31049   6601767.02245  24347982.412    24347986.987
  22485111.034     4109971.65949   3198907.19246  22485110.662    22485115.481
  24514401.934    -4980231.68549  -3583053.78145  24514401.392    24514406.243
  21995349.500    -4275510.59049  -3318794.13247  21995348.577    21995351.022
  23206798.610     6233352.48749   4846103.56246  23206798.058    23206801.710
  20565995.379     2010425.65949   1566447.42347  20565994.628    20565998.595
  20327286.128    -5713883.61149  -4441313.82748  20327285.663    20327287.986
 04  7 20 17 11 30.0000000  0  8G22G21G 3G11G19G18G15G14
  21153437.364     2291806.24049   1752685.98347  21153437.091    21153438.145
  24367809.647     8592511.85149   6682952.80445  24367808.767    24367813.519
  22498782.840     4181817.14949   3254890.65346  22498782.477    22498787.311
  24495380.416    -5080189.96249  -3660943.25545  24495379.991    24495384.747
  21994522.453    -4279856.71549  -3322180.73047  21994521.550    21994523.961
  23221425.498     6310217.38649   4905998.27146  23221424.962    23221428.657
  20575948.174     2062727.90049   1607202.39347  20575947.428    20575951.398
  20323351.472    -5734560.32249  -4457425.53548  20323350.997    20323353.326
 04  7 20 17 12  0.0000000  0  8G22G21G 3G11G19G18G15G14
  21161634.081     2334880.78349   1786250.54447  21161633.866    21161634.896
  24387665.928     8696857.66549   6764261.08445  24387665.162    24387669.835
  22512519.604     4254004.61149   3311140.58046  22512519.258    22512524.184
  24476372.957    -5180074.17349  -3738775.00045  24476372.650    24476377.405
  21993807.555    -4283613.46449  -3325108.07847  21993806.655    21993809.055
  23236068.459     6387166.59449   4965958.65446  23236068.005    23236071.684
  20585986.214     2115478.02149   1648306.35347  20585985.479    20585989.446
  20319520.994    -5754689.71249  -4473110.76548  20319520.519    20319522.836
 04  7 20 17 12 30.0000000  0  8G22G21G 3G11G19G18G15G14
  21169867.672     2378147.96149   1819965.22347  21169867.436    21169868.413
  24407552.115     8801359.65149   6845691.09345  24407551.344    24407556.057
  22526321.058     4326531.54149   3367655.02446  22526320.723    22526325.608
  24457380.115    -5279882.14149  -3816547.34045  24457379.699    24457384.373
  21993204.956    -4286780.38949  -3327575.82247  21993204.032    21993206.415
  23250727.595     6464199.93749   5025984.59346  23250727.097    23250730.622
  20596109.448     2168675.98849   1689759.29447  20596108.721    20596112.698
  20315794.732    -5774271.25149  -4488369.09548  20315794.258    20315796.561
 04  7 20 17 13  0.0000000  0  8G22G21G 3G11G19G18G15G14
  21178137.245     2421605.51049   1853828.22247  21178137.011    21178138.132
  24427467.509     8906015.19949   6927240.69045  24427466.578    24427471.369
  22540186.383     4399393.87749   3424430.84146  22540186.024    22540190.854
  24438401.634    -5379613.73149  -3894260.17045  24438401.327    24438405.808
  21992714.211    -4289359.14949  -3329585.25147  21992713.301    21992715.692
  23265402.241     6541315.39249   5086074.48846  23265401.757    23265405.227
  20606317.531     2222319.67849   1731559.55147  20606316.784    20606320.772
  20312172.445    -5793306.63849  -4503201.85148  20312171.976    20312174.267
 04  7 20 17 13 30.0000000  0  7G22G 3G11G19G18G15G14
  21186443.439     2465254.56149   1887840.46847  21186443.260    21186444.278
  22554115.342     4472590.81349   3481467.37046  22554114.981    22554119.754
  24419438.427    -5479265.20149  -3971910.58045  24419438.075    24419442.491
  21992335.778    -4291348.01849  -3331135.03147  21992334.843    21992337.264
  23280092.810     6618514.39149   5146229.47646  23280092.317    23280095.714
  20616610.772     2276410.60849   1773708.30447  20616610.048    20616613.968
  20308654.363    -5811794.17749  -4517607.71748  20308653.892    20308656.212
 04  7 20 17 14  0.0000000  0  7G22G 3G11G19G18G15G14
  21194786.252     2509095.93049   1922002.56447  21194785.985    21194787.064
  22568107.730     4546120.95749   3538763.54746  22568107.345    22568112.149
  24400491.009    -5578833.09849  -4049495.85345  24400490.542    24400495.125
  21992069.808    -4292745.69649  -3332224.14247  21992068.887    21992071.320
  23294799.364     6695797.71349   5206450.17946  23294798.866    23294802.210
  20626989.229     2330949.49149   1816206.11047  20626988.453    20626992.336
  20305240.756    -5829732.72549  -4531585.79448  20305240.305    20305242.601
 04  7 20 17 14 30.0000000  0  7G22G 3G11G19G18G15G14
  21203164.626     2553125.24449   1956311.08747  21203164.415    21203165.656
  22582162.179     4619977.78349   3596314.27046  22582161.815    22582166.633
  24381559.389    -5678319.43249  -4127017.55545  24381558.788    24381563.403
  21991915.575    -4293556.25149  -3332855.74847  21991914.694    21991917.090
  23309521.178     6773161.08249   5266733.27546  23309520.674    23309523.989
  20637452.066     2385932.00149   1859049.61547  20637451.310    20637455.172
  20301930.897    -5847126.24949  -4545139.17948  20301930.446    20301932.710
 04  7 20 17 15  0.0000000  0  7G22G 3G11G19G18G15G14
  21211578.886     2597341.97849   1990765.69247  21211578.700    21211579.734
  22596278.344     4694158.38549   3654117.29446  22596277.992    22596282.794
  24362643.810    -5777721.79449  -4204473.81945  24362643.053    24362647.875
  21991873.086    -4293779.81149  -3333029.96647  21991872.154    21991874.568
  23324258.212     6850604.33749   5327078.61645  23324257.633    23324260.923
  20647999.246     2441357.84049   1902238.55447  20647998.478    20648002.383
  20298724.760    -5863974.65249  -4558267.79748  20298724.296    20298726.555
 04  7 20 17 15 30.0000000  0  7G22G 3G11G19G18G15G14
  21220028.972     2641747.49849   2025367.38347  21220028.740    21220029.869
  22610456.014     4768662.26649   3712172.22046  22610455.657    22610460.485
  24343744.743    -5877036.83349  -4281862.09945  24343744.096    24343748.813
  21991942.566    -4293414.53949  -3332745.34547  21991941.666    21991944.072
  23339010.598     6928128.96549   5387487.39145  23339010.119    23339013.313
  20658631.088     2497228.57749   1945774.17847  20658630.368    20658634.261
  20295622.718    -5880275.98749  -4570970.12448  20295622.243    20295624.503
 04  7 20 17 16  0.0000000  0  7G22G 3G11G19G18G15G14
  21228514.504     2686339.45049   2060114.34747  21228514.365    21228515.455
  22624694.318     4843484.55149   3770475.25646  22624693.950    22624698.762
  24324862.340    -5976264.57249  -4359182.30245  24324861.639    24324866.324
  21992123.792    -4292462.42749  -3332003.45547  21992122.850    21992125.254
  23353778.124     7005732.77549   5447957.90545  23353777.686    23353780.753
  20669347.177     2553541.69649   1989654.51647  20669346.419    20669350.330
  20292624.324    -5896032.68249  -4583248.05848  20292623.859    20292626.108
 04  7 20 17 16 30.0000000  0  7G22G 3G11G19G18G15G14
  21237035.737     2731118.43049   2095007.04647  21237035.586    21237036.660
  22638992.936     4918624.15149   3829025.55846  22638992.612    22638997.413
  24305997.350    -6075401.23049  -4436431.52445  24305996.679    24306001.304
  21992416.852    -4290922.54549  -3330803.55347  21992415.907    21992418.280
  23368560.766     7083416.81149   5508490.91445  23368560.344    23368563.489
  20680147.604     2610298.02149   2033880.20547  20680146.832    20680150.708
  20289729.824    -5911243.34349  -4595100.51248  20289729.363    20289731.593
 04  7 20 17 17  0.0000000  0  7G22G 3G11G19G18G15G14
  21245592.181     2776083.12649   2130044.44447  21245592.032    21245593.133
  22653351.201     4994077.17149   3887820.07646  22653350.881    22653355.673
  24287149.552    -6174446.05949  -4513609.21745  24287148.956    24287153.685
  21992821.571    -4288796.00749  -3329146.52247  21992820.607    21992822.962
  23383358.475     7161179.31549   5569085.02645  23383357.988    23383361.322
  20691031.968     2667495.84249   2078449.91647  20691031.207    20691035.093
  20286939.027    -5925909.23449  -4606528.46548  20286938.555    20286940.786
 04  7 20 17 17 30.0000000  0  7G22G 3G11G19G18G15G14
  21254184.069     2821233.33249   2165226.41747  21254183.914    21254184.950
  22667768.721     5069841.50249   3946857.17746  22667768.371    22667773.176
  24268319.622    -6273396.63449  -4590713.46345  24268319.242    24268323.956
  21993337.962    -4286082.48149  -3327032.09647  21993337.020    21993339.334
  23398171.181     7239020.30849   5629740.27345  23398170.654    23398174.095
  20702000.300     2725135.07149   2123363.57047  20701999.554    20702003.483
  20284251.876    -5940030.23249  -4617531.83048  20284251.425    20284253.611
 04  7 20 17 18  0.0000000  0  7G22G 3G11G19G18G15G14
  21262811.308     2866569.50849   2200553.29747  21262811.132    21262812.165
  22682245.135     5145915.12049   4006135.27146  22682244.748    22682249.517
  24249508.410    -6372250.03749  -4667741.99245  24249508.104    24249512.527
  21993966.129    -4282781.50049  -3324459.91347  21993965.175    21993967.482
  23412999.077     7316940.47749   5690457.18945  23412998.498    23413001.994
  20713052.744     2783216.11749   2168621.50247  20713052.003    20713056.002
  20281668.585    -5953605.62049  -4628110.04548  20281668.113    20281670.288
 04  7 20 17 18 30.0000000  0  7G22G 3G11G19G18G15G14
  21271473.378     2912089.03949   2236023.04447  21271473.195    21271474.333
  22696779.435     5222293.42849   4065650.79546  22696779.087    22696783.840
  24230715.628    -6471006.13949  -4744694.68445  24230715.365    24230719.755
  21994705.614    -4278895.36949  -3321431.77047  21994704.693    21994707.023
  23427841.579     7394937.68549   5751234.13945  23427840.963    23427844.453
  20724188.794     2841736.60749   2214221.86447  20724188.103    20724192.105
  20279188.691    -5966637.67849  -4638264.88048  20279188.210    20279190.375
 04  7 20 17 19  0.0000000  0  7G22G 3G11G19G18G15G14
  21280170.580     2957792.71649   2271636.30247  21280170.374    21280171.314
  22711371.463     5298975.01749   4125402.64446  22711371.145    22711375.898
  24211941.970    -6569661.47749  -4821568.87545  24211941.862    24211946.121
  21995556.728    -4274423.01549  -3317946.83047  21995555.784    21995558.131
  23442698.750     7473012.79549   5812071.81946  23442698.217    23442701.810
  20735408.756     2900697.30349   2260165.25047  20735408.026    20735411.949
  20276812.368    -5979125.23449  -4647995.43048  20276811.885    20276814.052
 04  7 20 17 19 30.0000000  0  7G22G 3G11G19G18G15G14
  21288902.525     3003678.90349   2307391.75147  21288902.270    21288903.271
  22726020.472     5375955.72049   4185387.56346  22726020.124    22726024.896
  24193188.040    -6668215.03749  -4898363.76045  24193187.785    24193191.925
  21996518.995    -4269366.18549  -3314006.45147  21996518.067    21996520.457
  23457570.508     7551164.13149   5872968.89846  23457569.992    23457573.615
  20746711.954     2960095.97649   2306449.91747  20746711.231    20746715.093
  20274539.355    -5991069.96349  -4657302.99548  20274538.859    20274541.039
 04  7 20 17 20  0.0000000  0  7G22G 3G11G19G18G15G14
  21297669.044     3049747.71449   2343289.49947  21297668.840    21297669.908
  22740726.039     5453233.71849   4245604.13846  22740725.693    22740730.437
  24174453.708    -6766665.01149  -4975077.94245  24174453.345    24174457.538
  21997592.585    -4263724.40449  -3309610.27547  21997591.624    21997594.029
  23472456.936     7629391.95949   5933925.58846  23472456.436    23472460.000
  20758098.675     3019932.98449   2353076.12947  20758097.928    20758101.756
  20272369.694    -6002471.56549  -4666187.35448  20272369.221    20272371.394
 04  7 20 17 20 30.0000000  0  7G22G 3G11G19G18G15G14
  21306470.466     3095998.57649   2379329.12247  21306470.217    21306471.203
  22755487.646     5530806.26349   4306050.23546  22755487.274    22755492.042
  24155739.399    -6865009.04949  -5051709.56745  24155739.040    24155743.257
  21998777.362    -4257498.36149  -3304758.82947  21998776.424    21998778.789
  23487357.817     7707695.92049   5994941.60446  23487357.331    23487360.818
  20769568.518     3080207.48349   2400043.25247  20769567.757    20769571.643
  20270303.320    -6013330.46449  -4674648.82248  20270302.841    20270304.993
 04  7 20 17 21  0.0000000  0  7G22G 3G11G19G18G15G14
  21315306.174     3142430.92649   2415510.16747  21315305.951    21315306.903
  22770304.746     5608670.40049   4366723.53346  22770304.366    22770309.160
  24137045.514    -6963245.03449  -5128257.00045  24137045.032    24137049.506
  22000073.322    -4250688.28649  -3299452.29047  22000072.367    22000074.732
  23502273.070     7786075.69049   6056016.69446  23502272.535    23502276.062
  20781121.546     3140919.16949   2447351.02947  20781120.839    20781124.754
  20268340.210    -6023646.76149  -4682687.48748  20268339.720    20268341.867
 04  7 20 17 21 30.0000000  0  7G22G 3G11G19G18G15G14
  21324176.425     3189044.39549   2451832.34847  21324176.240    21324177.210
  22785176.820     5686823.43349   4427621.95746  22785176.381    22785181.220
  24118372.726    -7061370.81949  -5204718.56945  24118372.118    24118376.656
  22001480.290    -4243294.57249  -3293690.96647  22001479.343    22001481.736
  23517202.622     7864530.88749   6117150.56146  23517202.120    23517205.657
  20792757.622     3202067.00449   2494998.66247  20792756.904    20792760.851
  20266480.246    -6033420.97949  -4690303.74848  20266479.748    20266481.873
 04  7 20 17 22  0.0000000  0  7G22G 3G11G19G18G15G14
  21333081.113     3235838.36549   2488295.16147  21333080.895    21333081.924
  22800103.248     5765262.40349   4488743.18746  22800102.837    22800107.760
  24099721.150    -7159384.13549  -5281092.49345  24099720.641    24099725.171
  22002998.187    -4235318.00549  -3287475.47347  22002997.272    22002999.641
  23532146.440     7943061.11549   6178342.89346  23532145.974    23532149.523
  20804476.604     3263650.52249   2542985.81147  20804475.861    20804479.903
  20264723.338    -6042653.60449  -4697497.99448  20264722.854    20264724.958
 04  7 20 17 22 30.0000000  0  7G22G 3G11G19G18G15G14
  21342019.858     3282811.94049   2524897.94347  21342019.618    21342020.657
  22815083.499     5843984.06849   4550084.70746  22815083.097    22815088.038
  24081091.273    -7257283.80449  -5357377.87845  24081090.839    24081095.411
  22004626.775    -4226759.66649  -3280806.64847  22004625.855    22004628.259
  23547104.377     8021665.47649   6239592.98745  23547103.909    23547107.496
  20816278.114     3325668.31649   2591311.35147  20816277.401    20816281.560
  20263069.260    -6051345.75749  -4704271.08948  20263068.789    20263070.875
 04  7 20 17 23  0.0000000  0  7G22G 3G11G19G18G15G14
  21350992.676     3329964.93949   2561640.52147  21350992.525    21350993.561
  22830117.037     5922985.94449   4611644.56146  22830116.669    22830121.583
  24062483.744    -7355067.32549  -5433572.73445  24062483.230    24062487.684
  22006366.133    -4217619.48049  -3273684.43847  22006365.190    22006367.595
  23562076.498     8100344.35249   6300901.13945  23562075.995    23562079.714
  20828162.355     3388120.07449   2639975.02847  20828161.634    20828165.811
  20261518.060    -6059497.34649  -4710622.96948  20261517.563    20261519.679
 04  7 20 17 23 30.0000000  0  7G22G 3G11G19G18G15G14
  21359999.762     3377296.79149   2598522.48447  21359999.520    21360000.540
  22845203.442     6002265.09749   4673420.47946  22845203.105    22845208.006
  24043898.441    -7452733.02949  -5509675.81545  24043897.946    24043902.534
  22008216.023    -4207898.32349  -3266109.51747  22008215.080    22008217.482
  23577062.630     8179096.99749   6362266.77445  23577062.160    23577065.893
  20840129.055     3451005.02449   2688976.26747  20840128.309    20840132.430
  20260069.605    -6067108.93149  -4716554.06748  20260069.136    20260071.243
 04  7 20 17 24  0.0000000  0  7G22G 3G11G19G18G15G14
  21369040.408     3424805.92149   2635542.55547  21369040.221    21369041.283
  22860341.944     6081817.93349   4735409.66046  22860341.554    22860346.458
  24025336.089    -7550279.21749  -5585685.73445  24025335.486    24025340.061
  22010176.131    -4197597.67949  -3258083.04547  22010175.203    22010177.598
  23592062.657     8257922.03749   6423688.81645  23592062.155    23592065.804
  20852177.808     3514321.45549   2738313.72247  20852177.018    20852181.125
  20258723.587    -6074182.18349  -4722065.68548  20258723.128    20258725.243
 04  7 20 17 24 30.0000000  0  8G22G 3G11G19G18G15G14G25
  21378113.662     3472486.16549   2672695.99047  21378113.450    21378114.468
  22875530.851     6161635.64449   4797605.22446  22875530.440    22875535.326
  24006795.369    -7647710.13649  -5661605.83845  24006795.001    24006799.513
  22012245.395    -4186723.97049  -3249610.03547  22012244.430    22012246.805
  23607075.392     8336813.43449   6485162.57145  23607074.942    23607078.397
  20864307.313     3578062.83949   2787982.30647  20864306.581    20864310.726
  20257478.852    -6080723.42649  -4727162.75048  20257478.390    20257480.487
  24495728.335    -4875993.92349  -3767220.36045  24495727.900    24495734.903
 04  7 20 17 25  0.0000000  0  8G22G 3G11G19G18G15G14G25
  21387221.128     3520346.28349   2709989.58447  21387220.895    21387221.966
  22890771.455     6241725.20049   4860012.63246  22890771.019    22890775.878
  23988278.774    -7745014.37449  -5737427.22645  23988278.481    23988282.974
  22014425.285    -4175268.59549  -3240683.77947  22014424.311    22014426.714
  23622102.506     8415780.19649   6546695.02745  23622101.899    23622105.253
  20876519.381     3642237.56149   2837988.56247  20876518.677    20876522.771
  20256337.054    -6086723.64749  -4731838.24448  20256336.570    20256338.658
  24476645.778    -4976274.22249  -3845360.71545  24476645.291    24476652.034
 04  7 20 17 25 30.0000000  0  8G22G 3G11G19G18G15G14G25
  21396362.542     3568385.20349   2747422.48047  21396362.337    21396363.505
  22906063.069     6322082.83849   4922628.93246  22906062.583    22906067.433
  23969786.832    -7842190.13349  -5813148.51045  23969786.443    23969790.889
  22016715.697    -4163232.58549  -3231305.07847  22016714.726    22016717.132
  23637143.642     8494821.11049   6608285.30144  23637142.728    23637146.175
  20888813.659     3706844.19149   2888331.36147  20888812.956    20888817.024
  20255297.990    -6092183.90249  -4736092.98048  20255297.519    20255299.620
  24457558.474    -5076578.01849  -3923519.39545  24457558.215    24457564.712
 04  7 20 17 26  0.0000000  0  8G22G 3G11G19G18G15G14G25
  21405537.666     3616600.79849   2784993.07547  21405537.504    21405538.577
  22921404.752     6402704.05449   4985450.60246  22921404.352    22921409.210
  23951319.337    -7939237.06149  -5888769.39945  23951318.877    23951323.431
  22019116.086    -4150618.45849  -3221475.89947  22019115.134    22019117.534
  23652198.394     8573934.60849   6669932.13444  23652197.504    23652200.363
  20901189.644     3771880.24449   2939008.77647  20901188.918    20901193.028
  20254361.216    -6097106.63949  -4739928.87548  20254360.758    20254362.870
  24438466.901    -5176904.04749  -4001695.39945  24438466.632    24438473.155
 04  7 20 17 26 30.0000000  0  8G22G 3G11G19G18G15G14G25
  21414746.398     3664992.73149   2822701.06747  21414746.180    21414747.274
  22936796.035     6483585.83849   5048475.32646  22936795.637    22936800.513
  23932876.810    -8036153.36649  -5964288.49545  23932876.314    23932880.750
  22021626.373    -4137427.16349  -3211196.98547  22021625.396    22021627.843
  23667267.029     8653120.23248   6731635.12744  23667265.542    23667268.428
  20913647.221     3837344.84249   2990020.13547  20913646.454    20913650.546
  20253526.643    -6101492.48649  -4743346.41148  20253526.166    20253528.262
  24419371.638    -5277249.66749  -4079886.63145  24419371.391    24419377.626
 04  7 20 17 27  0.0000000  0  8G22G 3G11G19G18G15G14G25
  21423988.443     3713559.69749   2860545.44447  21423988.291    21423989.353
  22952236.295     6564724.89749   5111700.52146  22952235.917    22952240.741
  23914459.269    -8132937.18949  -6039704.37345  23914458.795    23914463.383
  22024246.177    -4123660.08349  -3200469.40547  22024245.202    22024247.682
  23682349.094     8732377.24248   6793393.78144  23682348.382    23682351.011
  20926185.962     3903236.66249   3041364.39647  20926185.223    20926189.373
  20252793.977    -6105342.74949  -4746346.61548  20252793.483    20252795.598
  24400273.188    -5377612.79849  -4158091.54245  24400272.743    24400279.136
 04  7 20 17 27 30.0000000  0  8G22G 3G11G19G18G15G14G25
  21433263.842     3762301.33649   2898525.92147  21433263.600    21433264.615
  22967724.941     6646118.11149   5175123.76646  22967724.585    22967729.378
  23896067.220    -8229586.75049  -6115015.62145  23896066.858    23896071.471
  22026975.445    -4109317.95749  -3189293.73847  22026974.443    22026976.928
  23697444.560     8811704.82948   6855207.41244  23697443.802    23697446.705
  20938805.880     3969554.87249   3093040.90447  20938805.177    20938809.320
  20252163.066    -6108658.08449  -4748929.98848  20252162.590    20252164.695
  24381171.632    -5477990.77749  -4236307.98145  24381171.197    24381177.734
 04  7 20 17 28  0.0000000  0  8G22G 3G11G19G18G15G14G25
  21442572.216     3811217.14249   2936642.13447  21442571.967    21442572.926
  22983261.521     6727762.96649   5238743.07446  22983261.189    22983265.971
  23877701.334    -8326099.57349  -6190220.35045  23877701.062    23877705.540
  22029813.918    -4094401.44749  -3177670.50147  22029812.948    22029815.428
  23712553.300     8891103.01448   6917076.09344                  23712552.133
  20951506.883     4036298.57849   3145048.97347  20951506.134    20951510.233
  20251633.874    -6111439.13049  -4751097.02948  20251633.386    20251635.496
  24362067.822    -5578380.82749  -4314533.79445  24362067.532    24362074.148
 04  7 20 17 28 30.0000000  0  8G22G 3G11G19G18G15G14G25
  21451913.595     3860306.65649   2974893.69447  21451913.399    21451914.294
  22998845.438     6809656.41749   5302556.11046  22998845.081    22998849.846
  23859361.823    -8422473.86449  -6265317.12945  23859361.587    23859365.983
  22032761.588    -4078911.41049  -3165600.35847  22032760.637    22032763.098
  23727675.390     8970571.48948   6978999.57344                  23727674.783
  20964288.651     4103466.94949   3197387.94747  20964287.895    20964291.957
  20251206.186    -6113686.50049  -4752848.22348  20251205.722    20251207.800
  24342962.201    -5678780.34149  -4392767.02745  24342961.749    24342968.721
 04  7 20 17 29  0.0000000  0  8G22G 3G11G19G18G15G14G25
  21461288.032     3909569.36749   3013280.19347  21461287.819    21461288.859
  23014476.082     6891795.56849   5366560.59546  23014475.690    23014480.455
  23841049.076    -8518707.80649  -6340304.53845  23841048.935    23841053.205
  22035818.127    -4062849.19149  -3153084.36047  22035817.181    22035819.625
                   9050109.63148   7040977.13344
  20977151.050     4171058.84049   3250056.92547  20977150.281    20977154.320
  20250879.911    -6115401.10249  -4754184.27448  20250879.448    20250881.513
  24323855.461    -5779186.81449  -4471005.71145  24323855.115    24323862.007
 04  7 20 17 29 30.0000000  0  8G22G 3G11G19G18G15G14G25
  21470695.206     3959004.31349   3051800.91347  21470694.918    21470695.995
  23030152.829     6974177.20049   5430754.02746  23030152.417    23030157.223
  23822763.469    -8614799.44449  -6415181.07545  23822763.225    23822767.414
  22038983.346    -4046215.88349  -3140123.35947  22038982.390    22038984.875
                   9129710.25958    480440.32543
  20990093.706     4239072.96349   3303054.91847  20990092.941    20990096.963
  20250654.846    -6116584.09649  -4755106.08448  20250654.344    20250656.431
  24304748.018    -5879597.75949  -4549247.86845  24304747.564    24304754.174
 04  7 20 17 30  0.0000000  0  8G22G 3G11G19G18G15G14G25
  21480134.742     4008610.37949   3090454.97547  21480134.582    21480135.602
  23045875.007     7056797.68749   5495133.58446  23045874.573    23045879.439
  23804505.060    -8710747.36949  -6489945.61745  23804504.775    23804509.115
  22042256.976    -4029012.93649  -3126718.48047  22042256.014    22042258.495
                   9209385.82658    542464.92543
  21003116.444     4307507.85349   3356380.78247  21003115.686    21003119.675
  20250530.609    -6117236.98549  -4755614.82348  20250530.130    20250532.194
  24285639.775    -5980011.18349  -4627491.91545  24285639.412    24285645.962
 04  7 20 17 30 30.0000000  0  8G22G 3G11G19G18G15G14G25
  21489607.408     4058388.34849   3129243.01447  21489607.155    21489607.955
  23061642.288     7139655.43549   5559698.00646  23061641.907    23061646.784
  23786274.885    -8806548.08349  -6564595.43545  23786274.495    23786278.814
  22045639.038    -4011240.08549  -3112869.52747  22045638.072    22045640.559
                   9289131.48557    604459.87843
  21016219.274     4376363.58649   3410034.57847  21016218.545    21016222.552
  20250507.426    -6117358.93049  -4755709.84448  20250506.926    20250508.979
  24266531.858    -6080422.93249  -4705734.68145  24266531.620    24266538.079
 04  7 20 17 31  0.0000000  0  7G22G 3G11G19G15G14G25
  21499111.714     4108334.08149   3168161.73547  21499111.544    21499112.553
  23077453.530     7222743.71649   5624442.07946  23077453.122    23077458.025
  23768072.373    -8902203.25749  -6639131.86745  23768071.837    23768076.195
  22049128.648    -3992902.29049  -3098580.34847  22049127.667    22049130.158
  21029401.309     4445635.55649   3464012.70847  21029400.559    21029404.602
  20250584.357    -6116954.85449  -4755394.97548  20250583.833    20250585.886
  24247424.119    -6180834.06149  -4783976.97945  24247423.918    24247430.322
 04  7 20 17 31 30.0000000  0  7G22G 3G11G19G15G14G25
  21508648.775     4158451.27049   3207214.06847  21508648.503    21508649.554
  23093308.891     7306063.99349   5689366.92146  23093308.555    23093313.438
  23749898.748    -8997706.62949  -6713550.01045  23749898.168    23749902.409
  22052726.348    -3973996.21149  -3083848.36147  22052725.386    22052727.894
  21042663.205     4515327.05449   3518317.73147  21042662.438    21042666.503
  20250761.963    -6116021.41349  -4754667.61748  20250761.440    20250763.489
  24228317.846    -6281237.81949  -4862213.51145  24228317.665    24228324.070
 04  7 20 17 32  0.0000000  0  7G22G 3G11G19G15G14G25
  21518218.284     4208739.69749   3246399.84447  21518218.137    21518219.115
  23109207.810     7389613.37249   5754470.27346  23109207.488    23109212.432
  23731754.398    -9093055.91949  -6787848.07745  23731753.789    23731758.007
  22056432.080    -3954522.65049  -3068674.18247  22056431.121    22056433.633
  21056004.648     4585437.02949   3572948.84747  21056003.882    21056007.979
  20251040.213    -6114559.05449  -4753528.11448  20251039.717    20251041.781
  24209213.568    -6381631.28749  -4940442.06145  24209213.270    24209219.607
 04  7 20 17 32 30.0000000  0  7G22G 3G11G19G15G14G25
  21527820.296     4259197.97949   3285717.98447  21527820.021    21527820.934
  23125149.605     7473388.04549   5819749.19146  23125149.292    23125154.275
  23713639.372    -9188250.10249  -6862025.27445  23713638.879    23713643.065
  22060245.317    -3934483.82549  -3053059.52847  22060244.351    22060246.879
  21069425.394     4655963.71249   3627904.68647  21069424.631    21069428.747
  20251418.781    -6112569.71049  -4751977.97448  20251418.265    20251420.314
  24190111.555    -6482012.80049  -5018661.28145  24190111.345    24190117.537
 04  7 20 17 33  0.0000000  0  7G22G 3G11G19G15G14G25
  21537454.443     4309826.06949   3325168.44347  21537454.271    21537455.115
  23141133.989     7557385.82149   5885201.94646  23141133.596    23141138.570
  23695554.524    -9283286.18349  -6936079.29245  23695554.109    23695558.271
  22064166.090    -3913880.15149  -3037004.74447  22064165.166    22064167.668
  21082925.342     4726906.57849   3683184.81247  21082924.615    21082928.800
  20251897.552    -6110053.70049  -4750017.44648  20251897.053    20251899.107
  24171012.465    -6582379.05349  -5096868.62245  24171012.226    24171018.257
 04  7 20 17 33 30.0000000  0  7G22G 3G11G19G15G14G25
  21547120.690     4360622.69449   3364750.19147  21547120.479    21547121.521
  23157160.035     7641602.63649   5950825.39246  23157159.632    23157164.536
  23677499.957    -9378163.23049  -7010009.38645  23677499.618    23677503.677
  22068193.994    -3892713.59749  -3020511.35047  22068193.048    22068195.542
  21096504.230     4798263.51049   3738787.58747  21096503.464    21096507.647
  20252476.231    -6107012.79849  -4747647.90848  20252475.703    20252477.791
  24151916.612    -6682727.80349  -5175062.32545  24151916.357    24151922.327
 04  7 20 17 34  0.0000000  0  7G22G 3G11G19G15G14G25
  21556819.056     4411587.52849   3404463.04447  21556818.855    21556819.835
  23173227.240     7726035.74849   6016617.37146  23173226.789    23173231.705
  23659476.324    -9472878.72549  -7083813.58745  23659475.915    23659479.962
  22072328.753    -3870985.40449  -3003580.31347  22072327.825    22072330.289
  21110161.661     4870033.49749   3794712.22347  21110160.850    21110164.999
  20253154.611    -6103447.84249  -4744870.01948  20253154.103    20253156.182
  24132824.465    -6783056.40749  -5253240.35345  24132824.243    24132830.258
 04  7 20 17 34 30.0000000  0  7G22G 3G11G19G15G14G25
  21566549.180     4462719.96449   3444306.49947  21566548.929    21566549.891
  23189334.862     7810681.78049   6082575.27246  23189334.448    23189339.424
  23641483.626    -9567431.13849  -7157490.72745  23641483.222    23641487.066
  22076570.163    -3848696.99949  -2986212.74647  22076569.219    22076571.668
  21123897.353     4942215.13049   3850957.62947  21123896.591    21123900.751
  20253932.449    -6099360.13949  -4741684.79748  20253931.975    20253934.020
  24113736.609    -6883362.50949  -5331400.79645  24113736.428    24113742.412
 04  7 20 17 35  0.0000000  0  7G22G 3G11G19G15G14G25
  21576311.290     4514020.31049   3484280.77447  21576311.051    21576312.133
  23205482.769     7895538.92249   6148697.65946  23205482.359    23205487.290
  23623522.543    -9661817.07449  -7231038.14945  23623522.126    23623525.962
  22080918.170    -3825848.39649  -2968408.66547  22080917.209    22080919.656
  21137711.440     5014808.65949   3907523.97447  21137710.677    21137714.870
  20254809.836    -6094749.67449  -4738092.22848  20254809.317    20254811.369
  24094653.670    -6983642.42349  -5409540.87145  24094653.608    24094659.575
 04  7 20 17 35 30.0000000  0  7G22G 3G11G19G15G14G25
  21586105.181     4565487.84449   3524385.33047  21586104.970    21586106.102
  23221670.160     7980604.03449   6214982.11146  23221669.713    23221674.667
  23605593.470    -9756034.98049  -7304454.63845  23605592.979    23605596.816
  22085372.415    -3802441.41749  -2950169.47947  22085371.436    22085373.869
  21151603.539     5087812.29149   3964409.88947  21151602.800    21151606.996
  20255786.406    -6089617.73249  -4734093.31248  20255785.901    20255787.954
  24075576.534    -7083893.57949  -5487658.54845  24075576.495    24075582.409
 04  7 20 17 36  0.0000000  0  7G22G 3G11G19G15G14G25
  21595930.819     4617121.71849   3564619.51047  21595930.599    21595931.685
  23237896.248     8065873.30449   6281425.62846  23237895.880    23237900.974
  23587696.616    -9850083.20449  -7377738.90545  23587696.158    23587699.969
  22089932.650    -3778477.90149  -2931496.63947  22089931.638    22089933.998
  21165573.437     5161224.50349   4021614.17947  21165572.689    21165576.902
  20256861.955    -6083965.86249  -4729689.26048  20256861.427    20256863.486
  24056505.092    -7184114.13849  -5565752.39645  24056504.998    24056510.904
 04  7 20 17 36 30.0000000  0  7G22G 3G11G19G15G14G25
  21605787.858     4668921.10949   3604982.65947  21605787.674    21605788.745
  23254160.759     8151343.70249   6348025.88846  23254160.380    23254165.523
  23569832.515    -9943959.65949  -7450889.32045  23569831.935    23569835.830
  22094598.419    -3753959.14849  -2912391.13747  22094597.418    22094599.748
  21179620.832     5235043.96649   4079135.80247  21179620.074    21179624.320
  20258036.175    -6077795.31849  -4724881.04248  20258035.644    20258037.716
  24037440.082    -7284301.33449  -5643820.24445  24037439.898    24037445.827
 04  7 20 17 37  0.0000000  0  7G22G 3G11G19G15G14G25
  21615676.538     4720886.10049   3645474.85947  21615676.309    21615677.367
  23270463.127     8237012.94549   6414781.08046  23270462.704    23270467.841
  23552001.521   -10037661.43249  -7523903.61945  23552001.029    23552004.987
  22099369.653    -3728886.23349  -2892853.82247  22099368.626    22099370.966
  21193745.655     5309269.91449   4136974.16547  21193744.886    21193749.101
  20259308.958    -6071106.70149  -4719669.13348  20259308.433    20259310.482
  24018381.925    -7384452.31149  -5721859.84145  24018381.791    24018387.633
 04  7 20 17 37 30.0000000  0  7G22G 3G11G19G15G14G25
  21625596.437     4773016.22649   3686095.73147  21625596.251    21625597.352
  23286802.670     8322877.95749   6481688.82746  23286802.262    23286807.457
  23534204.303   -10131186.97549  -7596780.60645  23534203.730    23534207.580
  22104246.061    -3703260.21249  -2872885.52047  22104245.050    22104247.493
  21207947.526     5383901.06249   4195128.26847  21207946.784    21207950.935
  20260680.165    -6063901.12449  -4714054.40248  20260679.623    20260681.674
  23999331.256    -7484564.20249  -5799868.99545  23999331.179    23999337.042
 04  7 20 17 38  0.0000000  0  7G22G 3G11G19G15G14G25
  21635547.829     4825310.56049   3726844.54547  21635547.702    21635548.828
  23303178.830     8408935.29549   6548746.43446  23303178.495    23303183.634
  23516440.806   -10224535.01249  -7669519.28145  23516440.217    23516443.969
  22109227.324    -3677083.12549  -2852487.81047  22109226.371    22109228.876
  21222226.275     5458935.82649   4253596.87847  21222225.499    21222229.612
  20262149.391    -6056180.16349  -4708038.06348  20262148.866    20262150.922
  23980288.425    -7584634.64049  -5877845.83545  23980288.262    23980294.164
 04  7 20 17 38 30.0000000  0  7G22G 3G11G19G15G14G25
  21645530.641     4877769.79549   3767721.85147  21645530.411    21645531.477
  23319591.318     8495183.23849   6615952.55946  23319590.943    23319596.137
  23498711.708   -10317701.54649  -7742116.50845  23498711.171    23498714.853
  22114313.498    -3650355.25349  -2831660.92747  22114312.520    22114315.085
  21236581.744     5534373.99049   4312379.82747  21236580.971    21236585.113
  20263716.745    -6047943.63449  -4701619.99248  20263716.221    20263718.277
  23961254.299    -7684659.34449  -5955787.06145  23961254.219    23961260.014
 04  7 20 17 39  0.0000000  0  7G22G 3G11G19G15G14G25
  21655544.366     4930392.38849   3808726.47847  21655544.129    21655545.044
  23336039.225     8581617.52349   6683303.89146  23336038.826    23336044.018
  23481017.386   -10410685.52149  -7814571.49545  23481016.880    23481020.524
  22119503.990    -3623078.99549  -2810406.73147  22119503.027    22119505.592
  21251013.438     5610213.19049   4371475.27147  21251012.680    21251016.857
  20265381.750    -6039193.94649  -4694802.05248  20265381.248    20265383.321
  23942229.118    -7784636.96249  -6033691.59545  23942229.070    23942234.730
 04  7 20 17 39 30.0000000  0  7G22G 3G11G19G15G14G25
  21665589.312     4983179.25649   3849859.06847  21665589.105    21665590.199
  23352522.346     8668236.32749   6750799.00046  23352521.905    23352527.045
  23463358.420   -10503483.69849  -7886881.69345  23463357.905    23463361.554
  22124798.852    -3595254.69449  -2788725.48547  22124797.891    22124800.393
  21265521.548     5686453.56849   4430883.32047  21265520.796    21265524.978
  20267144.430    -6029930.94349  -4687584.12848  20267143.918    20267145.993
  23923213.656    -7884563.68349  -6111556.46345  23923213.574    23923219.200
 04  7 20 17 40  0.0000000  0  7G22G 3G11G19G15G14G25
  21675665.460     5036129.41149   3891118.90447  21675665.279    21675666.402
  23369039.858     8755036.30249   6818435.27246  23369039.461    23369044.630
  23445735.094   -10596094.44649  -7959045.85245  23445734.655    23445738.340
  22130197.622    -3566884.18349  -2766618.62647  22130196.634    22130199.103
  21280105.713     5763093.57149   4490602.75947  21280104.940    21280109.140
  20269004.527    -6020156.16949  -4679967.42148  20269004.001    20269006.094
  23904208.348    -7984437.04549  -6189379.74645  23904208.082    23904213.863
 04  7 20 17 40 30.0000000  0  7G22G 3G11G19G15G14G25
  21685772.534     5089241.52249   3932504.97447  21685772.282    21685773.226
  23385591.130     8842013.56749   6886209.70746  23385590.772    23385595.923
  23428147.797   -10688516.56649  -8031063.02846  23428147.351    23428150.884
  22135699.844    -3537970.11349  -2744088.20347  22135698.844    22135701.296
  21294765.461     5840130.91749   4550631.82747  21294764.701    21294768.918
  20270961.523    -6009871.96649  -4671953.75848  20270961.036    20270963.138
  23885213.241    -8084255.31849  -6267160.12245  23885213.031    23885218.862
 04  7 20 17 41  0.0000000  0  7G22G 3G11G19G15G14G25
  21695910.293     5142516.24549   3974017.73547  21695910.044    21695910.972
  23402175.786     8929166.18649   6954120.77346  23402175.401    23402180.644
  23410596.963   -10780746.81949  -8102930.68046  23410596.492    23410600.035
  22141305.472    -3508512.52849  -2721134.27347  22141304.454    22141306.923
  21309500.708     5917565.08449   4610970.10547  21309499.940    21309504.187
  20273015.501    -5999078.29349  -4663543.10448  20273015.014    20273017.113
  23866229.636    -8184014.80949  -6344894.69945  23866229.473    23866235.075
 04  7 20 17 41 30.0000000  0  7G22G 3G11G19G15G14G25
  21706078.937     5195953.30549   4015656.99047  21706078.735    21706079.729
  23418793.303     9016491.57349   7022166.47346  23418792.907    23418798.248
  23393082.820   -10872782.77149  -8174646.94346  23393082.526    23393086.083
  22147014.127    -3478513.21649  -2697758.20847  22147013.152    22147015.653
  21324311.275     5995394.99749   4671616.76347  21324310.527    21324314.844
  20275166.187    -5987776.46649  -4654736.48348  20275165.695    20275167.751
  23847257.893    -8283712.59449  -6422581.21045  23847257.707    23847262.988
 04  7 20 17 42  0.0000000  0  7G22G 3G11G19G15G14G25
  21716278.550     5249552.32749   4057422.43947  21716278.363    21716279.349
  23435443.058     9103986.79349   7090344.49546  23435442.700    23435448.152
  23375606.174   -10964622.30949  -8246210.15145  23375605.895    23375609.463
  22152825.703    -3447973.41949  -2673960.99347  22152824.709    22152827.187
  21339196.948     6073619.62149   4732570.96747  21339196.202    21339200.507
  20277413.395    -5975967.40849  -4645534.62948  20277412.899    20277414.957
  23828298.429    -8383345.82549  -6500217.40345  23828298.162    23828303.390
 04  7 20 17 42 30.0000000  0  7G22G 3G11G19G15G14G25
  21726508.815     5303311.97749   4099313.07147  21726508.591    21726509.488
  23452124.322     9191647.68049   7158651.62246  23452124.092    23452129.612
  23358167.342   -11056264.19049  -8317619.35145  23358166.958    23358170.484
  22158739.681    -3416895.80949  -2649744.70547  22158738.674    22158741.144
  21354157.307     6152236.69949   4793830.99747  21354156.545    21354160.813
  20279756.693    -5963653.35149  -4635939.25848  20279756.187    20279758.268
  23809351.449    -8482912.68249  -6577801.86045  23809351.100    23809356.404
 04  7 20 17 43  0.0000000  0  7G22G 3G11G19G15G14G25
  21736769.492     5357232.47149   4141329.02947  21736769.278    21736770.227
  23468836.864     9279472.00049   7227086.07746  23468836.532    23468842.111
  23340766.506   -11147705.55149  -8388872.29745  23340766.153    23340769.688
  22164755.733    -3385281.44949  -2625110.16047  22164754.690    22164757.163
  21369192.134     6231245.28049   4855396.09147  21369191.396    21369195.673
  20282196.002    -5950834.89149  -4625950.84848  20282195.468    20282197.552
  23790417.631    -8582409.88749  -6655332.04445  23790417.257    23790422.668
 04  7 20 17 43 30.0000000  0  7G22G 3G11G19G15G14G25
  21747060.850     5411314.25749   4183470.66547  21747060.643    21747061.601
  23485580.135     9367457.89549   7295646.44246  23485579.811    23485585.323
  23323404.653   -11238943.33949  -8459966.61645  23323404.164    23323407.612
  22170873.798    -3353130.79349  -2600057.72847  22170872.774    22170875.257
  21384301.486     6310645.08849   4917266.03947  21384300.707    21384304.998
  20284731.155    -5937512.50449  -4615569.77148  20284730.643    20284732.709
  23771497.682    -8681833.51249  -6732804.92445  23771497.525    23771502.858
 04  7 20 17 44  0.0000000  0  7G22G 3G11G19G15G14G25
  21757382.649     5465555.13449   4225736.28947  21757382.428    21757383.312
  23502353.162     9455600.42849   7364328.86846  23502352.829    23502358.355
  23306081.384   -11329977.11449  -8530901.96145  23306080.956    23306084.333
  22177093.314    -3320447.28849  -2574590.09347  22177092.288    22177094.724
  21399484.721     6390433.09349   4979438.47347  21399483.935    21399488.228
  20287361.677    -5923689.20449  -4604798.37148  20287361.142    20287363.185
  23752592.160    -8781182.79349  -6810219.85445  23752591.884    23752597.324
 04  7 20 17 44 30.0000000  0  7G22G 3G11G19G15G14G25
  21767734.673     5519955.61649   4268126.23047  21767734.431    21767735.523
  23519155.568     9543897.47549   7433131.68946  23519155.228    23519160.770
  23288797.484   -11420803.90049  -8601676.01045  23288797.141    23288800.516
  22183414.033    -3287231.84249  -2548707.95047  22183413.033    22183415.486
  21414741.650     6470608.56949   5041912.83847  21414740.873    21414745.158
  20290087.357    -5909365.55549  -4593637.09148  20290086.835    20290088.873
  23733701.318    -8880453.80449  -6887573.78545  23733701.151    23733706.556
 04  7 20 17 45  0.0000000  0  7G22G 3G11G19G15G14G25
  21778117.149     5574515.63949   4310640.51447  21778116.894    21778117.942
  23535986.822     9632346.45049   7502052.90246  23535986.535    23535992.170
  23271553.483   -11511421.21149  -8672286.85746  23271553.169    23271556.523
  22189835.741    -3253485.87149  -2522412.41147  22189834.727    22189837.158
  21430072.054     6551170.26549   5104688.15347  21430071.270    21430075.576
  20292908.133    -5894542.52149  -4582086.67148  20292907.592    20292909.621
  23714826.046    -8979643.72849  -6964864.54345  23714825.898    23714831.283
 04  7 20 17 45 30.0000000  0  7G22G 3G11G19G15G14G25
  21788529.947     5629234.87949   4353278.87747  21788529.725    21788530.673
  23552846.602     9720944.45549   7571090.22746  23552846.234    23552851.831
  23254349.695   -11601826.68749  -8742732.61846  23254349.499    23254352.957
  22196358.071    -3219210.96149  -2495704.71247  22196357.052    22196359.502
  21445475.732     6632117.11649   5167763.58147  21445474.967    21445479.308
  20295823.645    -5879221.26649  -4570148.03648  20295823.134    20295825.166
  23695966.794    -9078749.56049  -7042089.76445  23695966.684    23695971.966
 04  7 20 17 46  0.0000000  0  7G22G 3G11G19G15G14G25
  21798972.897     5684112.58949   4396040.71647  21798972.616    21798973.614
  23569734.105     9809688.17149   7640241.10946  23569733.713    23569739.239
  23237186.650   -11692018.45149  -8813011.86746  23237186.550    23237189.960
  22202980.579    -3184409.38849  -2468586.63347  22202979.577    22202982.049
  21460952.428     6713447.36649   5231137.75347  21460951.652    21460956.018
  20298833.618    -5863403.64049  -4557822.61848  20298833.120    20298835.161
  23677123.995    -9177769.06449  -7119247.72645  23677123.809    23677129.117
 04  7 20 17 46 30.0000000  0  7G22G 3G11G19G15G14G25
  21809445.743     5739148.34749   4438925.69447  21809445.495    21809446.604
  23586648.628     9898574.41749   7709503.03646  23586648.253    23586653.809
  23220064.812   -11781994.48949  -8883123.01046  23220064.584    23220067.987
  22209702.990    -3149082.87949  -2441059.51447  22209701.983    22209704.492
  21476501.732     6795159.46849   5294809.47347  21476500.938    21476505.308
  20301937.870    -5847090.95549  -4545111.43648  20301937.331    20301939.352
  23658298.072    -9276699.48749  -7196336.28445  23658297.912    23658303.204
 04  7 20 17 47  0.0000000  0  7G22G 3G11G19G15G14G25
  21819948.897     5794342.24749   4481933.89847  21819948.614    21819949.723
  23603589.894     9987600.83449   7778874.19346  23603589.465    23603595.109
  23202984.494   -11871752.02849  -8953063.88046  23202984.258    23202987.679
  22216525.110    -3113232.58749  -2413124.24847  22216524.090    22216526.631
  21492123.559     6877252.53149   5358778.04647  21492122.753    21492127.116
  20305136.109    -5830284.13149  -4532015.21748  20305135.567    20305137.583
  23639489.726    -9375537.39949  -7273352.73145  23639489.522    23639494.945
 04  7 20 17 47 30.0000000  0  7G22G 3G11G19G15G14G25
  21830482.090     5849693.81149   4525064.97647  21830481.802    21830482.699
  23620557.220    10076764.38349   7848352.20945  23620556.809    23620562.408
  23185946.147   -11961289.16349  -9022833.01546  23185945.934    23185949.288
  22223446.518    -3076860.61849  -2384782.47947  22223445.499    22223448.021
  21507817.481     6959724.87749   5423042.17747  21507816.698    21507821.094
  20308428.140    -5812984.51649  -4518534.99648  20308427.598    20308429.613
  23620699.465    -9474280.53149  -7350295.35645  23620699.270    23620704.652
 04  7 20 17 48  0.0000000  0  7G22G 3G11G19G15G14G25
  21841044.961     5905202.23349   4568318.29447  21841044.709    21841045.483
  23637550.014    10166061.45249   7917934.26745  23637549.625    23637555.112
  23168950.143   -12050603.99749  -9092428.94246  23168949.920    23168953.155
  22230466.763    -3039969.17649  -2356035.93247  22230465.759    22230468.252
  21523583.265     7042574.57249   5487600.33147  21523582.524    21523586.910
  20311813.488    -5795194.28749  -4504672.48148  20311812.955    20311814.985
  23601927.761    -9572926.37349  -7427162.17945  23601927.486    23601932.867
 04  7 20 17 48 30.0000000  0  7G22G 3G11G19G15G14G25
  21851637.713     5960868.05949   4611694.24147  21851637.526    21851638.410
  23654567.830    10255490.19149   7987618.91245  23654567.423    23654572.875
  23151997.139   -12139693.36749  -9161849.17646  23151996.807    23151999.994
  22237585.681    -3002559.10449  -2326885.26147  22237584.660    22237587.223
  21539420.874     7125801.10549   5552452.13247  21539420.070    21539424.464
  20315292.140    -5776913.88949  -4490428.02048  20315291.616    20315293.638
  23583175.242    -9671471.27049  -7503950.33645  23583174.968    23583180.245
 04  7 20 17 49  0.0000000  0  7G22G 3G11G19G15G14G25
  21862260.350     6016690.24349   4655192.00347  21862260.122    21862261.197
  23671609.782    10345046.78149   8057403.20245  23671609.426    23671615.022
  23135087.190   -12228555.58449  -9231092.40446  23135086.893    23135090.015
  22244802.757    -2964633.12349  -2297332.57647  22244801.754    22244804.359
  21555329.690     7209402.38149   5617595.93747  21555328.926    21555333.301
  20318863.631    -5758145.43249  -4475803.25548  20318863.114    20318865.146
  23564442.442    -9769913.17149  -7580658.24045  23564442.106    23564447.274
 04  7 20 17 49 30.0000000  0  7G22G 3G11G19G15G14G25
  21872912.814     6072669.17349   4698811.91747  21872912.607    21872913.736
  23688675.854    10434729.31649   8127285.64345  23688675.512    23688681.049
  23118220.997   -12317187.91449  -9300156.50246  23118220.639    23118223.796
  22252117.855    -2926192.18649  -2267378.63347  22252116.830    22252119.461
  21571309.676     7293377.53149   5683031.07347  21571308.914    21571313.301
  20322527.913    -5738889.51149  -4460798.63648  20322527.387    20322529.482
  23545729.896    -9868248.29149  -7657282.92045  23545729.501    23545734.585
 04  7 20 17 50  0.0000000  0  7G22G 3G11G19G15G14G25
  21883594.856     6128803.58049   4742552.99147  21883594.652    21883595.764
  23705765.191    10524533.87549   8197263.13045  23705764.791    23705770.380
  23101398.815   -12405588.70049  -9369040.18846  23101398.475    23101401.633
  22259530.380    -2887239.24349  -2237025.72547  22259529.358    22259531.975
  21587360.382     7377724.32549   5748755.79047  21587359.622    21587363.991
  20326284.517    -5719148.59149  -4445416.10748  20326283.977    20326286.027
  23527037.987    -9966474.95749  -7733823.10245  23527037.501    23527042.681
 04  7 20 17 50 30.0000000  0  7G22G 3G11G19G15G14G25
  21894306.568     6185094.17249   4786415.78447  21894306.357    21894307.427
  23722877.380    10614458.43849   8267334.13945  23722876.984    23722882.420
  23084621.253   -12493755.33949  -9437741.41646  23084620.919    23084624.106
  22267040.201    -2847775.09949  -2206274.47547  22267039.150    22267041.769
  21603481.627     7462442.02949   5814769.54147  21603480.852    21603485.283
  20330133.304    -5698922.98849  -4429655.89548  20330132.762    20330134.819
  23508367.321   -10064589.25249  -7810275.72345  23508366.857    23508372.043
 04  7 20 17 51  0.0000000  0  7G22G 3G11G19G15G14G25
  21905047.922     6241540.44849   4830399.87147  21905047.711    21905048.884
  23740011.711    10704499.78149   8337496.15145  23740011.352    23740016.826
  23067888.663   -12581685.63949  -9506258.49846  23067888.293    23067891.436
  22274646.859    -2807801.91849  -2175126.57047  22274645.823    22274648.422
  21619673.189     7547529.13649   5881071.12947  21619672.432    21619676.870
  20334073.980    -5678214.61349  -4413519.49948  20334073.474    20334075.507
  23489718.483   -10162588.60749  -7886638.79045  23489718.186    23489723.396
 04  7 20 17 51 30.0000000  0  7G22G 3G11G19G15G14G25
  21915818.843     6298141.34549   4874504.44647  21915818.604    21915819.722
  23757167.641    10794654.44649   8407746.47245  23757167.295    23757172.796
  23051201.406   -12669377.66449  -9574589.89846  23051201.026    23051204.201
  22282349.846    -2767322.26949  -2143584.02147  22282348.831    22282351.465
  21635934.765     7632983.48849   5947658.89047  21635933.974    21635938.367
  20338106.175    -5657025.38049  -4397008.40648  20338105.662    20338107.699
  23471092.167   -10260470.54849  -7962910.35445  23471091.881    23471097.009
 04  7 20 17 52  0.0000000  0  7G22G 3G11G19G15G14G25
  21926619.189     6354897.03349   4918729.64247  21926618.898    21926620.043
  23774344.778    10884920.00449   8478083.18745  23774344.364    23774349.932
  23034559.965   -12756828.63549  -9642733.47046  23034559.626    23034562.783
  22290148.991    -2726337.55449  -2111647.92447  22290147.992    22290150.620
  21652265.951     7718804.14849   6014532.08147  21652265.139    21652269.532
  20342229.644    -5635356.42449  -4380123.50148  20342229.098    20342231.164
  23452488.657   -10358232.12249  -8039088.14445  23452488.410    23452493.522
 04  7 20 17 52 30.0000000  0  7G22G 3G11G19G15G14G25
  21937448.668     6411806.88149   4963074.94147  21937448.401    21937449.617
  23791542.216    10975293.23449   8548503.80345  23791541.798    23791547.453
  23017964.788   -12844036.83649  -9710687.86746  23017964.415    23017967.556
  22298043.815    -2684850.21449  -2079320.16547  22298042.806    22298045.454
  21668666.473     7804989.22349   6081689.23447  21668665.685    21668670.093
  20346444.076    -5613209.46949  -4362866.13648  20346443.550    20346445.601
  23433908.627   -10455870.86249  -8115170.21045  23433908.273    23433913.535
 04  7 20 17 53  0.0000000  0  7G22G 3G11G19G15G14G25
  21948307.860     6468872.02049   5007541.25547  21948307.613    21948308.759
  23808759.880    11065772.67549   8619007.18245  23808759.429    23808765.305
  23001416.426   -12930998.71849  -9778450.32346  23001416.072    23001419.223
  22306034.188    -2642860.91649  -2046601.26647  22306033.145    22306035.809
  21685136.268     7891538.30249   6149130.02147  21685135.463    21685139.921
  20350749.391    -5590584.91749  -4345236.61548  20350748.880    20350750.927
  23415352.674   -10553382.84249  -8191153.51046  23415352.389    23415357.542
 04  7 20 17 53 30.0000000  0  7G22G 3G11G19G15G14G25
  21959196.269     6526090.47949   5052127.05447  21959196.024    21959197.075
  23825996.874    11156353.56449   8689589.61445  23825996.426    23826002.314
  22984915.207   -13017713.22649  -9846020.01346  22984914.784    22984917.936
  22314119.416    -2600373.18749  -2013493.97847  22314118.357    22314120.976
  21701674.725     7978448.46949   6216852.17247  21701673.954    21701678.435
  20355145.003    -5567485.68949  -4327237.21448  20355144.477    20355146.556
  23396821.196   -10650766.56249  -8267036.87845  23396820.918    23396825.954
 04  7 20 17 54  0.0000000  0  7G22G 3G11G19G15G14G25
  21970113.647     6583461.23649   5096831.52347  21970113.387    21970114.426
  23843252.502    11247032.20849   8760248.21145  23843252.099    23843258.048
  22968461.258   -13104179.18249  -9913396.02846  22968460.816    22968463.944
  22322298.898    -2557389.89449  -1980000.54547  22322297.855    22322300.505
  21718281.428     8065717.29549   6284853.79247  21718280.667    21718285.192
  20359630.497    -5543914.25549  -4308869.86548  20359629.982    20359632.072
  23378314.545   -10748019.90549  -8342818.65045  23378314.180    23378319.122
 04  7 20 17 54 30.0000000  0  7G22G 3G11G19G15G14G25
  21981060.256     6640986.14549   5141656.10147  21981059.989    21981061.013
  23860526.735    11337807.97249   8830982.48545  23860526.321    23860532.270
  22952055.320   -13190392.35049  -9980575.07546  22952054.973    22952058.076
  22330572.687    -2513911.08549  -1946120.98947  22330571.617    22330574.298
  21734956.488     8153345.37249   6353135.36247  21734955.703    21734960.311
  20364205.956    -5519870.13249  -4290134.18248  20364205.464    20364207.545
  23359833.689   -10845137.77549  -8418494.85245  23359833.224    23359837.991
 04  7 20 17 55  0.0000000  0  7G22G 3G11G19G15G14G25
  21992036.030     6698664.78349   5186600.45047  21992035.840    21992036.904
  23877818.684    11428677.71449   8901789.99645  23877818.310    23877824.290
  22935697.992   -13276350.44049 -10047555.35146  22935697.657    22935700.749
  22338940.386    -2469938.71449  -1911856.84447  22338939.304    22338941.943
  21751699.547     8241330.89449   6421695.45147  21751698.802    21751703.402
  20368871.133    -5495354.52949  -4271031.11548  20368870.584    20368872.699
  23341379.026   -10942117.49449  -8494063.40445  23341378.610    23341383.275
 04  7 20 17 55 30.0000000  0  7G22G 3G11G19G15G14G25
  22003041.050     6756495.73449   5231663.51947  22003040.831    22003041.743
  23895127.829    11519637.50749   8972667.66545  23895127.457    23895133.428
  22919389.464   -13362052.14449 -10114335.84746  22919389.167    22919392.218
  22347401.412    -2425475.90949  -1877210.54447  22347400.327    22347402.976
  21768510.300     8329671.27549   6490532.05747  21768509.534    21768514.098
  20373625.445    -5470370.40649  -4251562.97348  20373624.913    20373627.038
  23322950.896   -11038957.41549  -8569523.01645  23322950.538    23322955.168
 04  7 20 17 56  0.0000000  0  7G22G 3G11G19G15G14G25
  22014074.980     6814478.76849   5276845.10547  22014074.683    22014075.507
  23912453.540    11610684.63649   9043613.39645  23912453.223    23912459.217
  22903130.161   -13447495.18949 -10180914.79346  22903129.873    22903132.927
  22355955.299    -2380525.15449  -1842184.02247  22355954.245    22355956.845
  21785388.139     8418364.80949   6559643.84947  21785387.400    21785391.965
  20378468.598    -5444919.39449  -4231731.02048  20378468.090    20378470.222
  23304549.847   -11135654.84149  -8644871.59245  23304549.546    23304554.293
 04  7 20 17 56 30.0000000  0  7G22G 3G11G19G15G14G25
  22025137.774     6872614.81249   5322145.88847  22025137.495    22025138.494
  23929795.553    11701817.21549   9114625.70045  23929795.197    23929801.177
  22886920.771   -13532676.21249 -10247289.56846  22886920.394    22886923.430
  22364601.940    -2335086.90349  -1806777.62647  22364600.909    22364603.510
  21802333.168     8507410.96849   6629030.40647  21802332.419    21802336.921
  20383400.519    -5419001.99349  -4211535.64448  20383399.986    20383402.132
  23286176.870   -11232205.46749  -8720105.76546  23286176.506    23286181.335
 04  7 20 17 57  0.0000000  0  7G22G 3G11G19G15G14G25
  22036229.444     6930902.26349   5367564.62847  22036229.216    22036230.352
  23947153.049    11793031.15649   9185701.41845  23947152.741    23947158.582
  22870761.414   -13617594.41449 -10313459.54346  22870760.991    22870763.996
  22373340.586    -2289164.98549  -1770994.35347  22373339.549    22373342.172
  21819344.799     8596807.22049   6698689.76447  21819344.012    21819348.515
  20388420.626    -5392621.11649  -4190979.12448  20388420.110    20388422.251
  23267831.868   -11328608.28249  -8795224.79246  23267831.615    23267836.464
 04  7 20 17 57 30.0000000  0  7G22G 3G11G19G15G14G25
  22047350.131     6989341.48149   5413101.63847  22047349.897    22047351.080
  23964525.621    11884324.35649   9256838.90045  23964525.394    23964531.047
  22854652.569   -13702246.36149 -10379422.06146  22854652.224    22854655.154
  22382171.069    -2242760.43749  -1734835.00447  22382170.046    22382172.758
  21836422.857     8686552.59449   6768621.16747  21836422.060    21836426.582
  20393528.875    -5365777.33149  -4170061.89348  20393528.354    20393530.468
  23249515.862   -11424859.26149  -8870225.48446  23249515.625    23249520.516
 04  7 20 17 58  0.0000000  0  7G22G 3G11G19G15G14G25
  22058499.763     7047932.15549   5458756.72447  22058499.459    22058500.403
  23981912.664    11975693.64949   9328035.68745  23981912.477    23981918.085
  22838594.740   -13786630.34249 -10445175.75946  22838594.421    22838597.406
  22391092.757    -2195875.90149  -1698301.65247  22391091.820    22391094.630
  21853566.864     8776645.00649   6838822.97547  21853566.081    21853570.637
  20398724.835    -5338472.49349  -4148785.40148  20398724.297    20398726.414
  23231229.172   -11520956.14549  -8945106.11846  23231228.905    23231233.793
 04  7 20 17 58 30.0000000  0  7G22G 3G11G19G15G14G25
  22069677.966     7106673.81249   5504529.44447  22069677.680    22069678.465
  23999313.767    12067136.06349   9399289.43545  23999313.521    23999319.170
  22822588.334   -13870744.03549 -10510718.85446  22822588.071    22822591.043
  22400105.600    -2148513.81149  -1661396.16547  22400104.620    22400107.401
  21870776.592     8867082.48949   6909293.67346  21870775.827    21870780.408
  20404008.103    -5310708.82449  -4127151.37648  20404007.560    20404009.692
  23212972.378   -11616895.95449  -9019864.33146  23212972.084    23212977.028
 04  7 20 17 59  0.0000000  0  7G22G 3G11G19G15G14G25
  22080884.761     7165566.99649   5550420.19247  22080884.502    22080885.571
  24016728.286    12158649.49349   9470598.52945  24016727.935    24016733.650
  22806634.044   -13954584.27749 -10576048.87246  22806633.766    22806636.747
  22409208.940    -2100675.53349  -1624119.63347  22409207.958    22409210.757
  21888051.841     8957864.32449   6980032.69646  21888051.048    21888055.675
  20409378.593    -5282486.78949  -4105160.18648  20409378.062    20409380.176
  23194746.239   -11712675.08849  -9094497.35646  23194745.911    23194750.818
 04  7 20 17 59 30.0000000  0  7G22G 3G11G19G15G14G25
  22092120.273     7224610.48449   5596428.05947  22092120.043    22092121.260
  24034155.343    12250229.85849   9541959.76445  24034155.101    24034160.953
  22790732.081   -14038149.94449 -10641164.93646  22790731.775    22790734.674
  22418402.308    -2052364.21249  -1586474.49647  22418401.353    22418404.105
  21905392.044     9048987.83849   7051037.95846  21905391.283    21905395.963
  20414835.706    -5253809.13749  -4082813.97148  20414835.184    20414837.332
  23176550.819   -11808291.95449  -9169003.92746  23176550.578    23176555.451
 04  7 20 18  0  0.0000000  0  7G22G 3G11G19G15G14G25
  22103384.726     7283804.65349   5642553.37947  22103384.435    22103385.550
  24051595.018    12341875.27249   9613371.69845  24051594.647    24051600.586
  22774882.889   -14121437.88749 -10706064.59246  22774882.567    22774885.463
  22427685.467    -2003581.47149  -1548462.01447  22427684.467    22427687.210
  21922797.207     9140452.36049   7122308.95746  21922796.434    21922801.133
  20420379.491    -5224676.66949  -4060113.35048  20420378.926    20420381.083
  23158387.039   -11903742.66649  -9243381.02246  23158386.832    23158391.691
 04  7 20 18  0 30.0000000  0  7G22G 3G11G19G15G14G25
  22114677.508     7343148.08449   5688794.98347  22114677.218    22114678.404
  24069046.189    12433581.69449   9684831.16245  24069045.846    24069051.851
  22759086.703   -14204447.18949 -10770747.12646  22759086.382    22759089.191
  22437057.614    -1954330.87449  -1510084.96547  22437056.629    22437059.357
  21940266.701     9232254.94249   7193843.37246  21940265.960    21940270.640
  20426009.095    -5195092.73049  -4037060.93548  20426008.559    20426010.682
  23140255.273   -11999025.69349  -9317627.45646  23140255.015    23140259.928
 04  7 20 18  1  0.0000000  0  7G22G 3G11G19G15G14G25
  22125998.615     7402640.93349   5735152.99547  22125998.330    22125999.601
  24086508.551    12525346.59849   9756336.19745  24086508.198    24086514.166
  22743344.110   -14287174.78949 -10835210.15846  22743343.811    22743346.690
  22446518.511    -1904614.04649  -1471344.62647  22446517.509    22446520.214
  21957800.301     9324394.33749   7265640.24046  21957799.571    21957804.243
  20431724.461    -5165058.23849  -4013657.44248  20431723.942    20431726.051
  23122155.959   -12094138.00949  -9391740.87346  23122155.704    23122160.636
 04  7 20 18  1 30.0000000  0  7G22G 3G11G19G15G14G25
  22137348.216     7462284.22849   5781628.25647  22137347.953    22137349.206
  24103981.674    12617168.14649   9827885.36045  24103981.311    24103987.343
  22727655.666   -14369617.68849 -10899451.33446  22727655.362    22727658.330
  22456067.840    -1854432.23049  -1432241.95947  22456066.818    22456069.533
  21975397.892     9416869.90949   7337699.07046  21975397.119    21975401.838
  20437525.428    -5134573.99249  -3989903.49248  20437524.876    20437527.019
  23104089.869   -12189075.74949  -9465718.25846  23104089.632    23104094.437
 04  7 20 18  2  0.0000000  0  7G22G 3G11G19G15G14G25
  22148726.349     7522076.80849   5828219.86647  22148726.056    22148727.210
  24121465.093    12709042.83249   9899475.93245  24121464.637    24121470.580
  22712021.574   -14451774.47749 -10963469.57546  22712021.355    22712024.406
  22465705.074    -1803788.46649  -1392779.33847  22465704.077    22465706.774
  21993058.843     9509678.92149   7410017.71846  21993058.112    21993062.848
  20443411.547    -5103642.24349  -3965800.83948  20443411.021    20443413.169
  23086057.516   -12283836.57849  -9539557.78946  23086057.226    23086061.931
 04  7 20 18  2 30.0000000  0  7G22G 3G11G19G15G14G25
  22160132.887     7582018.42849   5874927.63447  22160132.649    22160133.675
  24138958.095    12800968.08249   9971105.90245  24138957.567    24138963.491
  22696442.650   -14533642.56949 -11027262.84846  22696442.380    22696445.414
  22475429.700    -1752685.07849  -1352958.56347  22475428.695    22475431.444
  22010783.093     9602819.82649   7482594.98446  22010782.332    22010787.047
  20449382.486    -5072264.83949  -3941350.92048  20449381.977    20449384.077
  23068059.401   -12378417.39649  -9613257.03246  23068059.074    23068063.728
 04  7 20 18  3  0.0000000  0  7G22G 3G11G19G15G14G25
  22171567.954     7642109.08849   5921751.52047  22171567.713    22171568.721
  24156459.859    12892940.80649  10042772.87945  24156459.351    24156465.465
  22680919.138   -14615219.69849 -11090829.41446  22680918.816    22680921.731
  22485241.370    -1701124.43849  -1312781.49447  22485240.382    22485243.256
  22028570.064     9696290.76649   7555429.41946  22028569.289    22028574.051
  20455437.934    -5040443.52349  -3916555.09448  20455437.385    20455439.448
  23050095.874   -12472815.88349  -9686814.21046  23050095.521    23050100.176
 04  7 20 18  3 30.0000000  0  7G22G 3G11G19G15G14G25
  22183031.058     7702348.72349   5968691.44247  22183030.827    22183032.079
  24173970.284    12984958.66249  10114474.99845  24173969.759    24173976.030
  22665451.469   -14696503.05749 -11154167.05846  22665451.135    22665453.980
  22495139.708    -1649108.43949  -1272249.59947  22495138.709    22495141.669
  22046419.633     9790090.50349   7628520.06746  22046418.822    22046423.582
  20461577.563    -5008179.44649  -3891414.26948  20461577.035    20461579.134
  23032167.721   -12567028.60249  -9760226.61846  23032167.373    23032172.030
 04  7 20 18  4  0.0000000  0  7G22G 3G11G19G15G14G25
  22194522.122     7762736.27649   6015746.58147  22194521.952    22194523.555
  24191488.611    13077017.78149  10186209.27545  24191488.081    24191494.385
  22650039.866   -14777491.47949 -11217274.89146  22650039.494    22650042.396
  22505124.033    -1596640.59649  -1231365.61447  22505123.008    22505125.988
  22064331.245     9884216.38249   7701864.84746  22064330.422    22064335.233
  20467800.956    -4975475.40449  -3865930.60948  20467800.417    20467802.500
  23014275.255   -12661053.78249  -9833492.89446  23014274.979    23014279.600
 04  7 20 18  4 30.0000000  0  7G22G 3G11G19G15G14G25
  22206042.045     7823273.15649   6062918.15947  22206041.837    22206043.279
  24209014.695    13169116.92549  10257974.74045  24209014.058    24209020.426
  22634684.963   -14858181.49649 -11280150.18746  22634684.594    22634687.596
  22515194.242    -1543721.54549  -1190130.03946  22515193.216    22515196.214
  22082304.929     9978668.39549   7775463.75946  22082304.109    22082308.908
  20474108.032    -4942331.60249  -3840104.27848  20474107.470    20474109.570
  22996419.364   -12754886.85049  -9906609.47346  22996419.060    22996423.720
 04  7 20 18  5  0.0000000  0  7G22G 3G11G19G15G14G25
  22217590.177     7883957.39949   6110204.58647  22217589.962    22217591.050
  24226547.495    13261251.64449  10329767.91945  24226546.820    24226553.123
  22619387.259   -14938571.53149 -11342791.75046  22619386.874    22619389.771
  22525349.560    -1490355.28549  -1148545.98946  22525348.526    22525351.502
  22100339.993    10073443.08649   7849314.10246  22100339.183    22100343.949
  20480498.167    -4908751.32649  -3813937.83048  20480497.617    20480499.701
  22978600.263   -12848526.79449  -9979575.57046  22978599.907    22978604.553
 04  7 20 18  5 30.0000000  0  7G22G 3G11G19G15G14G25
  22229166.150     7944788.41849   6157605.39147  22229165.868    22229166.672
  24244086.294    13353418.87149  10401586.44645  24244085.738    24244092.026
  22604146.916   -15018660.09849 -11405198.38446  22604146.505    22604149.410
  22535589.401    -1436544.82649  -1106615.81646  22535588.367    22535591.299
  22118436.138    10168538.12249   7923414.07146  22118435.306    22118439.999
  20486970.909    -4874736.92849  -3787433.11748  20486970.375    20486972.481
  22960818.226   -12941971.29249 -10052389.37346  22960817.937    22960822.613
 04  7 20 18  6  0.0000000  0  7G22G 3G11G19G15G14G25
  22240770.151     8005767.75249   6205121.71147  22240769.846    22240770.842
  24261631.130    13445617.27949  10473429.26845  24261630.672    24261636.867
  22588964.668   -15098443.34349 -11467367.10946  22588964.275    22588967.207
  22545913.638    -1382290.89249  -1064340.06746  22545912.589    22545915.494
  22136593.164    10263953.43749   7997763.61746  22136592.306    22136596.948
  20493526.249    -4840288.33449  -3760590.06648  20493525.697    20493527.827
  22943074.416   -13035215.46049 -10125047.08646  22943074.141    22943078.700
 04  7 20 18  6 30.0000000  0  7G22G 3G11G19G15G14G25
  22252402.003     8066894.97349   6252753.25447  22252401.773    22252402.990
  24279181.281    13537843.84749  10545294.03845  24279180.832    24279187.052
  22573840.893   -15177919.14949 -11529296.27646  22573840.486    22573843.468
  22556321.740    -1327596.02549  -1021720.74146  22556320.684    22556323.649
  22154810.632    10359686.93849   8072361.08246  22154809.804    22154814.461
  20500163.843    -4805407.59549  -3733410.28048  20500163.282    20500165.414
  22925369.137   -13128257.13149 -10197547.01946  22925368.838    22925373.351
 04  7 20 18  7  0.0000000  0  7G22G 3G11G19G15G14G25
  22264062.280     8128169.44649   6300499.56547  22264061.981    22264063.332
  24296736.395    13630095.67049  10617178.47245  24296735.939    24296741.990
  22558775.965   -15257085.65749 -11590984.41646  22558775.575    22558778.556
  22566813.219    -1272463.10749   -978760.07846  22566812.221    22566815.159
  22173088.384    10455736.62249   8147204.94046  22173087.551    22173092.189
  20506883.220    -4770096.83649  -3705895.41348  20506882.671    20506884.829
  22907702.927   -13221093.39449 -10269886.88746  22907702.628    22907707.154
 04  7 20 18  7 30.0000000  0  7G22G 3G11G19G15G14G25
  22275750.248     8189590.77749   6348360.30847  22275750.069    22275751.314
  24314295.579    13722369.17549  10689079.80645  24314295.103    24314300.939
  22543770.344   -15335940.59249 -11652429.79446  22543769.982    22543772.938
  22577387.572    -1216894.90949   -935460.23546  22577386.590    22577389.438
  22191425.783    10552100.20949   8222293.38446  22191424.956    22191429.585
  20513684.019    -4734358.46049  -3678047.34248  20513683.492    20513685.609
  22890076.281   -13313722.04449 -10342064.97346  22890075.911    22890080.429
 04  7 20 18  8  0.0000000  0  7G22G 3G11G19G15G14G25
  22287466.443     8251158.81049   6396335.38147  22287466.148    22287467.364
  24331858.418    13814662.30649  10760996.44645  24331857.995    24331863.879
  22528824.487   -15414481.83849 -11713630.72346  22528824.100    22528826.988
  22588044.304    -1160893.59649   -891822.89546  22588043.343    22588046.180
  22209822.747    10648776.34449   8297625.37846  22209821.890    22209826.465
  20520565.958    -4698193.67449  -3649867.00448  20520565.408    20520567.566
  22872489.578   -13406140.05449 -10414078.95346  22872489.306    22872493.695
 04  7 20 18  8 30.0000000  0  7G22G 3G11G19G15G14G25
  22299210.251     8312872.70249   6444424.11447  22299210.018    22299211.036
  24349424.490    13906971.61849  10832925.66545  24349423.944    24349429.969
  22513938.630   -15492707.68449 -11774585.89846  22513938.175    22513941.076
  22598782.797    -1104462.36449   -847850.55346  22598781.868    22598784.708
  22228278.647    10745762.37949   8373198.84446  22228277.803    22228282.419
  20527528.571    -4661604.89049  -3621356.27248  20527528.068    20527530.177
  22854943.414   -13498345.30949 -10485927.12446  22854943.162    22854947.543
 04  7 20 18  9  0.0000000  0  7G22G 3G11G19G15G14G25
  22310981.970     8374733.77449   6492627.52947  22310981.680    22310982.862
  24366993.260    13999295.57749  10904866.33845  24366992.782    24366998.726
  22499113.427   -15570614.26449 -11835292.28446  22499113.029    22499115.873
  22609603.040    -1047602.47649   -803544.19346  22609602.018    22609604.872
  22246793.347    10843057.90049   8449013.46646  22246792.546    22246797.203
  20534571.687    -4624593.05049  -3592515.89548  20534571.162    20534573.311
  22837438.523   -13590333.54749 -10557606.21046  22837438.301    22837442.678
 04  7 20 18  9 30.0000000  0  7G22G 3G11G19G15G14G25
  22322781.419     8436741.93249   6540945.51147  22322781.250    22322782.761
  24384564.308    14091631.66949  10976816.42945  24384563.788    24384569.893
  22484349.412   -15648199.35849 -11895748.17746  22484349.049    22484351.862
  22620504.201     -990316.37349   -758905.71546  22620503.231    22620506.126
  22265366.666    10940661.05949   8525067.81946  22265365.858    22265370.574
  20541695.070    -4587159.61649  -3563346.99548  20541694.541    20541696.670
  22819975.525   -13682101.86749 -10629113.93046  22819975.320    22819979.631
 04  7 20 18 10  0.0000000  0  7G22G 3G11G19G15G14G25
  22334609.020     8498895.78449   6589377.04447  22334608.742    22334610.354
  24402136.820    14183975.88349  11048772.87245  24402136.342    24402142.583
  22469646.878   -15725461.70649 -11955952.56646  22469646.478    22469649.313
  22631485.860     -932607.62949   -713937.92246  22631484.878    22631487.778
  22283998.032    11038569.09949   8601359.73246  22283997.190    22284001.980
  20548898.081    -4549307.46349  -3533851.83248  20548897.564    20548899.734
  22802554.764   -13773648.41049 -10700448.84346  22802554.540    22802558.797
 04  7 20 18 10 30.0000000  0  7G22G 3G11G19G15G14G25
  22346464.322     8561194.80449   6637921.69747  22346464.094    22346465.697
  24419710.469    14276325.21949  11120733.29945  24419709.866    24419716.160
  22455006.160   -15802399.27949 -12015903.89246  22455005.753    22455008.573
  22642547.387     -874479.08749   -668643.00846  22642546.391    22642549.314
  22302686.833    11136779.79949   8677887.48546  22302686.092    22302690.956
  20556180.424    -4511038.84649  -3504032.13948  20556179.863    20556182.007
  22785176.622   -13864970.70949 -10771609.02946  22785176.411    22785180.640
 04  7 20 18 11  0.0000000  0  7G22G 3G11G19G15G14G25
  22358347.155     8623638.76449   6686579.27347  22358346.898    22358348.528
  24437284.459    14368676.34049  11192695.10245  24437283.860    24437290.045
  22440427.598   -15879010.31249 -12075600.77146  22440427.176    22440429.965
  22653688.234     -815933.83649   -623023.38146  22653687.229    22653690.180
  22321432.919    11235290.84849   8754649.27646  22321432.174    22321437.078
  20563541.541    -4472355.79449  -3473889.51448  20563541.007    20563543.177
  22767841.733   -13956066.26449 -10842592.52446  22767841.491    22767845.708
 04  7 20 18 11 30.0000000  0  7G22G 3G11G19G15G14G25
  22370257.496     8686227.65349   6735349.80447  22370257.224    22370258.666
  24454858.313    14461027.16549  11264656.70945  24454857.844    24454863.930
  22425911.759   -15955291.71749 -12135040.79746  22425911.305    22425914.087
  22664908.029     -756973.77649   -577080.52746  22664907.031    22664909.958
  22340235.943    11334100.81449   8831643.97746  22340235.137    22340240.056
  20570981.336    -4433259.65849  -3443424.99948  20570980.796    20570982.952
  22750550.591   -14046931.91249 -10913396.87246  22750550.342    22750554.515
 04  7 20 18 12  0.0000000  0  7G22G 3G11G19G15G14G25
  22382195.635     8748962.69149   6784234.27246  22382195.389    22382196.388
  24472431.766    14553376.31249  11336616.96945  24472431.288    24472437.613
  22411459.147   -16031240.45149 -12194221.59846  22411458.740    22411461.526
  22676206.463     -697600.35949   -530815.58646  22676205.449    22676208.354
  22359095.683    11433209.22049   8908871.25746  22359094.900    22359099.833
  20578499.562    -4393751.25349  -3412639.24348  20578499.022    20578501.170
  22733303.856   -14137563.84449 -10984019.11346  22733303.611    22733307.805
 04  7 20 18 12 30.0000000  0  7G22G 3G11G19G15G14G25
  22394161.310     8811843.26449   6833232.04146  22394161.054    22394162.352
  24490004.242    14645720.27549  11408573.19045  24490003.613    24490010.333
  22397070.254   -16106854.31549 -12253141.46446  22397069.832    22397072.649
  22687582.930     -637816.70649   -484230.97746  22687581.924    22687584.882
  22378011.804    11532613.77349   8986329.27746  22378011.035    22378015.941
  20586095.838    -4353833.01349  -3381534.12348  20586095.263    20586097.365
  22716102.024   -14227959.75849 -11054457.42546  22716101.760    22716106.003
 04  7 20 18 13  0.0000000  0  7G22G 3G11G19G15G14G25
  22406154.818     8874868.68149   6882342.75847  22406154.552    22406155.711
  24507575.182    14738056.16949  11480523.11645  24507574.649    24507581.440
  22382745.347   -16182131.84849 -12311799.26146  22382744.948    22382747.761
  22699036.951     -577625.75549   -437328.99146  22699035.905    22699038.902
  22396983.741    11632311.95549   9064016.11646  22396982.992    22396987.956
  20593769.534    -4313507.06349  -3350111.31548  20593769.030    20593771.117
  22698945.665   -14318116.70649 -11124709.55246  22698945.417    22698949.707
 04  7 20 18 13 30.0000000  0  7G22G 3G11G19G15G14G25
  22418175.679     8938038.15149   6931565.67347  22418175.390    22418176.673
  24525144.077    14830380.36049  11552463.94945  24525143.547    24525150.228
  22368484.854   -16257071.08449 -12370193.43846  22368484.451    22368487.228
  22710567.760     -517031.03349   -390112.37946  22710566.752    22710569.755
  22416011.127    11732301.18949   9141929.73746  22416010.329    22416015.343
  20601520.478    -4272775.93049  -3318372.78048  20601519.915    20601522.040
  22681835.074   -14408033.01249 -11194774.15946  22681834.853    22681839.173
 04  7 20 18 14  0.0000000  0  7G22G 3G11G19G15G14G25
  22430224.110     9001352.63549   6980901.54447  22430223.799    22430225.353
  24542710.303    14922691.31049  11624394.43645  24542709.815    24542716.462
  22354289.341   -16331668.77649 -12428321.48446  22354288.948    22354291.757
  22722175.117     -456033.94449   -342582.23846  22722174.106    22722177.147
  22435093.780    11832580.94649   9220069.73946  22435093.018    22435098.028
  20609348.346    -4231640.40749  -3286319.13348  20609347.765    20609349.873
  22664771.231   -14497704.58549 -11264648.07346  22664770.936    22664775.217
 04  7 20 18 14 30.0000000  0  7G22G 3G11G19G15G14G25
  22442299.781     9064810.91649   7030349.52447  22442299.509    22442301.005
  24560273.387    15014985.45049  11696311.87345  24560273.017    24560279.502
  22340159.031   -16405923.73849 -12486182.48246  22340158.660    22340161.510
  22733858.430     -394637.97349   -294741.27446  22733857.408    22733860.459
  22454231.228    11933148.26749   9298433.81646  22454230.460    22454235.414
  20617252.552    -4190103.32049  -3253952.58048  20617252.003    20617254.095
  22647754.198   -14587129.74649 -11334329.97546  22647753.926    22647758.124
 04  7 20 18 15  0.0000000  0  7G22G 3G11G19G15G14G25
  22454402.986     9128413.83049   7079910.13646  22454402.651    22454404.277
  24577833.093    15107261.14449  11768214.90045  24577832.620    24577839.151
  22326094.510   -16479832.82949 -12543773.95546  22326094.217    22326097.117
  22745617.322     -332844.91649   -246590.90346  22745616.297    22745619.355
  22473423.159    12034002.12349   9377021.17646  22473422.373    22473427.355
  20625233.087    -4148165.54349  -3221273.80548  20625232.489    20625234.632
  22630784.692   -14676304.86949 -11403817.03146  22630784.414    22630788.642
 04  7 20 18 15 30.0000000  0  7G22G 3G11G19G15G14G25
  22466533.655     9192161.41749   7129583.62546  22466533.433    22466534.617
  24595388.642    15199515.79349  11840101.53145  24595388.187    24595394.692
  22312096.357   -16553393.25049 -12601093.72346  22312096.087    22312099.007
  22757451.320     -270657.23349   -198133.03446  22757450.275    22757453.348
  22492669.271    12135140.66749   9455830.36546  22492668.450    22492673.432
  20633289.487    -4105829.13949  -3188284.40348  20633288.891    20633290.956
  22613863.188   -14765227.11049 -11473107.04846  22613862.969    22613867.257
 04  7 20 18 16  0.0000000  0  7G22G 3G11G19G15G14G25
  22478691.631     9256052.69849   7179368.99646  22478691.455    22478692.455
  24612939.473    15291745.40649  11911968.65445  24612938.986    24612945.434
  22298164.934   -16626604.06149 -12658141.08246  22298164.602    22298167.416
  22769359.599     -208078.91349   -149370.77046  22769358.541    22769361.620
  22511968.954    12236560.96649   9534859.09046  22511968.148    22511973.143
  20641421.123    -4063096.85749  -3154986.53248  20641420.562    20641422.690
  22596990.242   -14853894.66349 -11542198.60146  22596989.990    22596994.332
 04  7 20 18 16 30.0000000  0  7G22G 3G11G19G15G14G25
  22490877.173     9320086.91449   7229265.82546  22490876.900    22490877.894
  24630484.983    15383947.36749  11983814.23245  24630484.530    24630491.046
  22284300.373   -16699463.15349 -12714914.37346  22284299.950    22284302.723
  22781341.727     -145112.51949   -100306.10746  22781340.696    22781343.808
  22531321.914    12338261.02749   9614105.82346  22531321.111    22531326.076
  20649627.762    -4019970.80249  -3121381.82348  20649627.191    20649629.289
  22580166.309   -14942304.68449 -11611089.48946  22580166.116    22580170.402
 04  7 20 18 17  0.0000000  0  7G22G 3G11G19G15G14G25
  22503089.736     9384264.41049   7279274.16547  22503089.525    22503090.777
  24648024.879    15476119.19449  12055636.30845  24648024.368    24648030.912
  22270503.159   -16771967.96649 -12771411.60946  22270502.781    22270505.517
  22793397.273      -81760.62749    -50941.05446  22793396.260    22793399.305
  22550727.726    12440239.11349   9693569.20546  22550726.926    22550731.838
  20657908.980    -3976452.59949  -3087471.54848  20657908.427    20657910.569
  22563392.083   -15030454.03849 -11679777.25246  22563391.869    22563396.088
 04  7 20 18 17 30.0000000  0  7G22G 3G11G19G15G14G25
  22515329.649     9448584.60449   7329393.74947  22515329.253    22515330.647
  24665558.369    15568258.04049  12127432.66845  24665557.820    24665564.475
  22256773.821   -16844116.45149 -12827631.18846  22256773.387    22256776.070
  22805525.566      -18026.33449     -1278.03746  22805524.524    22805527.598
  22570185.952    12542493.07149   9773247.53846  22570185.136    22570190.132
  20666264.461    -3932544.56049  -3053257.50048  20666263.873    20666265.985
  22546667.779   -15118340.71849 -11748260.33846  22546667.547    22546671.753
 04  7 20 18 18  0.0000000  0  7G22G 3G11G19G15G14G25
  22527596.549     9513049.05749   7379625.70646  22527596.300    22527598.001
  24683085.396    15660362.73849  12199202.42045  24683084.995    24683091.488
  22243112.877   -16915905.15649 -12883570.40646  22243112.473    22243115.153
  22817726.270       46089.10249     48681.96946  22817725.297    22817728.428
  22589696.575    12645022.20949   9853140.28346  22589695.759    22589700.740
  20674694.006    -3888247.05549  -3018739.98648  20674693.418    20674695.588
  22529994.283   -15205960.33549 -11816535.31746  22529994.020    22529998.192
 04  7 20 18 18 30.0000000  0  7G22G 3G11G19G15G14G25
  22539891.006     9577656.90849   7429969.39846  22539890.798    22539892.625
  24700605.445    15752429.90949  12270942.96045  24700604.947    24700611.464
  22229520.794   -16987332.33649 -12939227.92346  22229520.333    22229522.994
  22829998.991      110582.30949     98936.35546  22829997.981    22830001.197
  22609259.175    12747823.91249   9933245.43146  22609258.346    22609263.352
  20683197.192    -3843562.66649  -2983920.98848  20683196.591    20683198.718
  22513372.114   -15293310.53749 -11884600.35946  22513371.817    22513376.004
 04  7 20 18 19  0.0000000  0  7G22G 3G11G19G15G14G25
  22552212.630     9642406.56749   7480423.71146  22552212.398    22552213.767
  24718117.332    15844455.54649  12342651.15045  24718117.053    24718123.486
  22215997.562   -17058397.11949 -12994603.03346  22215997.106    22215999.757
  22842342.797      175449.24749    149481.96946  22842341.806    22842345.057
  22628872.983    12850895.06149  10013560.53946  22628872.248    22628877.195
  20691773.324    -3798494.67449  -2948803.08748  20691772.754    20691774.917
  22496801.290   -15380390.19149 -11952454.58746  22496801.039    22496805.223
 04  7 20 18 19 30.0000000  0  7G22G 3G11G19G15G14G25
  22564561.375     9707298.86349   7530989.16046  22564561.159    22564562.320
  24735620.922    15936438.03449  12414325.70945  24735620.696    24735627.134
  22202543.895   -17129096.16049 -13049693.18346  22202543.449    22202546.145
  22854757.446      240688.19849    200317.44846  22854756.421    22854759.659
  22648537.981    12954234.58949  10094084.77546  22648537.244    22648542.169
  20700422.327    -3753043.87849  -2913386.89347  20700421.766    20700423.904
  22480282.810   -15467195.59949 -12020095.10646  22480282.524    22480286.670
 04  7 20 18 20  0.0000000  0  7G22G 3G11G19G15G14G25
  22576937.343     9772334.45949   7581666.17347  22576937.131    22576938.417
  24753116.134    16028375.44149  12485965.16445  24753115.855    24753122.125
  22189160.326   -17199426.77749 -13104496.24146  22189159.895    22189162.620
  22867242.419      306296.86249    251441.02846  22867241.398    22867244.671
  22668253.719    13057840.93849  10174816.91646  22668252.945    22668257.895
  20709143.921    -3707211.69649  -2877673.51648  20709143.368    20709145.557
  22463817.038   -15553723.66249 -12087519.52546  22463816.754    22463820.862
 04  7 20 18 20 30.0000000  0  7G22G 3G11G19G15G14G25
  22589340.388     9837511.90649   7632453.80947  22589340.145    22589341.360
  24770601.831    16120263.76549  12557566.32145  24770601.490    24770607.890
  22175847.046   -17269388.25649 -13159011.63846  22175846.651    22175849.379
  22879796.965      372271.18849    302849.53746  22879795.947    22879799.230
  22688019.615    13161711.16649  10255754.69346  22688018.831    22688023.874
  20717937.454    -3661001.41749  -2841665.50847  20717936.911    20717939.038
  22447404.359   -15639972.62849 -12154726.44946  22447404.075    22447408.224
 04  7 20 18 21  0.0000000  0  7G22G 3G11G19G15G14G25
  22601770.266     9902831.94849   7683352.45147  22601769.991    22601771.518
  24788078.189    16212101.30849  12629127.94145  24788077.611    24788084.146
  22162604.696   -17338976.92249 -13213236.54047  22162604.308    22162607.056
  22892420.642      438609.30549    354541.51646  22892419.648    22892422.961
  22707835.508    13265844.07249  10336897.13746  22707834.703    22707839.824
  20726802.733    -3614414.11249  -2805363.72448  20726802.163    20726804.352
  22431045.569   -15725938.67649 -12221712.93646  22431045.260    22431049.352
 04  7 20 18 21 30.0000000  0  7G22G 3G11G19G15G14G25
  22614227.183     9968293.86749   7734361.71747  22614226.937    22614228.551
  24805544.263    16303885.19749  12700647.69245  24805543.840    24805550.126
  22149433.585   -17408191.35349 -13267169.83547  22149433.197    22149435.992
  22905113.036      505307.92249    406514.40946  22905112.051    22905115.375
  22727700.917    13370237.20449  10418242.34646  22727700.120    22727705.298
  20735739.305    -3567452.13849  -2768769.99248  20735738.767    20735740.941
  22414740.952   -15811619.82749 -12288477.42346  22414740.648    22414744.717
 04  7 20 18 22  0.0000000  0  7G22G 3G11G19G15G14G25
  22626711.253    10033898.50549   7785482.18046  22626711.024    22626712.726
  24822999.574    16395613.30549  12772124.02645  24822999.096    24823005.501
  22136334.320   -17477028.50249 -13320809.14147  22136333.925    22136336.732
  22917873.772      572365.35949    458766.90246  22917872.776    22917875.997
  22747615.627    13474889.39449  10499789.44146  22747614.813    22747620.027
  20744747.046    -3520116.41149  -2731885.01147  20744746.451    20744748.559
  22398491.280   -15897012.31049 -12355016.96046  22398490.977    22398495.068
 04  7 20 18 22 30.0000000  0  7G22G 3G11G19G15G14G25
  22639222.424    10099644.96249   7836713.13447  22639222.262    22639223.925
  24840443.579    16487282.36949  12843554.34745  24840443.029    24840449.697
  22123307.084   -17545486.89049 -13374153.31047  22123306.694    22123309.540
  22930701.957      639777.77649    511296.00346  22930700.936    22930704.145
  22767579.043    13579797.62449  10581536.02846  22767578.223    22767583.515
  20753825.266    -3472409.97549  -2694711.17948  20753824.706    20753826.845
  22382296.824   -15982114.59849 -12421330.38046  22382296.539    22382300.564
 04  7 20 18 23  0.0000000  0  6G22G11G19G15G14G25
  22651761.593    10165537.30049   7888057.82847  22651761.322    22651762.908
  22110353.250   -17613560.02449 -13427197.28647  22110352.861    22110355.641
  22943598.030      707546.72949    564102.91146  22943596.998    22943600.213
  22787591.679    13684964.52249  10663484.18246  22787590.909    22787596.175
  20762974.570    -3424330.36549  -2657246.55647  20762974.002    20762976.044
  22366158.976   -16066919.29249 -12487411.90846  22366158.641    22366162.708
 04  7 20 18 23 30.0000000  0  6G22G11G19G15G14G25
  22664327.991    10231574.49049   7939515.31047  22664327.772    22664329.414
  22097472.858   -17681246.99849 -13479940.36147  22097472.468    22097475.200
  22956561.149      775668.09549    617184.44246  22956560.105    22956563.407
  22807652.991    13790386.83249  10745631.35846  22807652.171    22807657.434
  20772194.237    -3375880.68749  -2619493.57247  20772193.650    20772195.796
  22350078.002   -16151425.07049 -12553260.52046  22350077.673    22350081.743
 04  7 20 18 24  0.0000000  0  6G22G11G19G15G14G25
  22676920.824    10297749.32449   7991080.13346  22676920.574    22676921.996
  22084665.009   -17748552.67649 -13532386.31747  22084664.624    22084667.307
  22969589.433      844132.31349    670533.12646  22969588.425    22969591.791
  22827761.205    13896055.66749  10827970.62846  22827760.381    22827765.582
  20781482.676    -3327069.77149  -2581459.09347  20781482.089    20781484.189
  22334053.118   -16235636.13949 -12618879.48546  22334052.817    22334056.921
 04  7 20 18 24 30.0000000  0  6G22G11G19G15G14G25
  22689539.947    10364063.24549   8042753.28046  22689539.669    22689541.132
  22071930.539   -17815472.96149 -13584531.96847  22071930.151    22071932.773
  22982682.760      912937.58849    724147.56246  22982681.740    22982685.146
  22847916.181    14001970.34849  10910501.46946  22847915.348    22847920.567
  20790839.641    -3277898.37149  -2543143.74047  20790839.121    20790841.244
  22318085.171   -16319548.28249 -12684265.52546  22318084.891    22318088.962
 04  7 20 18 25  0.0000000  0  6G22G11G19G15G14G25
  22702185.755    10430517.86749   8094536.05246  22702185.554    22702187.066
  22059270.181   -17882003.74849 -13636374.10647  22059269.755    22059272.370
  22995840.727      982083.20149    778027.19246  22995839.761    22995843.190
  22868117.939    14108130.76949  10993223.78446  22868117.082    22868122.347
  20800265.352    -3228366.25849  -2504547.29047  20800264.776    20800266.838
  22302175.005   -16403156.98649 -12749415.12146  22302174.716    22302178.746
 04  7 20 18 25 30.0000000  0  6G22G11G19G15G14G25
  22714858.340    10497112.47749   8146427.95046  22714858.121    22714859.578
  22046684.135   -17948143.85549 -13687911.82547  22046683.698    22046686.324
  23009062.842     1051565.44949    832169.15146  23009061.888    23009065.304
  22888365.829    14214534.01049  11076135.31846  22888365.015    22888370.368
  20809759.069    -3178476.19549  -2465671.94047  20809758.554    20809760.667
  22286322.875   -16486460.47649 -12814326.88846  22286322.540    22286326.585
 04  7 20 18 26  0.0000000  0  6G22G11G19G15G14G25
  22727557.530    10563847.81349   8198429.42746  22727557.300    22727558.995
  22034172.989   -18013890.15649 -13739142.68147  22034172.540    22034175.180
  23022348.740     1121382.86649    886572.27846  23022347.760    23022351.210
  22908659.744    14321179.11649  11159235.30346  22908658.946    22908664.341
  20819320.795    -3128229.14349  -2426518.40647  20819320.225    20819322.331
  22270529.527   -16569454.67049 -12878997.64446  22270529.204    22270533.255
 04  7 20 18 26 30.0000000  0  6G22G11G19G15G14G25
  22740283.654    10630724.54549   8250541.09046  22740283.459    22740285.349
  22021737.356   -18079239.79649 -13790064.45647  22021736.889    22021739.555
  23035697.917     1191532.87449    941234.56046  23035696.919    23035700.330
  22928999.555    14428064.98049  11242522.90346  22928998.754    22929004.026
  20828950.144    -3077626.61349  -2387087.87247  20828949.579    20828951.739
  22254795.690   -16652136.49749 -12943425.00746  22254795.376    22254799.406
 04  7 20 18 27  0.0000000  0  6G22G11G19G15G14G25
  22753036.401    10697740.81749   8302761.53646  22753036.151    22753037.791
  22009377.213   -18144192.36449 -13840676.82247  22009376.826    22009379.454
  23049109.543     1262011.00049    996152.53446  23049108.544    23049111.898
  22949384.510    14535187.67149  11325995.05946  22949383.672    22949388.869
  20838646.536    -3026671.89049  -2347382.91447  20838645.996    20838648.120
  22239121.444   -16734504.95749 -13007608.17346  22239121.077    22239125.173
 04  7 20 18 27 30.0000000  0  6G22G11G19G15G14G25
  22765816.103    10764897.75549   8355091.64846  22765815.893    22765817.123
  21997093.351   -18208744.28949 -13890976.99447  21997092.969    21997095.572
  23062583.260     1332815.40049   1051324.73246  23062582.236    23062585.569
  22969814.298    14642546.47149  11409651.19046  22969813.400    22969818.647
  20848409.645    -2975366.11349  -2307404.40147  20848409.077    20848411.272
  22223507.469   -16816556.35949 -13071544.27946  22223507.156    22223511.266
 04  7 20 18 28  0.0000000  0  6G22G11G19G15G14G25
  22778622.300    10832193.51949   8407529.88746  22778622.058    22778623.281
  21984885.819   -18272895.40249 -13940964.84847  21984885.421    21984887.968
  23076118.161     1403941.61049   1106747.69846  23076117.157    23076120.524
  22990288.056    14750137.16749  11493487.99846  22990287.265    22990292.549
  20858239.011    -2923712.96949  -2267155.21047  20858238.472    20858240.611
  22207954.105   -16898289.69349 -13135232.54746  22207953.784    22207957.908
 04  7 20 18 28 30.0000000  0  6G22G11G19G15G14G25
  22791455.298    10899630.52749   8460078.18446  22791455.054    22791456.295
  21972755.394   -18336640.79049 -13990636.55347  21972755.028    21972757.561
  23089714.231     1475389.16349   1162421.06146  23089713.234    23089716.635
  23010806.108    14857960.59449  11577506.15946  23010805.331    23010810.705
  20868134.463    -2871711.59749  -2226634.69347  20868133.911    20868136.112
  22192462.238   -16979699.69449 -13198668.86846  22192461.958    22192465.994
 04  7 20 18 29  0.0000000  0  6G22G11G19G15G14G25
  22804314.602    10967206.62749   8512734.85546  22804314.352    22804315.776
  21960702.203   -18399980.66049 -14039992.26947  21960701.833    21960704.393
  23103370.586     1547153.01649   1218340.89946  23103369.519    23103372.895
  23031367.764    14966012.34549  11661702.25245  23031366.946    23031372.332
  20878095.567    -2819366.32849  -2185846.17247  20878094.976    20878097.154
  22177032.046   -17060786.18549 -13261853.10047  22177031.780    22177035.697
 04  7 20 18 29 30.0000000  0  6G22G11G19G15G14G25
  22817200.505    11034923.24449   8565500.97046  22817200.221    22817201.988
  21948726.846   -18462911.22749 -14089029.05647  21948726.513    21948729.073
  23117086.706     1619231.76949   1274506.11246  23117085.674    23117089.093
  23051972.761    15074292.10949  11746076.00445  23051971.892    23051977.358
  20888121.799    -2766677.61249  -2144790.04847  20888121.284    20888123.458
  22161664.173   -17141544.92449 -13324781.94147  22161663.869    22161667.759
 04  7 20 18 30  0.0000000  0  6G22G11G19G15G14G25
  22830113.086    11102780.61249   8618376.71946  22830112.842    22830114.949
  21936829.946   -18525430.15249 -14137745.08347  21936829.569    21936832.112
  23130862.279     1691622.85449   1330914.69846  23130861.238    23130864.692
  23072620.770    15182798.03949  11830625.98545  23072619.947    23072625.517
  20898213.292    -2713647.01149  -2103467.51947  20898212.699    20898214.869
  22146359.236   -17221972.68849 -13387452.87447  22146358.965    22146362.815
 04  7 20 18 30 30.0000000  0  6G22G11G19G15G14G25
  22843052.593    11170778.03049   8671361.67446  22843052.384    22843054.354
  21925011.597   -18587535.92949 -14186139.17347  21925011.181    21925013.767
  23144696.622     1764322.82649   1387563.97546  23144695.641    23144699.029
  23093311.407    15291527.63649  11915350.24245  23093310.614    23093316.085
  20908369.292    -2660277.09249  -2061880.59047  20908368.717    20908370.878
  22131117.646   -17302067.66749 -13449864.49647  22131117.347    22131121.193
 04  7 20 18 31  0.0000000  0  6G22G11G19G15G14G25
  22856018.486    11238913.37549   8724454.13546  22856018.287    22856019.934
  21913271.974   -18649228.30349 -14234211.13647  21913271.518    21913274.089
  23158588.815     1837326.47949   1444449.89146  23158587.813    23158591.263
  23114043.803    15400476.46349  12000245.34445  23114042.990    23114048.453
  20918589.021    -2606571.98949  -2020032.48147  20918588.462    20918590.624
  22115939.429   -17381829.22849 -13512016.31147  22115939.174    22115943.059
 04  7 20 18 31 30.0000000  0  6G22G11G19G15G14G25
  22869010.918    11307187.73849   8777654.93946  22869010.663    22869011.928
  21901611.511   -18710504.13549 -14281958.53247  21901611.080    21901613.652
  23172538.438     1910632.23449   1501571.19346  23172537.406    23172540.904
  23134817.867    15509643.83249  12085310.72746  23134817.049    23134822.428
  20928872.402    -2552532.46849  -1977923.77047  20928871.853    20928874.033
  22100825.529   -17461253.31149 -13573905.15947  22100825.287    22100829.126
 04  7 20 18 32  0.0000000  0  7G22G11G19G15G14G25G 1
  22882028.641    11375595.09449   8830959.37746  22882028.341    22882029.396
  21890029.620   -18771367.39249 -14329384.41247  21890029.218    21890031.817
  23186543.834     1984231.19149   1558920.98246  23186542.821    23186546.353
  23155631.932    15619021.68549  12170540.13546  23155631.150    23155636.503
  20939217.938    -2498166.24949  -1935560.50247  20939217.391    20939219.618
  22085775.128   -17540343.75849 -13635534.01647  22085774.826    22085778.676
  24560431.500    -6386865.58849  -4660608.90845  24560430.579    24560438.108
 04  7 20 18 32 30.0000000  0  7G22G11G19G15G14G25G 1
  22895072.184    11444138.78149   8884370.04346  22895071.911    22895072.848
  21878527.361   -18831812.36149 -14376484.35847  21878526.921    21878529.515
  23200605.123     2058123.81949   1616499.60746  23200604.086    23200607.750
  23176486.287    15728611.57149  12255934.76145  23176485.553    23176490.855
  20949625.976    -2443472.02949  -1892941.63647  20949625.396    20949627.587
  22070789.394   -17619094.20449 -13696897.95247  22070789.081    22070792.882
  24541890.741    -6484297.14149  -4736529.49645  24541889.753    24541897.215
 04  7 20 18 33  0.0000000  0  7G22G11G19G15G14G25G 1
  22908142.979    11512825.85049   8937892.40746  22908142.663    22908143.677
  21867106.302   -18891829.93549 -14423251.29847  21867105.918    21867108.512
  23214723.063     2132314.35349   1674310.35446  23214722.072    23214725.835
  23197381.776    15838418.05149  12341498.15045  23197380.957    23197386.423
  20960097.340    -2388444.63349  -1850063.15947  20960096.807    20960099.022
  22055870.127   -17697495.04749 -13757989.46947  22055869.839    22055873.629
  24523379.295    -6581574.76849  -4812330.13545  24523378.430    24523385.882
 04  7 20 18 33 30.0000000  0  7G22G11G19G15G14G25G 1
  22921240.452    11581654.31249   8991524.92546  22921240.196    22921241.394
  21855766.699   -18951419.72449 -14469684.91647  21855766.358    21855768.935
  23228896.906     2206798.02849   1732349.53546  23228895.940    23228899.607
  23218317.820    15948437.30949  12427227.32645  23218317.033    23218322.490
  20970631.402    -2333087.83549  -1806927.99847  20970630.844    20970633.063
  22041017.488   -17775545.92749 -13818808.28647  22041017.181    22041021.010
  24504897.172    -6678698.94749  -4888011.25145  24504896.293    24504903.715
 04  7 20 18 34  0.0000000  0  7G22G11G19G15G14G25G 1
  22934364.583    11650622.81249   9045266.55646  22934364.350    22934365.855
  21844508.701   -19010581.13449 -14515784.67847  21844508.312    21844510.859
  23243125.691     2281570.24449   1790613.55246  23243124.720    23243128.340
  23239293.854    16058666.14149  12513119.83745  23239292.943    23239298.384
  20981227.540    -2277404.95649  -1763538.75247  20981226.949    20981229.166
  22026231.773   -17853245.37749 -13879353.27147  22026231.467    22026235.270
  24486444.164    -6775670.01649  -4963573.03445  24486443.219    24486450.782
 04  7 20 18 34 30.0000000  0  7G22G11G19G15G14G25G 1
  22947515.450    11719731.52749   9099117.42046  22947515.256    22947516.908
  21833332.679   -19069311.84149 -14561548.86747  21833332.249    21833334.742
  23257408.924     2356628.66949   1849100.57746  23257407.922    23257411.564
  23260309.215    16169102.69249  12599174.18645  23260308.353    23260313.947
  20991885.384    -2221397.70049  -1719896.73547  20991884.810    20991886.981
  22011513.443   -17930590.57549 -13939622.20147  22011513.127    22011516.954
  24468020.488    -6872486.38949  -5039014.27045  24468019.593    24468027.037
 04  7 20 18 35  0.0000000  0  7G22G11G19G15G14G25G 1
  22960692.859    11788978.72949   9153076.20546  22960692.633    22960694.319
  21822238.588   -19127611.65749 -14606977.34447  21822238.159    21822240.604
  23271745.772     2431968.29949   1907806.73346  23271744.726    23271748.283
  23281363.533    16279742.93649  12685387.24445  23281362.678    23281368.210
  21002604.253    -2165069.73549  -1676004.83547  21002603.640    21002605.882
  21996862.646   -18007580.86549 -13999614.59347  21996862.329    21996866.139
  24449626.146    -6969148.89149  -5114335.60545  24449625.167    24449632.727
 04  7 20 18 35 30.0000000  0  8G22G20G11G19G15G14G25G 1
  22973896.343    11858362.78249   9207141.66846  22973896.073    22973897.718
  24708199.753    -5486532.48549  -4256256.96545  24708199.040    24708205.201
  21811226.578   -19185479.85849 -14652069.36447  21811226.142    21811228.623
  23286135.102     2507584.52349   1966728.40446  23286134.104    23286137.665
  23302455.762    16390583.29349  12771756.24445  23302454.936    23302460.414
  21013383.441    -2108424.64749  -1631865.78947  21013382.888    21013385.038
  21982279.646   -18084215.05549 -14059329.48947  21982279.305    21982283.134
  24431260.987    -7065657.67449  -5189537.15945  24431260.191    24431267.695
 04  7 20 18 36  0.0000000  0  8G22G20G11G19G15G14G25G 1
  22987124.512    11927876.27249   9261308.01546  22987124.205    22987125.734
  24691406.655    -5574781.12049  -4325022.05045  24691405.865    24691411.643
  21800295.707   -19242921.72949 -14696829.22547  21800295.310    21800297.776
  23300575.196     2583467.54149   2025857.97646  23300574.198    23300577.763
  23323584.496    16501614.43949  12858273.92445  23323583.639    23323589.010
  21024221.162    -2051471.57249  -1587486.78147  21024220.645    21024222.905
  21967763.488   -18160497.67649 -14118770.44047  21967763.194    21967767.025
  24412924.089    -7162018.54549  -5264623.42545  24412923.335    24412930.800
 04  7 20 18 36 30.0000000  0  8G22G20G11G19G15G14G25G 1
  23000379.778    11997532.31249   9315585.42046  23000379.449    23000380.795
  24674614.440    -5663024.52549  -4393783.03845  24674613.701    24674619.325
  21789448.824   -19299922.29649 -14741245.21547  21789448.439    21789450.872
  23315068.015     2659627.31949   2085203.20046  23315066.935    23315070.485
  23344751.546    16612847.38649  12944948.83545  23344750.726    23344756.048
  21035119.716    -1994199.42549  -1542859.14447  21035119.140    21035121.436
  21953317.210   -18236413.19649 -14177925.34147  21953316.895    21953320.748
  24394618.026    -7258217.22849  -5339583.36045  24394617.298    24394624.680
 04  7 20 18 37  0.0000000  0  8G22G20G11G19G15G14G25G 1
  23013661.578    12067329.02549   9369972.41446  23013661.274    23013662.763
  24657823.107    -5751263.98749  -4462540.96245  24657822.204    24657828.094
  21778686.039   -19356481.11849 -14785317.00247  21778685.660    21778688.027
  23329612.513     2736059.11349   2144760.39046  23329611.476    23329615.041
  23365956.144    16724278.08749  13031777.84645  23365955.345    23365960.787
  21046078.358    -1936611.81949  -1497985.68047  21046077.793    21046079.979
  21938940.847   -18311961.26849 -14236793.91647  21938940.538    21938944.376
  24376342.844    -7354254.28249  -5414417.33345  24376342.140    24376349.230
 04  7 20 18 37 30.0000000  0  8G22G20G11G19G15G14G25G 1
  23026970.007    12137265.17849   9424468.06446  23026969.661    23026971.330
  24641032.054    -5839500.40349  -4531296.51045  24641031.249    24641037.174
  21768007.476   -19412597.45749 -14829043.98047  21768007.092    21768009.444
  23344207.964     2812758.61349   2204526.16646  23344206.942    23344210.517
  23387197.775    16835903.42549  13118758.50245  23387196.901    23387202.502
  21057096.254    -1878712.11449  -1452869.04247  21057095.706    21057098.025
  21924634.708   -18387140.57749 -14295375.14847  21924634.372    21924638.197
  24358098.228    -7450129.87449  -5489125.48445  24358097.530    24358104.590
 04  7 20 18 38  0.0000000  0  8G22G20G11G19G15G14G25G 1
  23040304.858    12207340.13449   9479071.88646  23040304.529    23040306.201
  24624241.725    -5927733.54149  -4600049.49445  24624240.893    24624246.774
  21757413.318   -19468269.83649 -14872425.03247  21757412.967    21757415.333
  23358853.769     2889722.40349   2264497.89846  23358852.742    23358856.323
  23408475.906    16947720.88549  13205888.88645  23408475.100    23408480.785
  21068173.148    -1820502.58849  -1407510.95147  21068172.618    21068174.814
  21910399.072   -18461948.92949 -14353667.32447  21910398.767    21910402.570
  24339884.548    -7545843.34149  -5563707.29645  24339883.819    24339890.844
 04  7 20 18 38 30.0000000  0  8G22G20G11G19G15G14G25G 1
  23053666.007    12277553.47549   9533783.52846  23053665.569    23053667.357
  24607451.873    -6015963.43749  -4668800.01545  24607451.226    24607457.224
  21746903.975   -19523496.95349 -14915459.13547  21746903.562    21746905.985
  23373549.254     2966946.80049   2324672.69646  23373548.119    23373551.726
  23429789.974    17059727.56549  13293166.71245  23429789.304    23429795.164
  21079308.527    -1761985.72049  -1361913.41247  21079307.989    21079310.322
  21896234.398   -18536384.52749 -14411669.04047  21896234.103    21896237.889
  24321701.854    -7641394.03749  -5638162.28845  24321701.077    24321708.060
 04  7 20 18 39  0.0000000  0  8G22G20G11G19G15G14G25G 1
  23067053.245    12347904.80649   9588602.66946  23067052.861    23067054.793
  24590662.966    -6104189.85749  -4737547.78145  24590662.310    24590668.043
  21736479.694   -19578276.76149 -14958144.68547  21736479.299    21736481.744
  23388293.641     3044428.84849   2385048.25146  23388292.502    23388296.166
  23451139.838    17171921.15149  13380590.19445  23451139.103    23451144.918
  21090501.973    -1703163.84449  -1316078.17247  21090501.460    21090503.665
  21882141.114   -18610444.91249 -14469378.39047  21882140.819    21882144.620
  24303550.194    -7736780.99949  -5712489.71345  24303549.433    24303556.479
 04  7 20 18 39 30.0000000  0  8G22G20G11G19G15G14G25G 1
  23080466.742    12418393.32349   9643528.73946  23080466.445    23080468.347
  24573874.550    -6192412.85549  -4806292.84445  24573873.802    24573879.543
  21726140.735   -19632608.16249 -15000480.82447  21726140.346    21726142.789
  23403086.175     3122164.63849   2445621.53846  23403085.101    23403088.796
  23472524.868    17284298.91449  13468157.17445  23472524.038    23472529.883
  21101752.997    -1644039.75049  -1270007.45947  21101752.371    21101754.688
  21868119.558   -18684128.33849 -14526793.99947  21868119.256    21868123.056
  24285429.641    -7832003.87049  -5786689.24645  24285429.028    24285436.041
 04  7 20 18 40  0.0000000  0  8G22G20G11G19G15G14G25G 1
  23093906.494    12489019.06749   9698561.74146  23093906.141    23093908.051
  24557086.997    -6280631.88249  -4875034.86645  24557086.294    24557092.047
  21715887.535   -19686489.07249 -15042465.92247  21715887.154    21715889.591
  23417926.591     3200151.34249   2506390.33246  23417925.567    23417929.238
  23493944.464    17396858.84049  13555866.08945  23493943.670    23493949.388
  21113061.119    -1584614.99549  -1223702.45647  21113060.562    21113062.820
  21854170.193   -18757432.85549 -14583914.36547  21854169.883    21854173.649
  24267340.678    -7927061.29249  -5860759.87045  24267340.210    24267346.971
 04  7 20 18 40 30.0000000  0  8G22G20G11G19G15G14G25G 1
  23107372.187    12559781.43249   9753701.20346  23107371.869    23107373.748
  24540300.211    -6368847.01049  -4943773.83745  24540299.504    24540305.059
  21705720.278   -19739918.28449 -15084099.04947  21705719.863    21705722.329
  23432814.068     3278385.55849   2567352.00046  23432813.051    23432816.710
  23515398.104    17509598.19549  13643714.84745  23515397.368    23515403.107
  21124426.031    -1524892.18649  -1177165.20647  21124425.445    21124427.721
  21840293.290   -18830355.99249 -14640737.55047  21840293.000    21840296.782
  24249283.524    -8021952.65049  -5934701.09445  24249283.011    24249289.740
 04  7 20 18 41  0.0000000  0  8G22G20G11G19G15G14G25G 1
  23120863.951    12630681.16649   9808947.68746  23120863.639    23120865.531
  24523514.459    -6457056.51149  -5012508.43645  24523513.815    24523519.300
  21695639.472   -19792892.98449 -15125378.01647  21695639.092    21695641.560
  23447748.259     3356864.76849   2628504.56946  23447747.232    23447750.890
  23536885.585    17622515.51749  13731702.26145  23536884.883    23536890.682
  21135847.301    -1464872.51849  -1130396.64947  21135846.778    21135849.072
  21826489.619   -18902894.77249 -14697261.23447  21826489.336    21826493.055
  24231258.152    -8116676.14649  -6008511.51145  24231257.580    24231264.417
 04  7 20 18 41 30.0000000  0  8G22G20G11G19G15G14G25G 1
  23134381.692    12701717.57349   9864300.68546  23134381.421    23134383.225
  24506729.764    -6545260.43949  -5081238.65545  24506729.005    24506734.712
  21685645.493   -19845411.64449 -15166301.62447  21685645.150    21685647.617
  23462728.329     3435585.52149   2689845.35446  23462727.252    23462731.012
  23558406.466    17735608.37249  13819826.44845  23558405.705    23558411.582
  21147324.799    -1404558.32349  -1083398.56647  21147324.202    21147326.402
  21812759.517   -18975046.91249 -14753483.64647  21812759.231    21812762.915
  24213264.935    -8211230.89449  -6082190.41945  24213264.227    24213271.147
 04  7 20 18 42  0.0000000  0  8G22G20G11G19G15G14G25G 1
  23147925.600    12772891.05949   9919760.53446  23147925.315    23147927.039
  24489946.239    -6633458.02449  -5149963.94045  24489945.483    24489951.205
  21675738.781   -19897471.89349 -15206868.03847  21675738.379    21675740.837
  23477753.939     3514545.39049   2751372.48046  23477752.820    23477756.642
  23579960.275    17848874.81349  13908085.89445  23579959.523    23579965.690
  21158857.839    -1343951.21049  -1036172.27247  21158857.317    21158859.603
  21799103.421   -19046809.96249 -14809402.87247  21799103.145    21799106.807
  24195304.118    -8305615.42649  -6155736.69345  24195303.350    24195310.407
 04  7 20 18 42 30.0000000  0  8G22G20G11G19G15G14G25G 1
  23161495.534    12844201.06349   9975326.74446  23161495.220    23161496.843
  24473164.118    -6721649.31249  -5218684.34445  24473163.361    24473168.978
  21665919.446   -19949072.59249 -15247076.36147  21665919.066    21665921.511
  23492824.275     3593740.50049   2813082.89646  23492823.227    23492827.008
  23601546.715    17962312.31849  13996478.61045  23601545.909    23601552.341
  21170446.347    -1283053.81649   -988719.77547  21170445.735    21170448.039
  21785521.776   -19118182.20949 -14865017.57747  21785521.497    21785525.083
  24177375.755    -8399829.29149  -6229150.01345  24177375.091    24177382.005
 04  7 20 18 43  0.0000000  0  8G22G20G11G19G15G14G25G 1
  23175091.459    12915647.20249  10030999.01746  23175091.118    23175092.666
  24456383.226    -6809833.64049  -5287399.32245  24456382.409    24456388.110
  21656187.902   -20000212.12449 -15286925.32847  21656187.533    21656189.986
  23507938.837     3673167.66749   2874974.14346  23507937.763    23507941.557
  23623165.451    18075918.61149  14085002.88245  23623164.573    23623171.018
  21182089.608    -1221868.10749   -941042.58947  21182089.055    21182091.186
  21772014.898   -19189161.39049 -14920325.99747  21772014.598    21772018.155
  24159480.120    -8493871.47649  -6302429.54445  24159479.370    24159486.422
 04  7 20 18 43 30.0000000  0  8G22G20G11G19G15G14G25G 1
  23188713.219    12987229.71849  10086777.54746  23188712.888    23188714.492
  24439603.790    -6898010.23049  -5356108.26245  24439602.945    24439608.503
  21646544.585   -20050888.16349 -15326413.13347  21646544.229    21646546.632
  23523096.952     3752824.26949   2937044.16546  23523095.950    23523099.713
  23644815.771    18189691.66549  14173657.09245  23644814.935    23644821.546
  21193787.459    -1160395.68349   -893142.03347  21193786.837    21193789.135
  21758583.261   -19259744.99749 -14975326.18047  21758582.947    21758586.523
  24141617.404    -8587740.62549  -6375574.25445  24141616.606    24141623.646
 04  7 20 18 44  0.0000000  0  8G22G20G11G19G15G14G25G 1
  23202360.940    13058948.16949  10142662.01046  23202360.570    23202362.118
  24422825.701    -6986179.01349  -5424811.12445  24422824.841    24422830.459
  21636989.611   -20101099.67149 -15365538.96447  21636989.264    21636991.685
  23538298.126     3832706.78849   2999290.23146  23538297.106    23538300.957
  23666497.411    18303628.92349  14262439.26045  23666496.575    23666503.246
  21205539.381    -1098639.06349   -845019.98447  21205538.811    21205540.938
  21745227.313   -19329930.92649 -15030016.47947  21745226.993    21745230.561
  24123787.619    -8681436.20849  -6448583.71445  24123786.741    24123793.652
 04  7 20 18 44 30.0000000  0  8G22G20G11G19G15G14G25G 1
  23216034.536    13130803.14249  10198652.86446  23216034.154    23216035.778
  24406049.321    -7074338.61349  -5493506.81845  24406048.384    24406054.194
  21627523.659   -20150843.71849 -15404300.54247  21627523.307    21627525.728
  23553541.854     3912812.88849   3061710.51246  23553540.813    23553544.754
  23688210.028    18417728.66449  14351348.03045  23688209.214    23688215.849
  21217345.005    -1036599.66149   -796677.62347  21217344.408    21217346.734
  21731947.545   -19399716.13649 -15084394.53147  21731947.236    21731950.795
  24105991.155    -8774956.22549  -6521456.36545  24105990.410    24105997.261
 04  7 20 18 45  0.0000000  0  8G22G20G11G19G15G14G25G 1
  23229733.846    13202794.11349  10254749.67246  23229733.470    23229735.291
  24389274.799    -7162488.91449  -5562195.28045  24389273.957    24389279.628
  21618146.946   -20200118.80849 -15442696.70747  21618146.598    21618148.998
  23568827.540     3993139.16549   3124302.36446  23568826.490    23568830.351
  23709953.179    18531988.59349  14440381.62945  23709952.282    23709958.889
  21229204.161     -974279.70549   -748116.61647  21229203.608    21229205.801
  21718744.496   -19469098.75849 -15138458.88547  21718744.156    21718747.690
  24088228.434    -8868300.00449  -6594191.68345  24088227.617    24088234.492
 04  7 20 18 45 30.0000000  0  8G22G20G11G19G15G14G25G 1
  23243459.148    13274921.25949  10310952.56146  23243458.868    23243460.707
  24372502.195    -7250629.00849  -5630875.78045  24372501.248    24372507.141
  21608859.791   -20248923.18349 -15480726.07547  21608859.408    21608861.817
  23584154.535     4073682.63649   3187063.45346  23584153.481    23584157.299
  23731726.288    18646406.60949  14529538.40645  23731725.448    23731731.945
  21241116.334     -911680.79949   -699338.27047  21241115.742    21241118.023
  21705618.535   -19538076.27049 -15192207.56147  21705618.193    21705621.693
  24070499.454    -8961466.37349  -6666788.75645  24070498.701    24070505.453
 04  7 20 18 46  0.0000000  0  8G22G20G11G19G15G14G25G 1
  23257210.473    13347184.46049  10367261.46646  23257210.168    23257211.953
  24355731.576    -7338758.21849  -5699547.78645  24355730.678    24355736.559
  21599662.615   -20297254.88849 -15518387.13147  21599662.225    21599664.613
  23599522.215     4154440.34149   3249991.47946  23599521.231    23599525.011
  23753529.195    18760980.71549  14618816.81645  23753528.264    23753534.794
  21253081.242     -848805.02349   -650344.17647  21253080.718    21253082.944
  21692569.993   -19606646.56249 -15245638.92847  21692569.667    21692573.148
  24052804.303    -9054454.22149  -6739246.72245  24052803.581    24052810.464
 04  7 20 18 46 30.0000000  0  8G22G20G11G19G15G14G25G 1
  23270987.588    13419583.25949  10423676.06446  23270987.290    23270989.076
  24338963.111    -7426876.38249  -5768211.18945  24338962.367    24338968.135
  21590555.572   -20345112.56149 -15555678.80747  21590555.180    21590557.565
  23614930.090     4235408.87249   3313083.78746  23614929.115    23614932.900
  23775361.177    18875708.15349  14708214.72245  23775360.310    23775366.873
  21265098.385     -785654.69749   -601136.13847  21265097.740    21265099.962
  21679599.366   -19674807.64449 -15298751.41847  21679599.036    21679602.528
  24035143.149    -9147263.00149  -6811565.16845  24035142.567    24035149.425
 04  7 20 18 47  0.0000000  0  8G22G20G11G19G15G14G25G 1
  23284790.258    13492116.42749  10480195.40046  23284789.964    23284791.741
  24322196.860    -7514984.07749  -5836866.45945  24322196.193    24322201.705
  21581538.792   -20392495.71849 -15592600.73347  21581538.442    21581540.821
  23630377.236     4316584.00849   3376337.07546  23630376.271    23630380.073
  23797221.830    18990585.84549  14797729.69145  23797220.837    23797227.408
  21277167.113     -722232.97849   -551716.63847  21277166.564    21277168.755
  21666706.806   -19742558.32749 -15351544.12047  21666706.481    21666710.005
  24017516.259    -9239892.79849  -6883744.13145  24017515.660    24017522.520
 04  7 20 18 47 30.0000000  0  8G22G20G11G19G15G14G25G 1
  23298618.679    13564785.07149  10536820.33046  23298618.382    23298620.135
  24305432.744    -7603079.54149  -5905512.21145  24305432.090    24305437.477
  21572612.968   -20439401.47349 -15629150.65847  21572612.581    21572614.968
  23645863.275     4397963.69349   3439749.74746  23645862.330    23645866.180
  23819110.635    19105612.32449  14887360.61745  23819109.863    23819116.376
  21289287.394     -658540.53149   -502086.17647  21289286.774    21289289.019
  21653892.915   -19809895.65349 -15404014.72847  21653892.592    21653896.090
  23999923.889    -9332341.29649  -6955781.82645  23999923.208    23999930.089
 04  7 20 18 48  0.0000000  0  8G22G20G11G19G15G14G25G 1
  23312472.840    13637589.08949  10593550.69346  23312472.471    23312474.277
  24288670.959    -7691161.86049  -5974147.69745  24288670.294    24288675.925
  21563778.276   -20485827.85749 -15665327.04247  21563777.897    21563780.324
  23661387.811     4479545.12649   3503319.62246  23661386.832    23661390.721
  23841027.530    19220785.97249  14977106.18045  23841026.780    23841033.351
  21301458.893     -594579.00249   -452246.03547  21301458.337    21301460.519
  21641158.247   -19876816.79349 -15456161.03047  21641157.948    21641161.434
  23982366.167    -9424607.30949  -7027677.32445  23982365.624    23982372.399
 04  7 20 18 48 30.0000000  0  8G22G20G11G19G15G14G25G 1
  23326352.668    13710528.83949  10650386.74646  23326352.323    23326354.322
  24271912.008    -7779230.50149  -6042772.52545  24271911.276    24271916.898
  21555035.213   -20531772.75549 -15701128.24847  21555034.840    21555037.255
  23676950.197     4561325.56649   3567044.56446  23676949.189    23676953.112
  23862972.109    19336104.62349  15066964.74545  23862971.259    23862977.953
  21313681.177     -530350.41149   -402197.80747  21313680.616    21313682.871
  21628503.218   -19943319.39049 -15507981.19347  21628502.879    21628506.354
  23964843.447    -9516689.56749  -7099429.64145  23964842.855    23964849.533
 04  7 20 18 49  0.0000000  0  8G22G20G11G19G15G14G25G 1
  23340258.346    13783603.59049  10707328.00646  23340257.996    23340260.124
  24255155.867    -7867285.04549  -6111386.38045  24255155.086    24255160.626
  21546383.989   -20577235.13649 -15736553.46447  21546383.639    21546385.967
  23692549.778     4643301.11249   3630921.54646  23692548.670    23692552.684
  23884943.548    19451565.49749  15156934.12945  23884942.728    23884949.464
  21325953.951     -465857.01249   -351943.21847  21325953.370    21325955.515
  21615928.118   -20009401.88649 -15559474.00647  21615927.775    21615931.228
  23947355.557    -9608587.69249  -7171038.47145  23947355.111    23947361.900
 04  7 20 18 49 30.0000000  0  8G22G20G11G19G15G14G25G 1
  23354189.530    13856812.12249  10764373.55046  23354189.231    23354191.307
  24238402.487    -7955325.92949  -6179989.59445  24238401.554    24238406.968
  21537824.689   -20622214.42949 -15771602.24547  21537824.334    21537826.608
  23708185.613     4725467.96449   3694947.60246  23708184.515    23708188.599
  23906941.620    19567165.62449  15247012.00745  23906940.740    23906947.508
  21338276.474     -401101.69949   -301484.54847  21338275.869    21338278.018
  21603433.234   -20075062.88049 -15610638.37447  21603432.895    21603436.291
  23929902.860    -9700301.54549  -7242503.72845  23929902.464    23929909.211
 04  7 20 18 50  0.0000000  0  8G22G20G11G19G15G14G25G 1
  23368146.508    13930156.22349  10821524.75646  23368146.239    23368148.327
  24221651.900    -8043350.65649  -6248580.23345  24221651.020    24221656.415
  21529358.028   -20666707.10849 -15806271.84547  21529357.666    21529359.927
  23723857.516     4807824.75049   3759121.65446  23723856.475    23723860.579
  23928965.948    19682904.37849  15337197.93645  23928965.162    23928971.871
  21350648.801     -336084.82849   -250822.08247  21350648.214    21350650.444
  21591019.208   -20140298.96949 -15661471.64647  21591018.839    21591022.231
  23912485.872    -9791828.42449  -7313823.26645  23912485.302    23912492.200
 04  7 20 18 50 30.0000000  0  8G22G20G11G19G15G14G25G 1
  23382128.929    14003633.83249  10878779.99646  23382128.718    23382130.654
  24204903.926    -8131360.50249  -6317159.27145  24204903.165    24204908.569
  21520983.987   -20710713.18149 -15840562.27347  21520983.593    21520985.831
  23739564.791     4890366.53049   3823439.83246  23739563.622    23739567.810
  23951016.033    19798778.06049  15427489.00445  23951015.267    23951022.049
  21363070.241     -270810.02549   -199958.60247  21363069.595    21363071.778
  21578686.100   -20205109.24749 -15711973.11647  21578685.787    21578689.221
  23895104.220    -9883169.11849  -7384997.75845  23895103.734    23895110.518
 04  7 20 18 51  0.0000000  0  8G22G20G11G19G15G14G25G 1
  23396137.044    14077246.20349  10936140.25346  23396136.771    23396138.615
  24188159.424    -8219353.60249  -6385725.29645  24188158.516    24188164.032
  21512703.071   -20754229.73249 -15874471.25947  21512702.666    21512704.930
  23755306.774     4973091.43849   3887900.75046  23755305.684    23755309.809
  23973091.667    19914785.49049  15517884.29545  23973090.974    23973097.579
  21375540.482     -205278.02849   -148894.72347  21375539.951    21375542.129
  21566434.721   -20269490.55749 -15762140.32147  21566434.378    21566437.812
  23877758.538    -9974321.19449  -7456025.27345  23877758.062    23877764.759
 04  7 20 18 51 30.0000000  0  8G22G20G11G19G15G14G25G 1
  23410170.619    14150993.00949  10993605.29346  23410170.366    23410172.096
  24171418.198    -8307329.49149  -6454277.86445  24171417.236    24171422.637
  21504515.384   -20797255.97049 -15907998.18547  21504515.014    21504517.312
  23771083.095     5055996.22449   3952501.81546  23771082.072    23771086.158
  23995192.153    20030923.98649  15608381.71045  23995191.414    23995198.092
  21388059.461     -139491.05649    -97632.17347  21388058.795    21388061.049
  21554265.271   -20333441.16149 -15811971.90847  21554264.913    21554268.334
  23860448.829   -10065284.16549  -7526905.41445  23860448.216    23860454.937
 04  7 20 18 52  0.0000000  0  8G22G20G11G19G15G14G25G 1
  23424229.496    14224873.30249  11051174.30446  23424229.264    23424231.001
  24154680.204    -8395288.29549  -6522817.14545  24154679.293    24154684.597
  21496421.327   -20839790.51649 -15941141.97147  21496420.937    21496423.291
  23786892.981     5139076.88149   4017239.92346  23786891.917    23786895.954
  24017317.144    20147190.43349  15698978.82645  24017316.337    24017323.023
  21400626.180      -73451.80349    -46173.02947  21400625.615    21400627.838
  21542178.044   -20396959.73549 -15861466.85547  21542177.711    21542181.120
  23843175.146   -10156057.92749  -7597638.12945  23843174.594    23843181.158
 04  7 20 18 52 30.0000000  0  8G22G20G11G19G15G14G25G 1
  23438313.945    14298888.24049  11108848.20946  23438313.813    23438315.676
  24137945.739    -8483228.12049  -6591341.58845  24137944.769    24137950.197
  21488421.316   -20881830.68049 -15973900.53147  21488420.926    21488423.305
  23802736.053     5222331.81449   4082113.83046  23802734.949    23802738.984
  24039466.312    20263584.32549  15789675.23245  24039465.524    24039472.260
  21413241.052       -7160.91149      5482.20047  21413240.462    21413242.622
  21530173.703   -20460042.69949 -15910622.37047  21530173.351    21530176.775
  23825937.949   -10246640.03649  -7668221.51945  23825937.287    23825943.764
 04  7 20 18 53  0.0000000  0  8G22G20G11G19G15G14G25G 1
  23452424.062    14373037.03549  11166626.41646  23452423.905    23452425.893
  24121214.826    -8571149.01749  -6659851.30945  24121213.931    24121219.253
  21480515.561   -20923375.78049 -16006273.33047  21480515.169    21480517.517
  23818611.458     5305757.25249   4147120.62245  23818610.389    23818614.351
  24061639.107    20380102.59249  15880468.56845  24061638.344    24061645.085
  21425903.112       59379.01049     57331.45747  21425902.497    21425904.767
  21518252.442   -20522689.06849 -15959437.67947  21518252.084    21518255.525
  23808737.157   -10337030.26049  -7738655.38545  23808736.585    23808743.011
 04  7 20 18 53 30.0000000  0  8G22G20G11G19G15G14G25G 1
  23466559.562    14447319.09849  11224508.47546  23466559.369    23466561.402
  24104487.585    -8659050.56049  -6728345.93145  24104486.841    24104492.120
  21472704.308   -20964424.14249 -16038259.05347  21472703.916    21472706.229
  23834518.612     5389349.44549   4212257.33945  23834517.547    23834521.419
  24083835.115    20496742.68349  15971356.80845  24083834.209    24083841.142
  21438612.206      126165.48849    109372.85647  21438611.628    21438613.878
  21506414.633   -20584896.90149 -16007911.27347  21506414.309    21506417.745
  23791573.102   -10427228.20649  -7808939.40845  23791572.597    23791578.825
 04  7 20 18 54  0.0000000  0  8G22G20G11G19G15G14G25G 1
  23480720.447    14521734.51349  11282494.44546  23480720.226    23480722.283
  24087764.340    -8746931.77649  -6796824.72245  24087763.558    24087768.914
  21464987.894   -21004974.15149 -16069856.44847  21464987.528    21464989.799
  23850456.991     5473105.66649   4277521.86545  23850455.843    23850459.711
  24106053.687    20613502.43049  16062338.29845  24106052.936    24106059.794
  21451367.927      193197.25049    161605.38747  21451367.298    21451369.530
  21494660.648   -20646663.98149 -16056041.42147  21494660.336    21494663.807
  23774445.822   -10517232.57449  -7879072.62345  23774445.324    23774451.459
 04  7 20 18 54 30.0000000  0  8G22G20G11G19G15G14G25G 1
  23494906.771    14596283.36749  11340584.40846  23494906.535    23494908.524
  24071044.983    -8834791.83949  -6865287.02645  24071044.332    24071049.648
  21457366.629   -21045024.24849 -16101064.31047  21457366.234    21457368.485
  23866425.900     5557022.99449   4342911.93645  23866424.788    23866428.699
  24128294.810    20730379.87049  16153411.50545  24128294.129    24128300.934
  21464169.925      260472.43649    214027.57047  21464169.414    21464171.728
  21482991.073   -20707987.92649 -16103826.26847  21482990.745    21482994.207
  23757355.606   -10607042.23249  -7949054.09145  23757355.096    23757361.168
 04  7 20 18 55  0.0000000  0  8G22G20G11G19G15G14G25G 1
  23509118.498    14670965.88349  11398778.52646  23509118.216    23509120.156
  24054329.900    -8922629.96449  -6933732.23245  24054329.285    24054334.511
  21449840.774   -21084572.72649 -16131881.28947  21449840.404    21449842.660
  23882425.035     5641098.76649   4408425.46045  23882423.922    23882427.862
  24150558.115    20847373.07449  16244574.91145  24150557.337    24150564.074
  21477018.072      327989.22849    266638.04647  21477017.441    21477019.692
  21471406.138   -20768866.72349 -16151264.24347  21471405.825    21471409.319
  23740302.521   -10696655.94649  -8018882.88845  23740302.041    23740308.137
 04  7 20 18 55 30.0000000  0  8G22G20G11G19G15G14G25G 1
  23523355.400    14745781.12249  11457076.06246  23523355.090    23523357.020
  24037619.060    -9010445.97949  -7002160.22745  24037618.443    24037623.528
  21442410.526   -21123619.00049 -16162306.94247  21442410.138    21442412.386
  23898453.575     5725328.89949   4474059.26345  23898452.495    23898456.399
  24172842.778    20964478.95449  16335826.10845  24172842.049    24172848.803
  21489911.518      395745.07149    319434.77447  21489910.974    21489913.196
  21459906.246   -20829299.10049 -16198354.35947  21459905.946    21459909.400
  23723286.793   -10786073.79249  -8088559.06145  23723286.301    23723292.368
 04  7 20 18 56  0.0000000  0  8G22G20G11G19G15G14G25G 1
  23537617.701    14820729.76049  11515477.54245  23537617.426    23537619.195
  24020912.587    -9098238.63049  -7070569.99545  24020911.909    24020917.074
  21435076.319   -21162160.66249 -16192339.39947  21435075.886    21435078.136
  23914510.999     5809711.06249   4539811.53145  23914509.959    23914513.905
  24195148.658    21081695.89449  16427163.87545  24195147.917    24195154.556
  21502850.370      463738.55949    372416.69047  21502849.767    21502851.973
  21448491.864   -20889282.19849 -16245094.39247  21448491.548    21448494.967
  23706308.646   -10875294.20849  -8158081.38045  23706308.234    23706314.254
 04  7 20 18 56 30.0000000  0  8G22G20G11G19G15G14G25G 1
  23551905.363    14895811.12349  11573982.48845  23551904.987    23551906.518
  24004210.758    -9186007.53549  -7138961.26445  24004210.061    24004215.185
  21427838.283   -21200196.56849 -16221977.75347  21427837.907    21427840.153
  23930596.789     5894241.69149   4605679.49945  23930595.693    23930599.684
  24217474.935    21199021.38749  16518586.23145  24217474.311    24217480.908
  21515833.812      531967.61949    425582.15947  21515833.259    21515835.524
  21437163.121   -20948814.97449 -16291483.52247  21437162.821    21437166.207
  23689368.106   -10964316.64549  -8227449.42345  23689367.712    23689373.823
 04  7 20 18 57  0.0000000  0  8G22G20G11G19G15G14G25G 1
  23566218.123    14971025.07049  11632590.73445  23566217.698    23566219.403
  23987513.612    -9273751.85149  -7207333.39245  23987512.840    23987517.810
  21420696.783   -21237725.26749 -16251220.88447  21420696.411    21420698.670
  23946710.047     5978918.02649   4671660.98545  23946709.038    23946713.147
  24239821.652    21316453.40049  16610091.54045  24239820.861    24239827.574
  21528861.908      600430.53749    478929.86547  21528861.330    21528863.703
  21425920.511   -21007895.26449 -16337520.06547  21425920.214    21425923.567
  23672465.486   -11053140.07349  -8296662.38545  23672465.103    23672471.157
 04  7 20 18 57 30.0000000  0  8G22G20G11G19G15G14G25G 1
  23580555.894    15046370.95649  11691301.74845  23580555.472    23580557.376
  23970821.070    -9361471.74649  -7275686.46845  23970820.296    23970825.102
  21413651.961   -21274745.84849 -16280068.07647  21413651.608    21413653.868
  23962850.409     6063736.12749   4737752.94645  23962849.454    23962853.621
  24262188.079    21433988.93549  16701677.53445  24262187.188    24262193.989
  21541933.966      669124.56649    532457.64947  21541933.350    21541935.711
  21414764.251   -21066521.70249 -16383202.95547  21414763.937    21414767.267
  23655600.810   -11141764.32349  -8365720.15845  23655600.299    23655606.400
 04  7 20 18 58  0.0000000  0  8G22G20G11G19G15G14G25G 1
  23594918.925    15121850.26649  11750116.71845  23594918.688    23594920.751
  23954133.611    -9449164.60849  -7344018.49945  23954132.839    23954137.668
  21406704.349   -21311255.52349 -16308517.16347  21406704.027    21406706.318
  23979017.507     6148694.59549   4803954.29045  23979016.562    23979020.726
  24284573.719    21551627.45749  16793343.76945  24284573.170    24284580.095
  21555049.951      738049.38749    586165.27947  21555049.380    21555051.712
  21403695.062   -21124690.61049 -16428529.33447  21403694.750    21403698.051
  23638774.503   -11230186.74349  -8434620.64145  23638773.938    23638780.177
 04  7 20 18 58 30.0000000  0  8G22G20G11G19G15G14G25G 1
  23609307.454    15197461.65949  11809034.62346  23609307.177    23609309.216
  23937451.295    -9536830.95949  -7412329.87645  23937450.388    23937455.296
  21399854.103   -21347254.01349 -16336567.92647  21399853.739    21399856.027
  23995210.413     6233789.14549   4870261.66045  23995209.492    23995213.767
  24306978.601    21669365.25349  16885087.36545  24306977.909    24306985.021
  21568209.370      807202.18949    640050.55247  21568208.810    21568211.086
  21392713.008   -21182401.55749 -16473498.85447  21392712.693    21392715.946
  23621986.402   -11318407.68049  -8503364.14245  23621985.910    23621992.165
 04  7 20 18 59  0.0000000  0  8G22G20G11G19G15G14G25G 1
  23623721.003    15273204.92849  11868055.29846  23623720.698    23623722.799
  23920774.042    -9624470.09949  -7480620.06645  23920773.183    23920778.133
  21393101.359   -21382740.04649 -16364219.37047  21393100.974    21393103.260
  24011428.739     6319016.60249   4936672.59845  24011427.754    24011432.107
  24329402.068    21787200.41249  16976906.82545  24329401.216    24329408.391
  21581411.728      876580.96349    694111.90147  21581411.200    21581413.435
  21381818.457   -21239652.53549 -16518109.96447  21381818.155    21381821.435
  23605236.875   -11406426.30749  -8571949.97745  23605236.415    23605242.774
 04  7 20 18 59 30.0000000  0  8G22G20G11G19G15G14G25G 1
  23638159.460    15349079.53349  11927178.30046  23638159.213    23638161.323
  23904101.994    -9712081.70649  -7548888.76945  23904101.166    23904106.140
  21386446.311   -21417712.59249 -16391470.69047  21386445.912    21386448.217
  24027671.725     6404373.45349   5003184.35845  24027670.670    24027674.976
  24351843.376    21905129.96149  17068799.84645  24351842.718    24351849.646
  21594656.702      946183.19749    748347.40047  21594656.150    21594658.285
  21371011.700   -21296442.14749 -16562361.56347  21371011.397    21371014.687
  23588526.014   -11494242.33049  -8640377.96745  23588525.524    23588531.849
 04  7 20 19  0  0.0000000  0  8G22G20G11G19G15G14G25G 1
  23652623.101    15425086.26749  11986404.26446  23652622.899    23652625.053
  23887435.512    -9799663.89649  -7617134.55445  23887434.723    23887439.767
  21379889.431   -21452169.08849 -16418319.89647  21379889.071    21379891.398
  24043938.790     6489857.83549   5069795.47445  24043937.788    24043942.148
  24374302.473    22023153.13849  17160765.82545  24374301.932    24374308.837
  21607943.760     1016008.37949    802756.57447  21607943.291    21607945.645
  21360293.352   -21352767.38449 -16606251.31647  21360293.067    21360296.307
  23571854.198   -11581853.58049  -8708646.39145  23571853.605    23571859.938
 04  7 20 19  0 30.0000000  0  8G22G20G11G19G15G14G25G 1
  23667111.984    15501224.49249  12045732.68246  23667111.659    23667113.795
  23870774.469    -9887216.67749  -7685357.41445  23870773.837    23870778.953
  21373430.881   -21486109.12849 -16444766.67147  21373430.502    21373432.830
  24060229.583     6575465.90949   5136502.99645  24060228.540    24060232.876
  24396778.939    22141266.78249  17252802.29045  24396778.262    24396785.058
  21621273.230     1086053.88249    857337.48347  21621272.694    21621274.957
  21349663.610   -21408627.00849 -16649778.25347  21349663.306    21349666.540
  23555221.327   -11669259.96649  -8776755.16345  23555220.640    23555227.075
 04  7 20 19  1  0.0000000  0  8G22G20G11G19G15G14G25G 1
  23681625.630    15577493.50049  12105163.01446  23681625.262    23681627.357
  23854119.415    -9974739.71749  -7753557.10545  23854118.757    23854123.837
  21367070.755   -21519531.79449 -16470810.29547  21367070.365    21367072.709
  24076543.208     6661193.99349   5203304.03745  24076542.097    24076546.482
  24419272.130    22259467.94549  17344906.94245  24419271.240    24419278.341
  21634643.821     1156317.29749    912088.13447  21634643.198    21634645.649
  21339122.655   -21464020.03549 -16692941.61147  21339122.333    21339125.596
  23538627.381   -11756461.33449  -8844704.21145  23538626.778    23538633.107
 04  7 20 19  1 30.0000000  0  8G22G20G11G19G15G14G25G 1
  23696164.209    15653894.19949  12164695.94846  23696163.887    23696165.922
  23837470.277   -10062231.30449  -7821732.30745  23837469.573    23837474.734
  21360809.497   -21552434.86249 -16496449.04147  21360809.090    21360811.421
  24092879.216     6747040.07549   5270197.02545  24092878.078    24092882.485
  24441781.381    22377755.55349  17437078.97945  24441780.628    24441787.894
  21648055.831     1226797.69649    967007.94247  21648055.333    21648057.503
  21328670.958   -21518943.79649 -16735739.31647  21328670.659    21328673.951
  23522072.819   -11843455.85649  -8912492.06745  23522072.288    23522078.471
 04  7 20 19  2  0.0000000  0  8G22G20G11G19G15G14G25G 1
  23710727.877    15730425.93749  12224331.00746  23710727.465    23710729.566
  23820827.108   -10149691.00949  -7889882.63545  23820826.475    23820831.746
  21354647.319   -21584817.36849 -16521682.14847  21354646.956    21354649.255
  24109237.005     6833000.74249   5337179.30045  24109235.943    24109240.222
  24464306.609    22496127.06349  17529316.35745  24464305.944    24464313.224
  21661508.961     1297493.03049   1022095.17147  21661508.300    21661510.611
  21318308.872   -21573396.59449 -16778170.02947  21318308.562    21318311.888
  23505557.730   -11930243.03949  -8980118.37745  23505557.182    23505563.336
 04  7 20 19  2 30.0000000  0  8G22G20G11G19G15G14G25G 1
  23725316.238    15807088.38949  12284067.90946  23725315.846    23725318.060
  23804190.254   -10237117.75149  -7958007.30745  23804189.683    23804194.858
  21348584.425   -21616678.03649 -16546508.63647  21348584.053    21348586.340
  24125616.031     6919072.88349   5404248.43545  24125615.054    24125619.281
  24486847.466    22614580.09549  17621617.29745  24486846.839    24486854.083
  21675002.179     1368401.44649   1077348.39747  21675001.608    21675004.108
  21308036.726   -21627376.97349 -16820232.62647  21308036.413    21308039.724
  23489082.241   -12016821.98149  -9047582.42145  23489081.687    23489087.808
 04  7 20 19  3  0.0000000  0  8G22G20G11G19G15G14G25G 1
  23739929.619    15883881.71349  12343906.80946  23739929.149    23739931.453
  23787559.879   -10324511.14249  -8026105.97045  23787559.195    23787564.365
  21342621.096   -21648015.53249 -16570927.44947  21342620.711    21342623.002
  24142015.854     7005253.55549   5471402.13645  24142014.751    24142018.930
  24509403.538    22733112.57449  17713980.09945  24509402.924    24509410.389
  21688535.973     1439521.09349   1132766.34547  21688535.419    21688537.523
  21297854.844   -21680882.90349 -16861925.51847  21297854.542    21297857.835
  23472646.503   -12103191.92549  -9114883.60945  23472645.986    23472652.004
 04  7 20 19  3 30.0000000  0  8G22G20G11G19G15G14G25G 1
  23754567.793    15960805.05349  12403847.03046  23754567.255    23754569.556
  23770935.927   -10411870.43749  -8094178.10145  23770935.165    23770940.339
  21336757.470   -21678829.25149 -16594938.12847  21336757.041    21336759.351
  24158435.489     7091539.34349   5538637.74745  24158434.423    24158438.632
  24531974.230    22851721.85049  17806402.77845  24531973.728    24531981.132
  21702109.439     1510849.76749   1188347.08547  21702108.813    21702111.152
  21287763.523   -21733912.92549 -16903247.57947  21287763.228    21287766.455
  23456250.666   -12189352.47749  -9182021.62145  23456250.136    23456256.101
 04  7 20 19  4  0.0000000  0  7G22G20G11G19G14G25G 1
  23769230.845    16037860.01449  12463889.80746  23769230.394    23769232.680
  23754318.855   -10499193.50849  -8162221.98745  23754317.998    23754323.196
  21330993.946   -21709116.61249 -16618538.65847  21330993.560    21330995.830
  24174874.803     7177928.25249   5605953.71945  24174873.743    24174877.997
  21715722.297     1582386.89349   1244090.21947  21715721.729    21715724.370
  21277763.345   -21786464.23549 -16944196.62047  21277763.031    21277766.232
  23439894.972   -12275301.34749  -9248994.69945  23439894.539    23439900.454
 04  7 20 19  4 30.0000000  0  7G22G20G11G19G14G25G 1
  23783919.052    16115046.39249  12524034.99646  23783918.615    23783920.747
  23737708.758   -10586479.19149  -8230236.73545  23737707.987    23737713.174
  21325330.912   -21738876.12449 -16641727.87847  21325330.511    21325332.784
  24191333.307     7264417.62549   5673347.96345  24191332.239    24191336.538
  21729374.945     1654131.06949   1299994.81747  21729374.377    21729376.597
  21267854.677   -21838534.43949 -16984770.77247  21267854.391    21267857.567
  23423579.924   -12361037.52949  -9315802.03845  23423579.463    23423585.348
 04  7 20 19  5  0.0000000  0  7G22G20G11G19G14G25G 1
  23798631.760    16192361.74249  12584280.67946  23798631.290    23798633.303
  23721105.583   -10673729.34749  -8298223.79245  23721104.771    23721110.018
  21319768.082   -21768108.97849 -16664506.71647  21319767.702    21319769.991
  24207809.984     7351002.24349   5740816.43245  24207808.842    24207813.056
  21743066.066     1726078.06749   1356057.39247  21743065.440    21743067.626
  21258037.376   -21890124.69849 -17024970.94947  21258037.087    21258040.238
  23407304.973   -12446562.70849  -9382444.97945  23407304.490    23407310.398
 04  7 20 19  5 30.0000000  0  7G22G20G11G19G14G25G 1
  23813368.962    16269806.42049  12644627.15646  23813368.507    23813370.492
  23704509.418   -10760942.44449  -8366181.97645  23704508.670    23704513.849
  21314305.824   -21796813.22449 -16686873.65747  21314305.433    21314307.773
  24224304.017     7437679.44049   5808357.03545  24224302.924    24224307.149
  21756795.332     1798226.77649   1412277.08647  21756794.834    21756797.311
  21248311.806   -21941232.85949 -17064795.46447  21248311.520    21248314.680
  23391070.423   -12531875.51849  -9448922.41845  23391069.939    23391075.874
 04  7 20 19  6  0.0000000  0  7G22G20G11G19G14G25G 1
  23828130.908    16347380.95449  12705074.76146  23828130.449    23828132.519
  23687920.501   -10848116.98449  -8434110.10245  23687919.785    23687924.995
  21308944.414   -21824987.47549 -16708827.60947  21308944.025    21308946.364
  24240815.110     7524446.65349   5875967.78445  24240814.083    24240818.553
  21770563.085     1870575.84449   1468652.95947  21770562.493    21770564.955
  21238678.379   -21991856.74249 -17104242.62047  21238678.089    21238681.268
  23374876.493   -12616974.74549  -9515233.43645  23374876.060    23374881.980
 04  7 20 19  6 30.0000000  0  7G22G20G11G19G14G25G 1
  23842917.184    16425084.64949  12765623.03445  23842916.833    23842919.181
  23671339.142   -10935252.56749  -8502007.88345  23671338.373    23671343.519
  21303684.041   -21852630.98749 -16730368.00447  21303683.657    21303685.973
  24257342.926     7611300.60249   5943646.10345  24257341.951    24257346.292
  21784368.313     1943122.96849   1525183.19947  21784367.707    21784370.027
  21229137.282   -22041995.26349 -17143311.57147  21229137.004    21229140.202
  23358723.316   -12701859.97949  -9581377.70345  23358722.943    23358728.785
 04  7 20 19  7  0.0000000  0  7G22G20G11G19G14G25G 1
  23857728.061    16502918.05149  12826272.31845  23857728.898    23857729.649
  23654765.504   -11022347.66549  -8569874.12245  23654764.717    23654769.789
  21298525.030   -21879742.03449 -16751493.49447  21298524.618    21298526.935
  24273886.917     7698238.70249   6011390.01845  24273885.788    24273890.163
  21798211.030     2015867.11949   1581866.94347  21798210.483    21798212.869
  21219689.124   -22091645.70349 -17182000.19947  21219688.835    21219692.034
  23342611.003   -12786529.79449  -9647354.11745  23342610.697    23342616.617
 04  7 20 19  7 30.0000000  0  7G22G20G11G19G14G25G 1
  23872563.944    16580880.07249  12887021.84645  23872564.098    23872566.171
  23638199.369   -11109402.36449  -8637708.88145  23638198.596    23638203.758
  21293467.296   -21906320.33049 -16772203.85247  21293466.920    21293469.223
  24290446.058     7785257.00949   6079196.41145  24290444.875    24290449.181
  21812090.772     2088805.55949   1638702.01947  21812090.194    21812092.836
  21210333.906   -22140807.67549 -17220308.19547  21210333.632    21210336.776
  23326539.892   -12870984.44249  -9713162.86946  23326539.533    23326545.380
 04  7 20 19  8  0.0000000  0  7G22G20G11G19G14G25G 1
  23887423.724    16658970.52149  12947871.40245  23887423.572    23887426.418
  23621641.310   -11196415.61649  -8705511.34445  23621640.479    23621645.607
  21288511.179   -21932364.78449 -16792498.23147  21288510.791    21288513.083
  24307019.882     7872352.62849   6147063.06745  24307018.800    24307023.059
  21826007.212     2161936.63249   1695687.26147  21826006.659    21826009.139
  21201071.968   -22189479.41349 -17258234.19047  21201071.654    21201074.779
  23310509.830   -12955223.01949  -9778803.25646  23310509.440    23310515.270
 04  7 20 19  8 30.0000000  0  7G22G20G11G19G14G25G 1
  23902308.196    16737189.91449  13008821.48245  23902308.176    23902311.140
  23605091.312   -11283385.95049  -8773280.35745  23605090.526    23605095.629
  21283656.943   -21957873.95449 -16812375.50047  21283656.541    21283658.832
  24323607.973     7959523.28449   6214988.19245  24323606.967    24323611.261
  21839960.035     2235259.25749   1752821.79747  21839959.451    21839961.701
  21191903.650   -22237659.02149 -17295776.70647  21191903.371    21191906.484
  23294521.198   -13039244.04149  -9844274.11446  23294520.749    23294526.579
 04  7 20 19  9  0.0000000  0  7G22G20G11G19G14G25G 1
  23917217.535    16815538.24749  13069872.05645  23917217.524    23917220.354
  23588549.666   -11370312.30349  -8841015.10345  23588548.868    23588554.066
  21278904.872   -21982846.38649 -16831834.53747  21278904.471    21278906.747
  24340209.796     8046766.17249   6282969.59745  24340208.814    24340213.169
  21853949.062     2308771.86549   1810104.30347  21853948.486    21853950.943
  21182829.413   -22285344.61349 -17332934.27547  21182829.103    21182832.216
  23278574.005   -13123046.62549  -9909574.78646  23278573.619    23278579.382
 04  7 20 19  9 30.0000000  0  7G22G20G11G19G14G25G 1
  23932151.128    16894013.64349  13131021.64945  23932151.096    23932153.777
  23572016.196   -11457195.53449  -8908716.25745  23572015.483    23572020.687
  21274254.777   -22007282.81049 -16850875.90247  21274254.370    21274256.606
  24356824.166     8134076.36749   6351003.42945  24356823.352    24356827.950
  21867973.529     2382470.94949   1867532.14047  21867972.958    21867975.445
  21173849.097   -22332536.29449 -17369706.97747  21173848.800    21173851.909
  23262668.230   -13206631.87649  -9974706.07346  23262667.801    23262673.570
 04  7 20 19 10  0.0000000  0  7G22G20G11G19G14G25G 1
  23947109.058    16972616.79149  13192270.81845  23947108.971    23947111.430
  23555491.578   -11544033.57349  -8976382.19545  23555490.793    23555495.849
  21269707.041   -22031181.33349 -16869498.12047  21269706.629    21269708.882
  24373451.260     8221451.91849   6419088.20045  24373450.421    24373454.929
  21882033.521     2456355.81649   1925104.76547  21882032.873    21882035.274
  21164963.282   -22379231.56549 -17406092.87347  21164962.991    21164966.095
  23246804.193   -13289998.01349 -10039666.64246  23246803.763    23246809.496
 04  7 20 19 10 30.0000000  0  7G22G20G11G19G14G25G 1
  23962091.142    17051347.38049  13253619.27945  23962091.070    23962093.448
  23538975.543   -11630825.86749  -9044012.49145  23538974.836    23538979.761
  21265261.789   -22054541.12249 -16887700.55047  21265261.386    21265263.636
  24390090.270     8308889.47349   6487221.27845  24390089.312    24390093.968
  21896128.210     2530424.33149   1982820.45547  21896127.547    21896130.117
  21156172.116   -22425429.56949 -17442091.28747  21156171.787    21156174.877
  23230981.876   -13373144.67349 -10104456.18046  23230981.347    23230987.116
 04  7 20 19 11  0.0000000  0  7G22G20G11G19G14G25G 1
  23977097.547    17130206.12049  13315067.59045  23977097.481    23977099.917
  23522468.562   -11717570.46949  -9111605.63645  23522467.834    23522472.813
  21260919.432   -22077360.26849 -16905481.69647  21260919.042    21260921.298
  24406740.684     8396386.90049   6555401.00545  24406739.705    24406744.321
  21910257.792     2604675.85749   2040678.77747  21910257.264    21910259.764
  21147476.030   -22471127.69549 -17477700.19147  21147475.697    21147478.733
  23215201.597   -13456070.28349 -10169073.47146  23215201.060    23215206.852
 04  7 20 19 11 30.0000000  0  7G22G20G11G19G14G25G 1
  23992128.094    17209191.69449  13376614.74745  23992127.975    23992130.498
  23505970.718   -11804267.60749  -9179161.77145  23505969.956    23505974.749
  21256679.913   -22099639.11149 -16922841.83047  21256679.527    21256681.760
  24423401.510     8483940.18849   6623624.29245  24423400.622    24423405.124
  21924421.800     2679107.46449   2098677.42247  21924421.169    21924423.621
  21138875.071   -22516325.94649 -17512919.58947  21138874.752    21138877.759
  23199463.267   -13538775.33749 -10233518.91446  23199462.677    23199468.570
 04  7 20 19 12  0.0000000  0  7G22G20G11G19G14G25G 1
  24007182.895    17288304.85949  13438261.31545  24007182.793    24007185.398
  23489482.278   -11890915.27749  -9246679.39345  23489481.471    23489486.089
  21252543.593   -22121375.64149 -16939779.38447  21252543.220    21252545.452
  24440072.607     8571547.52249   6691889.66845  24440071.780    24440076.274
  21938619.663     2753718.55449   2156815.90247  21938619.111    21938621.658
  21130369.734   -22561021.65149 -17547747.37847  21130369.390    21130372.433
  23183767.245   -13621257.84449 -10297790.94046  23183766.682    23183772.569
 04  7 20 19 12 30.0000000  0  7G22G20G11G19G14G25G 1
  24022261.977    17367545.18649  13500006.98045  24022261.775    24022264.447
  23473003.308   -11977512.95349  -9314158.04145  23473002.538    23473007.023
  21248510.572   -22142569.35749 -16956293.96647  21248510.182    21248512.433
  24456753.470     8659205.50049   6760194.52745  24456752.622    24456757.088
  21952851.516     2828506.93749   2215092.54147  21952850.977    21952853.460
  21121960.235   -22605213.67549 -17582182.69247  21121959.882    21121962.959
  23168113.649   -13703517.67449 -10361889.44846  23168113.079    23168118.929
 04  7 20 19 13  0.0000000  0  7G22G20G11G19G14G25G 1
  24037365.113    17446911.40549  13561850.73045  24037364.798    24037367.435
  23456533.771   -12064060.87249  -9381597.89545  23456533.011    23456537.435
  21244580.771   -22163220.59849 -16972385.84047  21244580.373    21244582.633
  24473443.198     8746909.84549   6828535.52445  24473442.288    24473446.724
  21967116.441     2903469.79649   2273505.15547  21967115.893    21967118.360
  21113646.593   -22648901.66849 -17616225.24947  21113646.277    21113649.373
  23152502.469   -13785555.26649 -10425814.78546  23152501.867    23152507.576
 04  7 20 19 13 30.0000000  0  7G22G20G11G19G14G25G 1
  24052492.287    17526404.68549  13623793.48345  24052491.926    24052494.705
  23440074.093   -12150556.44449  -9448996.99445  23440073.346    23440077.851
  21240754.643   -22183327.00949 -16988053.17647  21240754.262    21240756.523
  24490141.471     8834659.20549   6896911.57245  24490140.389    24490145.012
  21981414.443     2978606.97349   2332053.60347  21981413.994    21981416.422
  21105429.406   -22692083.29449 -17649873.24547  21105429.085    21105432.175
  23136933.842   -13867368.62149 -10489565.38246  23136933.225    23136938.989
 04  7 20 19 14  0.0000000  0  7G22G20G11G19G14G25G 1
  24067643.348    17606024.19249  13685834.55645  24067643.008    24067645.878
  23423624.440   -12236999.45349  -9516355.11745  23423623.673    23423628.223
  21237032.227   -22202888.46349 -17003295.86347  21237031.849    21237034.135
  24506847.565     8922449.76549   6965319.72645  24506846.343    24506851.027
  21995745.376     3053915.98949   2390735.89947  21995744.773    21995747.418
  21097308.691   -22734757.68949 -17683125.99847  21097308.377    21097311.466
  23121407.926   -13948957.63849 -10553141.17446  23121407.333    23121413.109
 04  7 20 19 14 30.0000000  0  7G22G20G11G19G14G25G 1
  24082818.322    17685769.98449  13747974.03545  24082818.042    24082821.105
  23407185.138   -12323388.61449  -9583671.28345  23407184.324    23407188.800
  21233413.808   -22221903.55549 -17018112.81647  21233413.414    21233415.650
  24523561.003     9010278.92349   7033757.96245  24523559.773    24523564.408
  22010108.665     3129395.66149   2449551.19647  22010108.119    22010110.808
  21089284.921   -22776922.84949 -17715981.95247  21089284.612    21089287.672
  23105924.836   -14030321.27149 -10616541.34546  23105924.271    23105930.005
 04  7 20 19 15  0.0000000  0  7G22G20G11G19G14G25G 1
  24098017.479    17765641.96949  13810211.82145  24098017.120    24098020.457
  23390756.351   -12409722.71349  -9650944.53045  23390755.497    23390759.877
  21229899.506   -22240371.57349 -17032503.47847  21229899.087    21229901.287
  24540281.156     9098143.71049   7102223.95745  24540280.037    24540284.657
  22024504.175     3205044.34949   2508498.23447  22024503.653    22024506.137
  21081358.261   -22818577.86349 -17748440.39247  21081357.950    21081360.998
  23090484.853   -14111458.73649 -10679765.28346  23090484.300    23090489.970
 04  7 20 19 15 30.0000000  0  7G22G20G11G19G14G25G 1
  24113240.370    17845639.68849  13872547.57845  24113240.241    24113243.442
  23374337.911   -12496001.29949  -9718174.53745  23374337.203    23374341.552
  21226489.303   -22258292.10649 -17046467.52747  21226488.897    21226491.113
  24557007.440     9186041.00749   7170715.28545  24557006.398    24557010.966
  22038931.547     3280859.96149   2567575.34747  22038930.916    22038933.360
  21073528.840   -22859721.67849 -17780500.49447  21073528.520    21073531.545
  23075087.931   -14192369.85549 -10742812.84046  23075087.349    23075092.998
 04  7 20 19 16  0.0000000  0  7G22G20G11G19G14G25G 1
  24128487.160    17925762.83049  13934981.06845  24128487.265    24128490.405
  23357930.365   -12582223.18449  -9785360.35645  23357929.612    23357934.029
  21223183.387   -22275664.79549 -17060004.68747  21223183.006    21223185.245
  24573739.199     9273967.80549   7239229.60745  24573738.136    24573742.975
  22053390.237     3356840.90449   2626781.22547  22053389.636    22053392.184
  21065797.033   -22900352.68049 -17812161.00047  21065796.722    21065799.705
  23059734.269   -14273054.01949 -10805683.56346  23059733.659    23059739.241
 04  7 20 19 16 30.0000000  0  7G22G20G11G19G14G25G 1
  24143758.025    18006011.05949  13997512.06345  24143758.195    24143761.150
  23341533.669   -12668387.65249  -9852501.43645  23341532.953    23341537.423
  21219981.946   -22292488.37549 -17073113.96547  21219981.563    21219983.830
  24590475.960     9361921.04149   7307764.51945  24590474.978    24590479.862
  22067880.187     3432985.42449   2686114.57547  22067879.605    22067882.173
  21058162.986   -22940469.89849 -17843421.15847  21058162.647    21058165.635
  23044423.884   -14353510.63349 -10868376.97246  23044423.277    23044428.810
 04  7 20 19 17  0.0000000  0  7G22G20G11G19G14G25G 1
  24159052.435    18086384.20549  14060140.36645  24159052.606    24159055.821
  23325148.193   -12754493.52749  -9919596.86046  23325147.437    23325151.960
  21216885.188   -22308762.06949 -17085794.76747  21216884.806    21216887.065
  24607217.617     9449897.95649   7376317.86945  24607216.458    24607221.250
  22082400.798     3509291.96449   2745574.15547  22082400.232    22082402.859
  21050626.897   -22980072.34449 -17874280.18847  21050626.564    21050629.550
  23029156.950   -14433738.90149 -10930892.44346  23029156.307    23029161.784
 04  7 20 19 17 30.0000000  0  7G22G20G11G19G14G25G 1
  24174370.895    18166881.69649  14122865.56545  24174370.961    24174373.980
  23308773.881   -12840540.40849  -9986646.32446  23308773.202    23308777.801
  21213892.915   -22324486.58549 -17098047.63547  21213892.508    21213894.772
  24623962.880     9537894.74049   7444886.75045  24623961.885    24623966.474
  22096951.891     3585758.38149   2805158.43946  22096951.239    22096953.561
  21043188.905   -23019159.23949 -17904737.49247  21043188.574    21043191.577
  23013933.395   -14513738.91449 -10993230.04146  23013932.806    23013938.247
 04  7 20 19 18  0.0000000  0  7G22G20G11G19G14G25G 1
  24189712.871    18247503.14949  14185687.38645  24189712.810    24189715.822
  23292411.308   -12926526.94049 -10053648.77146  23292410.560    23292415.059
  21211005.399   -22339660.62849 -17109871.56847  21211004.987    21211007.234
  24640711.505     9625908.76149   7513469.02445  24640710.571    24640714.953
  22111533.026     3662383.01849   2864865.89447  22111532.454    22111534.937
  21035849.231   -23057729.33949 -17934792.09447  21035848.915    21035851.913
  22998753.407   -14593509.87849 -11055389.17146  22998752.835    22998758.286
 04  7 20 19 18 30.0000000  0  6G22G20G11G14G25G 1
  24205079.812    18328255.97349  14248611.57945  24205079.752    24205082.564
  23276061.711   -13012444.71249 -10120597.62046  23276060.969    23276065.333
  21208224.227   -22354275.96149 -17121260.14147  21208223.802    21208226.024
  22126145.553     3739171.71749   2924701.21147  22126144.919    22126147.577
  21028609.536   -23095774.13849 -17964437.37547  21028609.217    21028612.211
  22983618.540   -14673043.72349 -11117363.51746  22983617.982    22983623.453
 04  7 20 19 19  0.0000000  0  6G22G20G11G14G25G 1
  24220469.844    18409129.76149  14311630.03246  24220469.687    24220472.460
  23259723.357   -13098302.94249 -10187500.09146  23259722.650    23259727.023
  21205547.529   -22368342.07249 -17132220.74847  21205547.135    21205549.349
  22140786.937     3816113.09049   2984655.48147  22140786.302    22140788.974
  21021468.187   -23133302.10549 -17993679.92747  21021467.871    21021470.898
  22968527.034   -14752349.94749 -11179160.49846  22968526.490    22968531.942
 04  7 20 19 19 30.0000000  0  6G22G20G11G14G25G 1
  24235882.846    18490125.15749  14374743.24246  24235882.657    24235885.584
  23243396.838   -13184099.34449 -10254354.35846  23243396.111    23243400.458
  21202975.537   -22381857.93649 -17142752.58847  21202975.146    21202977.346
  22155457.283     3893206.09049   3044727.97746  22155456.656    22155459.134
  21014425.497   -23170311.61749 -18022518.48547  21014425.176    21014428.195
  22953479.120   -14831427.13949 -11240779.03046  22953478.548    22953483.987
 04  7 20 19 20  0.0000000  0  6G22G20G11G14G25G 1
  24251318.938    18571242.56449  14437951.53046  24251318.781    24251321.787
  23227082.316   -13269832.40749 -10321159.29546  23227081.596    23227085.980
  21200508.579   -22394821.79749 -17152854.30047  21200508.204    21200510.420
  22170156.359     3970449.92349   3104917.93747  22170155.721    22170158.247
  21007481.737   -23206800.94549 -18050951.70747  21007481.413    21007484.471
  22938475.052   -14910274.04149 -11302218.09146  22938474.475    22938479.920
 04  7 20 19 20 30.0000000  0  6G22G20G11G14G25G 1
  24266778.499    18652482.59349  14501255.36246  24266778.398    24266781.337
  23210780.291   -13355500.31249 -10387913.45546  23210779.512    23210783.780
  21198146.917   -22407232.44749 -17162524.94047  21198146.529    21198148.755
  22184883.850     4047843.60349   3165224.63547  22184883.245    22184885.911
  21000637.341   -23242768.31749 -18078978.21047  21000637.032    21000640.115
  22923514.906   -14988889.49449 -11363476.79946  22923514.371    22923519.839
 04  7 20 19 21  0.0000000  0  6G22G20G11G14G25G 1
  24282261.515    18733845.43849  14564654.91546  24282261.390    24282264.335
  23194490.858   -13441101.43949 -10454615.58246  23194490.089    23194494.411
  21195890.743   -22419088.83649 -17171763.69247  21195890.320    21195892.565
  22199639.572     4125386.08049   3225647.29447  22199639.070    22199641.900
  20993892.547   -23278212.50249 -18106597.03847  20993892.221    20993895.319
  22908599.112   -15067272.38149 -11424554.29246  22908598.577    22908603.979
 04  7 20 19 21 30.0000000  0  6G22G20G11G14G25G 1
  24297767.697    18815330.58249  14628149.74346  24297767.516    24297770.526
  23178214.310   -13526635.30249 -10521265.28746  23178213.517    23178217.767
  21193740.050   -22430390.92849 -17180570.51547  21193739.619    21193741.835
  22214423.349     4203075.21349   3286184.25046  22214422.806    22214425.614
  20987247.494   -23313132.31149 -18133807.25547  20987247.181    20987250.281
  22893727.579   -15145422.69349 -11485450.56946  22893727.013    22893732.422
 04  7 20 19 22  0.0000000  0  6G22G20G11G14G25G 1
  24313297.131    18896937.77149  14691739.68846  24313296.934    24313299.888
  23161950.838   -13612100.32349 -10587861.35046  23161950.036    23161954.233
  21191694.891   -22441138.24949 -17188945.05847  21191694.475    21191696.703
  22229234.955     4280910.06049   3346834.79346  22229234.381    22229237.036
  20980702.453   -23347526.53549 -18160607.93247  20980702.162    20980705.248
  22878900.433   -15223339.40949 -11546164.81646  22878899.867    22878905.271
 04  7 20 19 22 30.0000000  0  6G22G20G11G14G25G 1
  24328849.818    18978666.81249  14755424.58546  24328849.558    24328852.414
  23145700.602   -13697495.43849 -10654402.95246  23145699.875    23145704.018
  21189755.441   -22451330.15449 -17196886.80347  21189755.028    21189757.279
  22244073.746     4358888.88549   3407597.45346  22244073.189    22244076.067
  20974257.593   -23381394.45149 -18186998.49247  20974257.304    20974260.377
  22864117.833   -15301022.10349 -11606696.71446  22864117.271    22864122.678
 04  7 20 19 23  0.0000000  0  6G22G20G11G14G25G 1
  24344425.501    19060517.60449  14819204.33646  24344425.254    24344428.178
  23129463.971   -13782819.35649 -10720889.06646  23129463.236    23129467.383
  21187921.781   -22460965.98049 -17204395.24147  21187921.377    21187923.640
  22258939.756     4437010.19649   3468471.15147  22258939.237    22258942.150
  20967913.195   -23414734.79849 -18212977.97147  20967912.876    20967915.916
  22849379.968   -15378470.13249 -11667045.76246  22849379.394    22849384.687
 04  7 20 19 23 30.0000000  0  6G22G20G11G14G25G 1
  24360024.254    19142489.86649  14883078.71645  24360024.077    24360027.214
  23113240.973   -13868071.30249 -10787319.11446  23113240.277    23113244.444
  21186194.063   -22470045.27549 -17211470.02347  21186193.683    21186195.930
  22273832.673     4515272.31949   3529454.59147  22273832.117    22273834.947
  20961669.305   -23447546.54849 -18238545.56847  20961668.999    20961672.008
  22834686.771   -15455683.16649 -11727211.70346  22834686.196    22834691.400
 04  7 20 19 24  0.0000000  0  6G22G20G11G14G25G 1
  24375646.270    19224583.47649  14947047.68745  24375645.991    24375649.128
  23097032.062   -13953249.57449 -10853691.73246  23097031.338    23097035.480
  21184572.321   -22478567.81249 -17218110.96047  21184571.906    21184574.148
  22288752.046     4593674.03149   3590546.80846  22288751.448    22288754.208
  20955526.155   -23479829.10949 -18263700.78647  20955525.831    20955528.824
  22820038.420   -15532660.34249 -11787193.84746  22820037.867    22820043.066
 04  7 20 19 24 30.0000000  0  6G22G20G11G14G25G 1
  24391291.171    19306798.33549  15011111.12445  24391291.010    24391294.017
  23080837.421   -14038353.29449 -10920006.26846  23080836.659    23080840.730
  21183056.614   -22486533.02949 -17224317.62847  21183056.195    21183058.423
  22303697.601     4672213.82449   3651746.62246  22303697.042    22303699.780
  20949483.956   -23511581.14249 -18288442.61047  20949483.624    20949486.615
  22805435.010   -15609400.92249 -11846991.64546  22805434.506    22805439.759
 04  7 20 19 25  0.0000000  0  6G22G20G11G14G25G 1
  24406959.005    19389133.48349  15075268.27745  24406958.834    24406961.964
  23064656.973   -14123381.73049 -10986262.13846  23064656.231    23064660.303
  21181646.988   -22493940.77349 -17230089.90047  21181646.551    21181648.757
  22318669.171     4750889.61049   3713052.42146  22318668.597    22318671.288
  20943542.729   -23542802.60049 -18312771.00447  20943542.387    20943545.361
  22790876.669   -15685905.17149 -11906605.28546  22790876.145    22790881.426
 04  7 20 19 25 30.0000000  0  6G22G20G11G14G25G 1
  24422649.909    19471588.56549  15139518.89845  24422649.651    24422652.778
  23048491.198   -14208333.68149 -11052458.40646  23048490.352    23048494.488
  21180343.438   -22500791.07049 -17235427.79847  21180343.014    21180345.215
  22333666.273     4829699.73849   3774462.87946  22333665.725    22333668.441
  20937702.599   -23573492.43049 -18336685.14847  20937702.260    20937705.275
  22776363.390   -15762172.57749 -11966034.37446  22776362.872    22776368.188
 04  7 20 19 26  0.0000000  0  6G22G20G11G14G25G 1
  24438363.487    19554163.11449  15203862.59545  24438363.173    24438366.319
  23032340.059   -14293208.24349 -11118594.35946  23032339.234    23032343.299
  21179146.006   -22507083.66449 -17240331.12147  21179145.593    21179147.792
  22348688.619     4908642.47749   3835976.64646  22348688.005    22348690.840
  20931963.755   -23603649.83549 -18360184.41347  20931963.473    20931966.484
  22761895.356   -15838202.74849 -12025278.62046  22761894.818    22761900.067
 04  7 20 19 26 30.0000000  0  6G22G20G11G14G25G 1
  24454099.789    19636857.56149  15268299.74145  24454099.598    24454102.617
  23016203.956   -14378003.86649 -11184668.80946  23016203.045    23016207.175
  21178054.833   -22512817.83949 -17244799.31547  21178054.408    21178056.639
  22363735.938     4987716.94749   3897593.09446  22363735.407    22363738.162
  20926326.514   -23633273.74249 -18383267.96447  20926326.206    20926329.185
  22747472.578   -15913994.88849 -12084337.36646  22747472.043    22747477.272
 04  7 20 19 27  0.0000000  0  6G22G20G11G14G25G 1
  24469858.831    19719671.27749  15332829.82545  24469858.619    24469861.737
  23000083.004   -14462719.49749 -11250680.93646  23000082.145    23000086.342
  21177069.949   -22517993.47349 -17248832.28047  21177069.490    21177071.728
  22378808.186     5066921.52349   3959310.94146  22378807.624    22378810.355
  20920790.912   -23662363.57349 -18405935.34948  20920790.588    20920793.549
  22733095.206   -15989548.47349 -12143210.23446  22733094.616    22733099.826
 04  7 20 19 27 30.0000000  0  6G22G20G11G14G25G 1
  24485640.446    19802603.76449  15397452.42945  24485640.234    24485643.361
  22983977.453   -14547354.24449 -11316630.03046  22983976.665    22983980.818
  21176191.251   -22522610.73549 -17252430.15547  21176190.818    21176193.103
  22393904.773     5146254.39049   4021128.69447  22393904.203    22393907.119
  20915357.026   -23690918.76849 -18428186.13148  20915356.740    20915359.698
  22718763.199   -16064863.40249 -12201897.14146  22718762.638    22718767.832
 04  7 20 19 28  0.0000000  0  6G22G20G11G14G25G 1
  24501444.519    19885654.81549  15462167.43245  24501444.243    24501447.444
  22967887.653   -14631906.60649 -11382514.92346  22967886.833    22967890.997
  21175418.922   -22526669.21649 -17255592.60947  21175418.513    21175420.800
  22409025.542     5225714.33549   4083045.48146  22409024.945    22409027.940
  20910025.097   -23718938.47849 -18450019.65848  20910024.771    20910027.706
  22704476.702   -16139939.10049 -12260397.60646  22704476.129    22704481.346
 04  7 20 19 28 30.0000000  0  6G22G20G11G14G25G 1
  24517271.397    19968824.79349  15526975.11245  24517271.207    24517274.228
  22951813.849   -14716374.94049 -11448334.35646  22951813.060    22951817.172
  21174753.146   -22530168.05849 -17258318.98647  21174752.724    21174754.998
  22424170.294     5305300.24849   4145060.45246  22424169.661    22424172.573
  20904795.260   -23746421.51849 -18471435.01148  20904794.912    20904797.857
  22690235.908   -16214774.64849 -12318710.96946  22690235.377    22690240.536
 04  7 20 19 29  0.0000000  0  6G22G20G11G14G25G 1
  24533120.873    20052111.84849  15591874.01645  24533120.394    24533123.439
  22935756.005   -14800759.40349 -11514088.40846  22935755.138    22935759.269
  21174193.590   -22533108.55649 -17260610.28647  21174193.141    21174195.439
  22439338.517     5385009.26449   4207171.37846  22439337.840    22439340.622
  20899667.404   -23773368.48349 -18492432.63748  20899667.072    20899669.991
  22676040.654   -16289371.04649 -12376837.97046  22676040.085    22676045.280
 04  7 20 19 29 30.0000000  0  6G22G20G11G14G25G 1
  24548992.254    20135516.97049  15656864.88644  24548991.617    24548995.264
  22919714.388   -14885057.83549 -11579775.44646  22919713.592    22919717.731
  21173740.524   -22535489.22449 -17262465.35747  21173740.095    21173742.417
  22454530.028     5464841.22849   4269378.08746  22454529.324    22454532.076
  20894641.941   -23799777.56349 -18513011.13048  20894641.611    20894644.485
  22661891.194   -16363726.66849 -12434777.35546  22661890.649    22661895.864
 04  7 20 19 30  0.0000000  0  6G22G20G11G14G25G 1
  24564886.202    20219039.56749  15721947.29844  24564885.395    24564888.664
  22903689.422   -14969268.98349 -11645394.46546  22903688.636    22903692.803
  21173393.999   -22537310.32049 -17263884.39947  21173393.595    21173395.888
  22469744.623     5544794.50749   4331679.29546  22469743.960    22469746.806
  20889718.924   -23825648.05549 -18533169.94648  20889718.599    20889721.446
  22647787.704   -16437841.13349 -12492528.82846  22647787.143    22647792.290
 04  7 20 19 30 30.0000000  0  6G22G20G11G14G25G 1
  24580802.621    20302678.76648  15787120.63544  24580800.685    24580801.584
  22887681.276   -15053392.04549 -11710944.85846  22887680.509    22887684.648
  21173153.799   -22538572.26449 -17264867.73947  21173153.411    21173155.742
  22484981.894     5624866.92549   4394073.30546  22484981.212    22484984.216
  20884898.404   -23850980.13849 -18552909.22148  20884898.066    20884900.877
  22633730.003   -16511714.76449 -12550092.64746  22633729.385    22633734.527
 04  7 20 19 31  0.0000000  0  6G22G20G11G14G25G 1
  24596740.520    20386435.00248  15852385.12244  24596738.464    24596742.640
  22871690.246   -15137425.56949 -11776425.46746  22871689.449    22871693.528
  21173020.247   -22539274.31849 -17265414.79847  21173019.863    21173022.142
  22500241.664     5705057.73049   4456559.58746  22500241.058    22500244.070
  20880180.571   -23875772.54649 -18572227.96648  20880180.222    20880183.071
  22619718.198   -16585346.44749 -12607467.91446  22619717.635    22619722.844
 04  7 20 19 31 30.0000000  0  6G22G20G11G14G25G 1
  24612701.173    20470308.20648  15917740.77344                  24612698.971
  22855716.557   -15221367.68649 -11841834.85746  22855715.747    22855719.828
  21172993.410   -22539415.67749 -17265524.95647  21172992.992    21172995.258
  22515523.764     5785365.80949   4519137.33646  22515523.198    22515526.058
  20875565.604   -23900024.05849 -18591125.23648  20875565.297    20875568.144
  22605752.714   -16658735.22149 -12664653.90946  22605752.154    22605757.351
 04  7 20 19 32  0.0000000  0  6G22G20G11G14G25G 1
  24628683.511    20554297.37748  15983186.76344                  24628682.487
  22839760.293   -15305217.93949 -11907172.67046  22839759.553    22839763.620
  21173072.950   -22538997.67149 -17265199.24547  21173072.557    21173074.822
  22530827.914     5865789.19549   4581804.89146  22530827.313    22530830.140
  20871053.607   -23923734.81249 -18609601.13248  20871053.281    20871056.111
  22591833.407   -16731881.39649 -12721650.87046  22591832.869    22591838.041
 04  7 20 19 32 30.0000000  0  6G22G20G11G14G25G 1
                  20638402.88548  16048723.41744
  22823821.956   -15388974.26749 -11972437.29046  22823821.208    22823825.273
  21173259.143   -22538019.24849 -17264436.84547  21173258.748    21173261.016
  22546153.718     5946327.02049   4644561.57346  22546153.064    22546156.007
  20866644.601   -23946904.19049 -18627655.16448  20866644.253    20866647.098
  22577960.506   -16804784.06049 -12778458.07446  22577959.904    22577965.045
 04  7 20 19 33  0.0000000  0  6G22G20G11G14G25G 1
                  20722623.29348   3769166.66643
  22807901.425   -15472636.52449 -12037628.60046  22807900.699    22807904.842
  21173551.781   -22536481.48049 -17263238.59347  21173551.375    21173553.621
  22561500.848     6026976.89449   4707405.56346  22561500.248    22561503.234
  20862338.535   -23969532.32449 -18645287.46048  20862338.234    20862341.095
  22564133.654   -16877443.92749 -12835076.09146  22564133.116    22564138.267
 04  7 20 19 33 30.0000000  0  6G22G20G11G14G25G 1
                  20806958.23658   3834829.54143
  22791999.167   -15556203.52149 -12102745.69546  22791998.428    22792002.525
  21173950.862   -22534384.41249 -17261604.52647  21173950.469    21173952.687
  22576869.175     6107737.32249   4770335.77746  22576868.609    22576871.481
  20858135.627   -23991619.01149 -18662497.84648  20858135.313    20858138.136
  22550353.213   -16949860.56749 -12891504.58846  22550352.686    22550357.739
 04  7 20 19 34  0.0000000  0  6G22G20G11G14G25G 1
                  20891407.73458   3900565.76343
  22776115.395   -15639673.35149 -12167787.07146  22776114.664    22776118.634
  21174456.420   -22531727.72349 -17259534.38647  21174456.039    21174458.255
  22592258.338     6188607.43649   4833351.43446  22592257.715    22592260.550
  20854035.970   -24013162.75449 -18679285.15848  20854035.642    20854038.461
  22536619.234   -17022033.16249 -12947742.91446  22536618.703    22536623.669
 04  7 20 19 34 30.0000000  0  6G22G20G11G14G25G 1
                  20975970.74057   3805868.22443
  22760250.142   -15723046.10249 -12232752.79446  22760249.337    22760253.245
  21175068.211   -22528512.59649 -17257029.10147  21175067.835    21175070.062
  22607667.837     6269584.80949   4896450.63646  22607667.178    22607670.015
  20850039.453   -24034164.36249 -18695650.02648  20850039.158    20850041.951
  22522931.597   -17093962.47249 -13003791.67346  22522930.999    22522935.849
 04  7 20 19 35  0.0000000  0  5G20G11G14G25G 1
  22744403.785   -15806318.75249 -12297640.52546  22744403.067    22744406.972
  21175786.651   -22524737.40049 -17254087.40347  21175786.268    21175788.496
  22623097.811     6350669.76549   4959633.65746  22623097.155    22623099.943
  20846146.571   -24054621.66049 -18711590.76448  20846146.233    20846149.022
  22509290.547   -17165646.47449 -13059649.28546  22509289.983    22509294.756
 04  7 20 19 35 30.0000000  0  5G20G11G14G25G 1
  22728577.679   -15889485.70449 -12362445.90446  22728576.924    22728580.789
  21176612.465   -22520397.96649 -17250706.03747  21176612.046    21176614.275
  22638548.839     6431865.04649   5022902.66946  22638548.169    22638551.007
  20842358.069   -24074530.30349 -18727103.97748  20842357.786    20842360.585
  22495697.005   -17237080.63849 -13115312.21946  22495696.443    22495701.230
 04  7 20 19 36  0.0000000  0  5G20G11G14G25G 1
  22712770.643   -15972552.36549 -12427173.12946  22712769.807    22712773.668
  21177544.203   -22515501.54449 -17246890.65647  21177543.811    21177546.067
  22654019.245     6513162.15049   5086250.98846  22654018.629    22654021.517
  20838672.757   -24093896.79649 -18742194.73148  20838672.437    20838675.243
  22482149.839   -17308271.24549 -13170785.35646  22482149.272    22482154.099
 04  7 20 19 36 30.0000000  0  5G20G11G14G25G 1
  22696982.888   -16055516.93649 -12491820.80546  22696982.056    22696985.984
  21178582.054   -22510047.56049 -17242640.81347  21178581.653    21178583.917
  22669508.873     6594560.56149   5149678.28746  22669508.236    22669511.109
  20835090.728   -24112720.29049 -18756862.37848  20835090.437    20835093.244
  22468649.134   -17379217.69949 -13226068.25946  22468648.568    22468653.386
 04  7 20 19 37  0.0000000  0  5G20G11G14G25G 1
  22681215.147   -16138376.88949 -12556386.95446  22681214.282    22681218.226
  21179726.294   -22504034.47649 -17237955.30447  21179725.891    21179728.176
  22685017.737     6676060.35449   5213184.60746  22685017.109    22685019.875
  20831612.448   -24130998.94249 -18771105.47048  20831612.125    20831614.976
  22455195.123   -17449918.32949 -13281159.60646  22455194.573    22455199.464
 04  7 20 19 37 30.0000000  0  5G20G11G14G25G 1
  22665467.559   -16221130.52949 -12620870.26846  22665466.774    22665470.700
  21180976.861   -22497462.61649 -17232834.38647  21180976.485    21180978.780
  22700545.690     6757660.46849   5276769.05246  22700545.119    22700547.947
  20828237.900   -24148732.23749 -18784923.61148  20828237.571    20828240.405
  22441788.026   -17520372.42849 -13336058.84746  22441787.524    22441792.458
 04  7 20 19 38  0.0000000  0  5G20G11G14G25G 1
  22649740.483   -16303776.95449 -12685270.04546  22649739.642    22649743.538
  21182333.627   -22490332.85749 -17227278.74247  21182333.236    21182335.530
  22716092.570     6839359.15449   5340430.40646  22716092.007    22716094.683
  20824967.110   -24165920.03349 -18798316.68848  20824966.805    20824969.610
  22428427.943   -17590579.96549 -13390765.96246  22428427.423    22428432.405
 04  7 20 19 38 30.0000000  0  5G20G11G14G25G 1
  22634033.842   -16386315.68949 -12749585.89946  22634033.065    22634036.867
  21183796.381   -22482646.13049 -17221289.09247  21183795.983    21183798.289
  22731657.634     6921154.14749   5404166.67546  22731657.022    22731659.912
  20821800.054   -24182562.83549 -18811285.09448  20821799.748    20821802.543
  22415114.718   -17660541.46849 -13445281.36846  22415114.159    22415119.121
 04  7 20 19 39  0.0000000  0  5G20G11G14G25G 1
  22618348.103   -16468744.45649 -12813816.06646  22618347.354    22618351.128
  21185365.249   -22474401.76949 -17214864.92647  21185364.857    21185367.124
  22747240.805     7003045.12549   5467977.72446  22747240.204    22747243.296
  20818736.904   -24198659.74849 -18823828.13848  20818736.619    20818739.390
  22401848.452   -17730255.86949 -13499604.22346  22401847.873    22401852.851
 04  7 20 19 39 30.0000000  0  5G20G11G14G25G 1
  22602683.780   -16551060.96149 -12877958.75446  22602682.998    22602686.791
  21187040.392   -22465599.17249 -17208005.76647  21187039.977    21187042.240
  22762842.137     7085031.57949   5531863.17046  22762841.662    22762844.904
  20815777.903   -24214209.84249 -18835945.08748  20815777.567    20815780.312
  22388629.476   -17799722.03949 -13553733.65846  22388628.914    22388633.836
 04  7 20 19 40  0.0000000  0  5G20G11G14G25G 1
  22587040.795   -16633265.47349 -12942014.17246  22587040.027    22587043.761
  21188821.331   -22456240.39449 -17200713.21847  21188820.924    21188823.164
  22778461.350     7167110.59949   5595820.84746  22778460.839    22778463.912
  20812922.643   -24229214.21449 -18847636.80048  20812922.324    20812925.044
  22375457.468   -17868941.40949 -13607670.77946  22375456.933    22375461.775
 04  7 20 19 40 30.0000000  0  5G20G11G14G25G 1
  22571419.580   -16715355.86149 -13005980.66646  22571418.762    22571422.464
  21190708.224   -22446324.90449 -17192986.87447  21190707.788    21190710.003
  22794098.135     7249281.68449   5659850.28446  22794097.575    22794100.433
  20810171.379   -24243672.17949 -18858902.74548  20810171.048    20810173.769
  22362332.619   -17937912.76449 -13661414.64546  22362332.080    22362336.859
 04  7 20 19 41  0.0000000  0  5G20G11G14G25G 1
  22555820.166   -16797330.85649 -13069857.24646  22555819.401    22555823.091
  21192700.875   -22435853.08749 -17184827.02547  21192700.469    21192702.743
  22809752.065     7331543.42949   5723950.33846  22809751.547    22809754.383
  20807524.135   -24257583.22849 -18869742.51848  20807523.831    20807526.560
  22349255.057   -18006635.75949 -13714964.97046  22349254.493    22349259.263
 04  7 20 19 41 30.0000000  0  5G20G11G14G25G 1
  22540242.904   -16879190.13249 -13133643.65646  22540242.075    22540245.755
  21194799.141   -22424826.53549 -17176234.91647  21194798.756    21194801.050
  22825422.881     7413893.43749   5788119.07746  22825422.239    22825425.214
  20804980.793   -24270948.55049 -18880157.04348  20804980.482    20804983.217
  22336224.534   -18075111.33749 -13768322.51746  22336223.964    22336228.754
 04  7 20 19 42  0.0000000  0  5G20G11G14G25G 1
  22524688.125   -16960930.68049 -13197337.53946  22524687.304    22524690.970
  21197003.227   -22413244.23849 -17167209.76247  21197002.810    21197005.093
  22841110.217     7496332.08149   5852356.87246  22841109.569    22841112.920
  20802541.603   -24283766.50749 -18890145.05048  20802541.290    20802544.090
  22323241.440   -18143337.59549 -13821485.78346  22323240.842    22323245.673
 04  7 20 19 42 30.0000000  0  5G20G11G14G25G 1
  22509156.101   -17042551.63749 -13260938.25146  22509155.307    22509158.959
  21199312.876   -22401106.84649 -17157752.06247  21199312.461    21199314.753
  22856814.285     7578857.87649   5916662.56546  22856813.786    22856817.223
  20800206.526   -24296037.26449 -18899706.67248  20800206.217    20800208.996
  22310305.771   -18211314.71149 -13874454.91346  22310305.167    22310310.019
 04  7 20 19 43  0.0000000  0  5G20G11G14G25G 1
  22493647.035   -17124051.84849 -13324444.86046  22493646.203    22493649.959
  21201728.041   -22388414.99049 -17147862.31347  21201727.639    21201729.957
  22872534.892     7661469.09449   5981034.92146  22872534.314    22872537.707
  20797975.587   -24307761.13449 -18908842.14948  20797975.241    20797978.021
  22297417.534   -18279042.68049 -13927229.91146  22297416.920    22297421.748
 04  7 20 19 43 30.0000000  0  5G20G11G14G25G 1
  22478160.947   -17205431.11349 -13387857.23646  22478160.213    22478163.951
  21204248.287   -22375170.75749 -17137542.14247  21204247.905    21204250.272
  22888271.115     7744162.95749   6045471.65846  22888270.559    22888273.896
  20795848.352   -24318939.53749 -18917552.59148  20795848.014    20795850.802
  22284576.433   -18346522.86249 -13979811.82246  22284575.829    22284580.641
 04  7 20 19 44  0.0000000  0  5G20G11G14G25G 1
  22462698.649   -17286685.95349 -13451172.65946  22462697.908    22462701.642
  21206873.928   -22361372.82549 -17126790.52147  21206873.537    21206875.928
  22904023.298     7826940.35249   6109973.55246  22904022.655    22904025.747
  20793825.307   -24329570.58049 -18925836.51648  20793824.985    20793827.744
  22271782.875   -18413753.12649 -14032198.99646  22271782.276    22271787.079
 04  7 20 19 44 30.0000000  0  5G20G11G14G25G 1
  22447260.385   -17367814.80349 -13514389.91346  22447259.595    22447263.282
  21209604.952   -22347021.14049 -17115607.40447  21209604.546    21209606.959
  22919790.893     7909800.52449   6174539.82145  22919790.309    22919793.428
  20791906.576   -24339653.54649 -18933693.36648  20791906.253    20791909.008
  22259037.070   -18480732.47149 -14084390.63946  22259036.490    22259041.331
 04  7 20 19 45  0.0000000  0  5G20G11G14G25G 1
  22431846.327   -17448816.36549 -13577507.98046  22431845.506    22431849.150
  21212441.187   -22332116.75049 -17103993.60347  21212440.783    21212443.160
  22935574.092     7992742.02349   6239169.46745  22935573.622    22935576.631
  20790092.038   -24349188.94749 -18941123.54248  20790091.719    20790094.482
  22246338.994   -18547461.03749 -14136386.88146  22246338.410    22246343.264
 04  7 20 19 45 30.0000000  0  5G20G11G14G25G 1
  22416456.393   -17529690.82849 -13640527.00146  22416455.551    22416459.211
  21215382.223   -22316661.47249 -17091950.54347  21215381.807    21215384.196
  22951372.483     8075761.79349   6303860.16446  22951371.965    22951374.921
  20788381.427   -24358178.12449 -18948128.09048  20788381.103    20788383.884
  22233688.364   -18613940.27249 -14188188.83646  22233687.758    22233692.592
 04  7 20 19 46  0.0000000  0  5G20G11G14G25G 1
  22401091.004   -17610436.11249 -13703445.38346  22401090.178    22401093.882
  21218428.097   -22300655.29049 -17079478.21047  21218427.668    21218430.077
  22967185.624     8158859.28749   6368611.40646  22967185.048    22967188.030
  20786774.845   -24366620.66449 -18954706.69448  20786774.535    20786777.314
  22221085.319   -18680169.32949 -14239795.84846  22221084.743    22221089.559
 04  7 20 19 46 30.0000000  0  5G20G11G14G25G 1
  22385750.532   -17691050.58649 -13766261.81746  22385749.639    22385753.381
  21221578.713   -22284098.72649 -17066577.00647  21221578.297    21221580.708
  22983013.318     8242033.78949   6433422.69446  22983012.721    22983015.765
  20785272.373   -24374516.49149 -18960859.28248  20785272.046    20785274.788
  22208529.934   -18746147.85649 -14291207.65246  22208529.405    22208534.206
 04  7 20 19 47  0.0000000  0  5G20G11G14G25G 1
  22370435.160   -17771532.88649 -13828975.27146  22370434.331    22370438.111
  21224833.891   -22266992.59849 -17053247.57147  21224833.493    21224835.896
  22998855.242     8325283.87849   6498292.82646  22998854.664    22998857.838
  20783873.835   -24381865.80049 -18966586.02248  20783873.484    20783876.269
  22196022.349   -18811875.71949 -14342424.13046  22196021.794    22196026.586
 04  7 20 19 47 30.0000000  0  5G20G11G14G25G 1
  22355145.289   -17851881.43249 -13891584.48846  22355144.455    22355148.269
  21228193.601   -22249337.45749 -17039490.33447  21228193.188    21228195.554
  23014711.309     8408608.48049   6563220.96046  23014710.728    23014714.118
  20782579.333   -24388668.46449 -18971886.79248  20782579.010    20782581.752
  22183562.508   -18877352.59149 -14393445.02446  22183561.940    22183566.728
 04  7 20 19 48  0.0000000  0  5G20G11G14G25G 1
  22339881.426   -17932093.31349 -13954087.21046  22339880.622    22339884.416
  21231657.815   -22231132.89549 -17025304.97747  21231657.390    21231659.782
  23030581.578     8492007.53749   6628207.25645  23030581.030    23030584.195
  20781389.035   -24394923.40749 -18976760.76948  20781388.684    20781391.435
  22171150.657   -18942577.19449 -14444269.34746  22171150.112    22171154.889
 04  7 20 19 48 30.0000000  0  5G20G11G14G25G 1
  22324643.707   -18012168.14449 -14016483.15546  22324642.891    22324646.668
  21235226.266   -22212380.46049 -17010692.70647  21235225.879    21235228.309
  23046465.548     8575478.81949   6693249.75945  23046465.074    23046468.076
  20780302.599   -24400631.97649 -18981209.00548  20780302.296    20780305.078
  22158786.633   -19007550.45749 -14494897.82546  22158786.101    22158790.885
 04  7 20 19 49  0.0000000  0  5G20G11G14G25G 1
  22309432.355   -18092103.88049 -14078770.70346  22309431.592    22309435.414
  21238899.003   -22193080.36649 -16995653.68547  21238898.567    21238901.020
  23062363.380     8659021.86949   6758348.17346  23062362.888    23062365.874
  20779320.364   -24405793.93249 -18985231.29848  20779320.056    20779322.827
  22146470.576   -19072271.44349 -14545329.71846  22146470.038    22146474.799
 04  7 20 19 49 30.0000000  0  5G20G11G14G25G 1
  22294247.600   -18171900.11149 -14140949.55246  22294246.874    22294250.622
  21242675.536   -22173234.50149 -16980189.39347  21242675.112    21242677.574
  23078274.449     8742634.40949   6823500.76946  23078273.923    23078276.951
  20778441.824   -24410410.55349 -18988828.66848  20778441.504    20778444.312
  22134202.333   -19136741.04149 -14595565.73046  22134201.831    22134206.564
 04  7 20 19 50  0.0000000  0  5G20G11G14G25G 1
  22279089.598   -18251555.75149 -14203018.86046  22279088.878    22279092.621
  21246555.697   -22152844.09949 -16964300.78647  21246555.276    21246557.714
  23094198.396     8826315.05749   6888706.40946  23094197.879    23094200.968
  20777666.948   -24414482.47349 -18992001.59348  20777666.651    20777669.449
  22121981.997   -19200959.45449 -14645606.01747  22121981.481    22121986.150
 04  7 20 19 50 30.0000000  0  5G20G11G14G25G 1
  22263958.651   -18331068.86649 -14264977.08546  22263957.953    22263961.694
  21250539.488   -22131909.31649 -16947987.97947  21250539.048    21250541.492
  23110135.092     8910062.82149   6953964.34846  23110134.597    23110137.771
  20776995.841   -24418009.33249 -18994749.79148  20776995.525    20776998.284
  22109809.495   -19264926.41249 -14695450.35447  22109808.968    22109813.625
 04  7 20 19 51  0.0000000  0  5G20G11G14G25G 1
  22248855.425   -18410436.91549 -14326822.29146  22248854.718    22248858.432
  21254626.781   -22110430.18649 -16931251.00547  21254626.358    21254628.829
  23126084.481     8993877.72149   7019274.53346  23126083.936    23126087.313
  20776428.647   -24420990.13949 -18997072.49648  20776428.308    20776431.072
  22097685.029   -19328640.60949 -14745097.74247  22097684.502    22097689.163
 04  7 20 19 51 30.0000000  0  5G20G11G14G25G 1
  22233780.245   -18489657.51749 -14388552.60446  22233779.515    22233783.228
  21258817.724   -22088406.74049 -16914089.89247  21258817.337    21258819.791
  23142046.508     9077759.37349   7084636.84145  23142046.005    23142049.458
  20775965.319   -24423424.94749 -18998969.74148  20775964.999    20775967.734
  22085608.850   -19392101.07449 -14794547.41147  22085608.332    22085612.993
 04  7 20 19 52  0.0000000  0  5G20G11G14G25G 1
  22218733.128   -18568730.28949 -14450167.71546  22218732.402    22218736.154
  21263111.858   -22065841.03249 -16896506.24347  21263111.454    21263113.901
  23158020.902     9161705.76149   7150049.59046  23158020.436    23158023.880
  20775605.626   -24425314.97049 -19000442.48648  20775605.288    20775608.052
  22073580.771   -19455308.69049 -14843800.06847  22073580.259    22073584.907
 04  7 20 19 52 30.0000000  0  5G20G11G14G25G 1
  22203714.435   -18647654.16649 -14511666.80446  22203713.669    22203717.390
  21267508.931   -22042734.37449 -16878501.07147  21267508.520    21267510.982
  23174007.404     9245715.04049   7215511.30346  23174006.939    23174010.347
  20775349.453   -24426660.91749 -19001491.27648  20775349.165    20775351.931
  22061600.749   -19518263.90749 -14892856.04347  22061600.232    22061604.898
 04  7 20 19 53  0.0000000  0  5G20G11G14G25G 1
  22188724.226   -18726428.24349 -14573049.16946  22188723.437    22188727.136
  21272008.623   -22019088.25349 -16860075.53847  21272008.215    21272010.704
  23190005.617     9329785.58349   7281020.73246  23190005.133    23190008.464
  20775196.680   -24427463.87049 -19002116.94648  20775196.391    20775199.151
  22049668.648   -19580967.34649 -14941715.82047  22049668.132    22049672.753
 04  7 20 19 53 30.0000000  0  5G20G11G14G25G 1
  22173763.008   -18805049.92449 -14634312.78646  22173762.224    22173765.925
  21276611.011   -21994902.47449 -16841229.49447  21276610.619    21276613.140
  23206015.522     9413917.39649   7346577.96946  23206014.950    23206018.274
  20775147.296   -24427723.54449 -19002319.29048  20775146.975    20775149.731
  22037784.756   -19643417.69349 -14990378.39147  22037784.210    22037788.805
 04  7 20 19 54  0.0000000  0  5G20G11G14G25G 1
  22158831.134   -18883517.73049 -14695456.49647  22158830.271    22158833.958
  21281315.859   -21970178.40049 -16821963.99747  21281315.462    21281317.984
  23222036.727     9498109.06049   7412181.84846  23222036.169    23222039.503
  20775201.176   -24427440.43949 -19002098.69348  20775200.838    20775203.601
  22025948.921   -19705615.26149 -15038843.98847  22025948.383    22025952.930
 04  7 20 19 54 30.0000000  0  5G20G11G14G25G 1
  22143928.710   -18961830.40649 -14756479.33247  22143927.868    22143931.550
  21286122.908   -21944917.18149 -16802279.95147  21286122.524    21286125.033
  23238069.030     9582359.51449   7477831.47646  23238068.440    23238071.999
  20775358.318   -24426614.53249 -19001455.14148  20775358.009    20775360.754
  22014161.264   -19767559.84349 -15087112.45547  22014160.733    22014165.230
 04  7 20 19 55  0.0000000  0  5G20G11G14G25G 1
  22129056.205   -19039986.09149 -14817379.83947  22129055.354    22129059.010
  21291032.039   -21919119.76349 -16782178.08247  21291031.626    21291034.161
  23254112.312     9666667.62949   7543526.00846  23254111.793    23254115.433
  20775618.684   -24425246.52849 -19000389.15948  20775618.379    20775621.072
  22002421.747   -19829251.36649 -15135183.73547  22002421.211    22002425.664
 04  7 20 19 55 30.0000000  0  5G20G11G14G25G 1
  22114214.033   -19117982.01449 -14878155.85447  22114213.209    22114216.823
  21296043.203   -21892785.87349 -16761658.19447  21296042.806    21296045.323
  23270166.733     9751033.63349   7609265.67346  23270166.169    23270169.917
  20775982.312   -24423335.94949 -18998900.40148  20775981.967    20775984.672
  21990730.575   -19890688.56149 -15183056.84647  21990730.044    21990734.500
 04  7 20 19 56  0.0000000  0  5G20G11G14G25G 1
  22099402.076   -19195819.21549 -14938808.18647  22099401.273    22099404.874
  21301155.824   -21865918.94149 -16740722.93947  21301155.417    21301157.945
  23286231.451     9835454.03849   7675047.75646  23286230.928    23286234.708
  20776448.576   -24420885.61049 -18996991.04948  20776448.234    20776450.930
  21979087.423   -19951873.70349 -15230733.54247  21979086.865    21979091.327
 04  7 20 19 56 30.0000000  0  5G20G11G14G25G 1
  22084621.075   -19273493.84649 -14999333.83947  22084620.246    22084623.858
  21306370.034   -21838518.09449 -16719371.64847  21306369.647    21306372.190
  23302306.797     9919930.00949   7740873.14046  23302306.299    23302310.034
  20777017.905   -24417893.55049 -18994659.57948  20777017.580    20777020.280
  21967492.620   -20012804.42649 -15278211.99147  21967492.082    21967496.564
 04  7 20 19 57  0.0000000  0  5G20G11G14G25G 1
  22069870.861   -19351006.50449 -15059733.28847  22069870.037    22069873.680
  21311685.275   -21810586.46549 -16697606.76747  21311684.898    21311687.439
  23318392.039    10004458.22349   7806739.22646  23318391.543    23318395.226
  20777689.780   -24414362.81849 -18991908.36848  20777689.425    20777692.187
  21955945.816   -20073483.10049 -15325494.04547  21955945.276    21955949.752
 04  7 20 19 57 30.0000000  0  5G20G11G14G25G 1
  22055151.948   -19428354.23549 -15120004.22047  22055151.196    22055154.857
  21317101.513   -21782123.94849 -16675428.20247  21317101.128    21317103.685
  23334487.401    10089038.92449   7872646.22846  23334486.841    23334490.412
  20778464.248   -24410292.78049 -18988736.91948  20778463.939    20778466.736
  21944447.272   -20133908.19049 -15372578.49047  21944446.745    21944451.212
 04  7 20 19 58  0.0000000  0  5G20G11G14G25G 1
  22040464.787   -19505535.81449 -15180145.67947  22040464.004    22040467.642
  21322618.552   -21753131.90449 -16652837.01947  21322618.139    21322620.683
  23350592.502    10173670.90349   7938593.18845  23350591.921    23350595.386
  20779341.269   -24405684.38949 -18985145.97348  20779340.932    20779343.672
  21932996.994   -20194079.88949 -15419465.49147  21932996.423    21933000.931
 04  7 20 19 58 30.0000000  0  5G20G11G14G25G 1
  22025809.694   -19582548.69649 -15240155.68947  22025808.910    22025812.528
  21328236.248   -21723610.68549 -16629833.49547  21328235.850    21328238.411
  23366707.128    10258353.88549   8004579.86345  23366706.506    23366709.997
  20780320.751   -24400537.05449 -18981135.06748  20780320.394    20780323.103
  21921594.975   -20253997.38749 -15466154.41947  21921594.436    21921598.975
 04  7 20 19 59  0.0000000  0  5G20G11G14G25G 1
  22011186.885   -19659391.85649 -15300033.45247  22011186.103    22011189.693
  21333954.350   -21693561.94749 -16606418.92047  21333953.951    21333956.554
  23382831.140    10343086.23249   8070605.01945  23382830.513    23382833.949
  20781402.587   -24394851.97849 -18976705.14848  20781402.245    20781405.007
  21910241.309   -20313661.12249 -15512645.60547  21910240.736    21910245.314
 04  7 20 19 59 30.0000000  0  5G20G11G14G25G 1
  21996596.895   -19736062.47849 -15359776.76147  21996596.103    21996599.710
  21339772.754   -21662986.02449 -16582593.54747  21339772.363    21339774.955
  23398964.572    10427868.11649   8136668.77445  23398963.895    23398967.478
  20782586.869   -24388628.89249 -18971856.00148  20782586.505    20782589.257
  21898936.078   -20373070.25749 -15558938.40647  21898935.522    21898940.132
 04  7 20 20  0  0.0000000  0  5G20G11G14G25G 1
  21982039.951   -19812559.94749 -15419385.15047  21982039.141    21982042.690
  21345691.088   -21631885.17649 -16558359.14147  21345690.686    21345693.287
  23415107.023    10512697.31049   8202769.38945  23415106.319    23415109.983
  20783873.092   -24381869.64649 -18966589.05748  20783872.744    20783875.474
  21887679.141   -20432225.67249 -15605033.50047  21887678.606    21887683.183
 04  7 20 20  0 30.0000000  0  5G20G11G14G25G 1
  21967516.215   -19888882.31649 -15478857.10247  21967515.436    21967518.967
  21351709.162   -21600259.99449 -16533716.16447  21351708.760    21351711.365
  23431258.418    10597573.47349   8268906.61145  23431257.698    23431261.418
  20785261.343   -24374574.22449 -18960904.31848  20785261.013    20785263.723
  21876470.631   -20491126.87949 -15650930.51547  21876470.095    21876474.600
 04  7 20 20  1  0.0000000  0  5G20G11G14G25G 1
  21953026.051   -19965028.63949 -15538191.87147  21953025.267    21953028.782
  21357826.609   -21568112.71349 -16508666.35547  21357826.195    21357828.788
  23447418.477    10682494.84449   8335079.03245  23447417.780    23447421.450
  20786751.372   -24366744.27149 -18954803.05948  20786751.022    20786753.710
  21865310.342   -20549774.47949 -15696629.91547  21865309.771    21865314.304
 04  7 20 20  1 30.0000000  0  5G20G11G14G25G 1
  21938569.573   -20040997.93849 -15597388.69447  21938568.755    21938572.310
  21364043.102   -21535444.99149 -16483211.01047  21364042.681    21364045.259
  23463586.831    10767459.80349   8401285.45445  23463586.187    23463589.859
  20788342.748   -24358381.08249 -18948286.29348  20788342.420    20788345.167
  21854198.125   -20608169.19649 -15742132.26247  21854197.574    21854202.083
 04  7 20 20  2  0.0000000  0  5G20G11G14G25G 1
  21924147.346   -20116786.94749 -15656445.03947  21924146.529    21924150.125
  21370358.611   -21502256.63949 -16457349.97647  21370358.199    21370360.785
  23479763.629    10852468.90349   8467526.26745  23479762.928    23479766.630
  20790035.852   -24349483.87049 -18941353.40548  20790035.528    20790038.272
  21843134.360   -20666309.65049 -15787436.48747  21843133.793    21843138.302
 04  7 20 20  2 30.0000000  0  5G20G11G14G25G 1
  21909759.733   -20192394.10449 -15715359.67347  21909758.959    21909762.558
  21376772.882   -21468549.50849 -16431084.70347  21376772.478    21376775.084
  23495948.615    10937521.12449   8533800.67145  23495947.805    23495951.638
  20791830.366   -24340053.45449 -18934005.03848  20791830.056    20791832.847
  21832118.899   -20724195.94249 -15832542.66247  21832118.349    21832122.829
 04  7 20 20  3  0.0000000  0  5G20G11G14G25G 1
  21895406.904   -20267818.72449 -15774132.08047  21895406.096    21895409.702
  21383285.496   -21434325.67949 -16404416.80647  21383285.070    21383287.702
  23512141.373    11022614.51049   8600107.15645  23512140.554    23512144.497
  20793725.973   -24330091.95849 -18926242.83848  20793725.643    20793728.451
  21821151.709   -20781828.76249 -15877451.32947  21821151.162    21821155.605
 04  7 20 20  3 30.0000000  0  5G20G11G14G25G 1
  21881089.456   -20343057.46049 -15832759.64147  21881088.628    21881092.204
  21389896.479   -21399585.03349 -16377346.19947  21389896.043    21389898.621
  23528341.891    11107749.67849   8666446.19244  23528341.270    23528345.306
  20795722.884   -24319598.20549 -18918065.88948  20795722.561    20795725.353
  21810233.091   -20839206.52449 -15922161.24647  21810232.530    21810236.951
 04  7 20 20  4  0.0000000  0  5G20G11G14G25G 1
  21866807.384   -20418110.10449 -15891242.19047  21866806.545    21866810.079
  21396605.230   -21364330.33849 -16349875.03347  21396604.809    21396607.395
  23544550.061    11192924.19149   8732815.88444  23544547.549    23544554.561
  20797820.568   -24308574.85349 -18909476.27348  20797820.239    20797823.038
  21799362.706   -20896330.86549 -15966673.69847  21799362.136    21799366.552
 04  7 20 20  4 30.0000000  0  5G20G11G14G25G 1
  21852561.102   -20492974.75349 -15949578.25247  21852560.257    21852563.806
  21403411.627   -21328562.53149 -16322004.04247  21403411.227    21403413.778
  23560765.707    11278137.56048   8799215.85544  23560764.721    23560768.043
  20800019.015   -24297022.02449 -18900474.07248  20800018.687    20800021.420
  21788540.577   -20953201.49749 -16010988.44947  21788539.998    21788544.404
 04  7 20 20  5  0.0000000  0  5G20G11G14G25G 1
  21838351.091   -20567648.60249 -16007765.64347  21838350.265    21838353.818
  21410315.587   -21292282.04749 -16293733.55947  21410315.177    21410317.739
  23576988.771    11363390.05048   8865646.29544  23576988.081    23576991.605
  20802318.272   -24284939.30649 -18891058.96748  20802317.935    20802320.675
  21777766.902   -21009817.26849 -16055104.60247  21777766.346    21777770.789
 04  7 20 20  5 30.0000000  0  5G20G11G14G25G 1
  21824177.345   -20642131.94249 -16065804.57947  21824176.537    21824180.119
  21417316.452   -21255492.38249 -16265066.31447  21417316.031    21417318.602
  23593218.386    11448678.53348   8932104.81544                  23593217.635
  20804717.756   -24272329.84549 -18881233.42148  20804717.444    20804720.238
  21767041.422   -21066179.92749 -16099023.53447  21767040.871    21767045.291
 04  7 20 20  6  0.0000000  0  5G20G11G14G25G 1
  21810040.332   -20716421.96849 -16123692.88547  21810039.574    21810043.189
  21424414.103   -21218193.95649 -16236002.63147  21424413.697    21424416.276
                  11534003.00548   8998591.37144
  20807217.453   -24259193.92049 -18870997.63548  20807217.153    20807219.919
  21756364.232   -21122288.71749 -16142744.64147  21756363.673    21756368.092
 04  7 20 20  6 30.0000000  0  5G20G11G14G25G 1
  21795940.755   -20790515.70949 -16181428.24347  21795940.025    21795943.592
  21431608.498   -21180387.24849 -16206542.89347  21431608.106    21431610.660
                  11619364.15648   9065106.52844
  20809817.516   -24245530.63449 -18860350.91748  20809817.203    20809819.930
  21745735.626   -21178142.46849 -16186267.01747  21745735.081    21745739.480
 04  7 20 20  7  0.0000000  0  5G20G11G14G25G 1
  21781878.428   -20864413.67849 -16239011.05047  21781877.660    21781881.181
  21438898.898   -21142076.10349 -16176690.07847  21438898.519    21438901.076
                  11704758.43848   4692268.57143
  20812517.211   -24231343.66549 -18849296.13948  20812516.894    20812519.674
  21735155.065   -21233743.66849 -16229592.59647  21735154.506    21735158.904
 04  7 20 20  7 30.0000000  0  5G20G11G14G25G 1
  21767853.805   -20938113.43249 -16296439.40547  21767853.049    21767856.532
  21446285.238   -21103260.52149 -16146444.19347  21446284.876    21446287.418
                  11790185.99348   4758807.94243
  20815316.599   -24216632.88749 -18837833.19348  20815316.266    20815319.048
  21724622.757   -21289091.32649 -16272720.61147  21724622.187    21724626.586
 04  7 20 20  8  0.0000000  0  5G20G11G14G25G 1
  21753867.333   -21011612.81549 -16353711.62747  21753866.601    21753870.040
  21453767.300   -21063942.22849 -16115806.58547  21453766.896    21453769.469
                  11875646.19258   4825354.51843
  20818215.443   -24201399.21949 -18825962.80348  20818215.120    20818217.926
  21714138.733   -21344185.37949 -16315651.01447  21714138.145    21714142.511
 04  7 20 20  8 30.0000000  0  5G20G11G14G25G 1
  21739919.655   -21084909.02049 -16410825.52347  21739918.827    21739922.233
  21461344.892   -21024121.83749 -16084777.73447  21461344.490    21461347.123
                  11961139.52658   4728975.50343
  20821213.819   -24185642.63249 -18813684.93948  20821213.524    20821216.315
  21703703.096   -21399024.70349 -16358382.92147  21703702.530    21703706.905
 04  7 20 20  9  0.0000000  0  5G20G11G14G25G 1
  21726010.686   -21158000.80349 -16467780.14147  21726009.867    21726013.277
  21469017.612   -20983801.51449 -16053359.32447  21469017.219    21469019.853
                  12046664.12758   4795646.42143
  20824311.452   -24169364.29449 -18801000.52548  20824311.139    20824313.932
  21693315.900   -21453609.72449 -16400916.67547  21693315.330    21693319.679
 04  7 20 20  9 30.0000000  0  5G20G11G14G25G 1
  21712141.007   -21230886.01749 -16524573.78947  21712140.238    21712143.701
  21476785.309   -20942982.18549 -16021552.08147  21476784.901    21476787.540
                  12132220.01257   4862368.09143
  20827508.256   -24152564.88849 -18787910.07848  20827507.936    20827510.790
  21682977.185   -21507940.05849 -16443251.96747  21682976.598    21682980.929
 04  7 20 20 10  0.0000000  0  5G20G11G14G25G 1
  21698310.836   -21303564.12949 -16581206.06147  21698310.062    21698313.542
  21484647.440   -20901666.40649 -15989357.98747  21484647.048    21484649.674
                  12217805.06658   4766593.51543
  20830803.844   -24135246.55249 -18774415.27048  20830803.515    20830806.357
  21672686.682   -21562016.95049 -16485389.78147  21672686.082    21672690.389
 04  7 20 20 10 30.0000000  0  5G20G11G14G25G 1
  21684520.591   -21376032.27649 -16637674.73247  21684519.799    21684523.260
  21492603.871   -20859855.24649 -15956777.89247  21492603.470    21492606.100
                  12303419.27157   4833300.65643
  20834198.095   -24117409.48349 -18760516.25948  20834197.785    20834200.623
  21662444.520   -21615839.51849 -16527329.42247  21662443.962    21662448.253
 04  7 20 20 11  0.0000000  0  4G20G11G25G 1
  21670769.423   -21448294.95449 -16693983.28747  21670768.629    21670772.088
  21500653.103   -20817556.55949 -15923817.90047  21500652.678    21500655.335
  20837689.679   -24099061.12849 -18746218.84348  20837689.348    20837692.209
  21652249.563   -21669413.92249 -16569075.67847  21652249.030    21652253.319
 04  7 20 20 11 30.0000000  0  4G20G11G25G 1
  21657058.358   -21520346.74749 -16750127.51747  21657057.561    21657061.049
  21508795.485   -20774768.20249 -15890476.35347  21508795.071    21508797.694
  20841279.043   -24080198.93149 -18731521.02848  20841278.743    20841281.549
  21642102.531   -21722736.79849 -16610625.95047  21642102.005    21642106.309
 04  7 20 20 12  0.0000000  0  4G20G11G25G 1
  21643388.558   -21592181.71849 -16806102.79247  21643387.754    21643391.312
  21517031.532   -20731487.45449 -15856751.12247  21517031.109    21517033.757
  20844966.731   -24060820.02649 -18716420.58948  20844966.410    20844969.278
  21632004.188   -21775803.85249 -16651976.87847  21632003.646    21632007.959
 04  7 20 20 12 30.0000000  0  4G20G11G25G 1
  21629760.255   -21663798.87449 -16861908.35047  21629759.459    21629763.033
  21525360.730   -20687717.25149 -15822644.50347  21525360.343    21525362.992
  20848752.437   -24040926.08649 -18700918.82448  20848752.119    20848754.930
  21621954.401   -21828615.91749 -16693129.11247  21621953.843    21621958.154
 04  7 20 20 13  0.0000000  0  4G20G11G25G 1
  21616173.934   -21735195.12649 -16917541.76847  21616173.155    21616176.746
  21533782.928   -20643458.41849 -15788157.12547  21533782.542    21533785.175
  20852636.123   -24020517.15649 -18685015.76648  20852635.801    20852638.614
  21611953.209   -21881172.19549 -16734082.03047  21611952.637    21611956.977
 04  7 20 20 13 30.0000000  0  4G20G11G25G 1
  21602629.352   -21806372.37349 -16973004.53147  21602628.571    21602632.162
  21542297.177   -20598715.87549 -15753292.83047  21542296.778    21542299.394
  20856616.867   -23999598.06749 -18668715.18348  20856616.535    20856619.407
  21602000.042   -21933476.17649 -16774838.34247  21601999.507    21602003.817
 04  7 20 20 14  0.0000000  0  4G20G11G25G 1
  21589127.312   -21877325.92749 -17028292.98647  21589126.549    21589130.142
  21550903.630   -20553488.61449 -15718050.83647  21550903.230    21550905.872
  20860695.052   -23978167.07449 -18652015.71248  20860694.712    20860697.578
  21592095.456   -21985525.11549 -16815395.93147  21592094.914    21592099.215
 04  7 20 20 14 30.0000000  0  4G20G11G25G 1
  21575667.798   -21948056.18249 -17083407.44247  21575666.997    21575670.621
  21559601.607   -20507780.62949 -15682434.25747  21559601.199    21559603.840
  20864869.978   -23956227.62949 -18634920.05048  20864869.651    20864872.489
  21582238.912   -22037321.46849 -16855756.69547  21582238.367    21582242.646
 04  7 20 20 15  0.0000000  0  4G20G11G25G 1
  21562251.269   -22018560.28949 -17138345.68147  21562250.475    21562254.107
  21568390.930   -20461592.53149 -15646443.55947  21568390.524    21568393.167
  20869141.677   -23933779.78949 -18617428.23748  20869141.354    20869144.215
  21572430.657   -22088864.16349 -16895919.81047  21572430.108    21572434.379
 04  7 20 20 15 30.0000000  0  4G20G11G25G 1
  21548877.900   -22088837.72049 -17193107.29447  21548877.133    21548880.706
  21577270.971   -20414927.70549 -15610081.37847  21577270.566    21577273.202
  20873509.524   -23910826.25649 -18599542.37748  20873509.240    20873512.150
  21562670.395   -22140154.77349 -16935886.48647  21562669.844    21562674.058
 04  7 20 20 16  0.0000000  0  4G20G11G25G 1
  21535548.166   -22158886.24949 -17247690.53747  21535547.361    21535550.871
  21586241.453   -20367787.68749 -15573348.92547  21586241.026    21586243.704
  20877973.510   -23887368.01649 -18581263.23848  20877973.230    20877976.069
  21552958.158   -22191193.12149 -16975656.59847  21552957.588    21552961.764
 04  7 20 20 16 30.0000000  0  4G20G11G25G 1
  21522262.555   -22228702.72449 -17302092.96247  21522261.738    21522265.207
  21595302.292   -20320172.72249 -15536246.38447  21595301.864    21595304.533
  20882533.600   -23863404.99349 -18562590.76348  20882533.263    20882536.094
  21543294.173   -22241977.71549 -17015228.98347  21543293.598    21543297.757
 04  7 20 20 17  0.0000000  0  4G20G11G25G 1
  21509021.043   -22298287.11249 -17356314.54447  21509020.235    21509023.690
  21604452.755   -20272086.66949 -15498776.76747  21604452.319    21604455.022
  20887189.153   -23838940.13149 -18543527.25048  20887188.800    20887191.607
  21533678.072   -22292510.57849 -17054605.21047  21533677.495    21533681.680
 04  7 20 20 17 30.0000000  0  4G20G11G25G 1
  21495824.489   -22367635.36849 -17410352.12047  21495823.701    21495827.132
  21613692.975   -20223529.00149 -15460939.65347  21613692.572    21613695.275
  20891940.259   -23813972.65749 -18524072.09648  20891939.941    20891942.725
  21524110.219   -22342789.49049 -17093783.55747  21524109.679    21524113.885
 04  7 20 20 18  0.0000000  0  4G20G11G25G 1
  21482672.824   -22436747.70749 -17464205.86647  21482672.036    21482675.462
  21623022.180   -20174503.95549 -15422738.33847  21623021.783    21623024.458
  20896786.410   -23788506.12149 -18504228.05248  20896786.066    20896788.876
  21514590.307   -22392816.62749 -17132765.71047  21514589.769    21514593.994
 04  7 20 20 18 30.0000000  0  4G20G11G25G 1
  21469566.508   -22505621.48449 -17517873.72747  21469565.779    21469569.174
  21632440.127   -20125012.45249 -15384173.55747  21632439.704    21632442.383
  20901727.457   -23762540.50849 -18483995.12248  20901727.165    20901729.950
  21505118.493   -22442591.43749 -17171551.24547  21505117.927    21505122.145
 04  7 20 20 19  0.0000000  0  4G20G11G25G 1
  21456506.054   -22574254.60949 -17571354.06047  21456505.310    21456508.681
  21641946.472   -20075056.11349 -15345246.57047  21641946.092    21641948.771
  20906763.262   -23736077.22449 -18463374.40248  20906762.939    20906765.812
  21495694.651   -22492113.74649 -17210140.03347  21495694.081    21495698.301
 04  7 20 20 19 30.0000000  0  4G20G11G25G 1
  21443493.575   -22642635.66949 -17624637.97747  21443492.819    21443496.162
  21651542.739   -20024627.41949 -15305951.50847  21651542.369    21651545.070
  20911895.260   -23709108.34449 -18442359.70448  20911894.966    20911897.794
  21486320.696   -22541373.99749 -17248524.61747  21486320.120    21486324.350
 04  7 20 20 20  0.0000000  0  4G20G11G25G 1
  21430529.072   -22710764.22249 -17677725.13547  21430528.324    21430531.722
  21661228.265   -19973729.85549 -15266291.09847  21661227.874    21661230.580
  20917123.047   -23681636.36949 -18420952.98648  20917122.717    20917125.547
  21476996.339   -22590373.83149 -17286706.27647  21476995.745    21477000.005
 04  7 20 20 20 30.0000000  0  4G20G11G25G 1
  21417609.861   -22778655.19849 -17730627.16847  21417609.108    21417612.447
  21670999.504   -19922381.88649 -15226279.71847  21670999.099    21671001.810
  20922443.055   -23653679.53349 -18399168.45048  20922442.774    20922445.619
  21467718.307   -22639130.10249 -17324698.14747  21467717.718    21467721.960
 04  7 20 20 21  0.0000000  0  4G20G11G25G 1
  21404736.884   -22846303.14249 -17783339.83547  21404736.110    21404739.430
  21680856.651   -19870582.43049 -15185916.54247  21680856.236    21680858.907
  20927855.689   -23625235.86949 -18377004.57848  20927855.387    20927858.217
  21458487.235   -22687639.58649 -17362497.71647  21458486.649    21458490.907
 04  7 20 20 21 30.0000000  0  4G20G11G25G 1
  21391910.879   -22913704.11849 -17835860.04447  21391910.099    21391913.398
  21690799.754   -19818331.21149 -15145201.33647  21690799.312    21690802.026
  20933361.221   -23596304.59349 -18354460.73248  20933360.906    20933363.693
  21449303.477   -22735900.21449 -17400103.37447  21449302.927    21449307.157
 04  7 20 20 22  0.0000000  0  4G20G11G25G 1
  21379132.943   -22980852.66249 -17888183.56447  21379132.165    21379135.429
  21700829.060   -19765626.86549 -15104133.04147  21700828.629    21700831.381
  20938959.792   -23566883.69849 -18331535.38248  20938959.490    20938962.335
  21440167.760   -22783908.66149 -17437512.52747  21440167.211    21440171.426
 04  7 20 20 22 30.0000000  0  4G20G11G25G 1
  21366402.878   -23047749.49449 -17940310.94147  21366402.088    21366405.363
  21710943.783   -19712473.67449 -15062715.00347  21710943.367    21710946.162
  20944650.846   -23536977.21149 -18308231.63848  20944650.520    20944653.346
  21431079.447   -22831667.83149 -17474727.43547  21431078.883    21431083.159
 04  7 20 20 23  0.0000000  0  4G20G11G25G 1
  21353721.194   -23114391.76449 -17992239.95647  21353720.427    21353723.722
  21721143.630   -19658873.27649 -15020948.48747  21721143.205    21721146.014
  20950434.093   -23506585.88049 -18284550.09348  20950433.806    20950436.609
  21422038.721   -22879176.81449 -17511747.39947  21422038.182    21422042.486
 04  7 20 20 23 30.0000000  0  4G20G11G25G 1
  21341088.713   -23180775.58349 -18043967.58647  21341087.982    21341091.282
  21731428.638   -19604825.42249 -14978833.31447  21731428.215    21731431.006
  20956309.793   -23475708.89649 -18260490.12548  20956309.459    20956312.390
  21413046.053   -22926433.51249 -17548570.77247  21413045.507    21413049.771
 04  7 20 20 24  0.0000000  0  4G20G11G25G 1
  21328505.972   -23246898.09049 -18095491.59347  21328505.233    21328508.562
  21741798.539   -19550331.39449 -14936370.46347  21741798.116    21741800.911
  20962277.780   -23444346.90649 -18236052.22448  20962277.487    20962280.379
  21404101.514   -22973437.33449 -17585197.10747  21404100.959    21404105.179
 04  7 20 20 24 30.0000000  0  4G20G11G25G 1
  21315972.853   -23312760.09749 -18146812.61547  21315972.120    21315975.447
  21752252.447   -19495395.59149 -14893563.37947  21752252.039    21752254.906
  20968337.317   -23412504.12149 -18211239.67348  20968336.982    20968339.844
  21395204.498   -23020191.14149 -17621628.61847  21395203.969    21395208.203
 04  7 20 20 25  0.0000000  0  4G20G11G25G 1
  21303489.288   -23378361.71049 -18197930.73047  21303488.522    21303491.875
  21762789.572   -19440022.50049 -14850415.55547  21762789.165    21762792.067
  20974487.625   -23380184.09149 -18186055.24648  20974487.305    20974490.151
  21386354.719   -23066696.98549 -17657866.91347  21386354.185    21386358.427
 04  7 20 20 25 30.0000000  0  4G20G11G25G 1
  21291056.488   -23443696.47749 -18248840.91647  21291055.729    21291059.101
  21773410.400   -19384209.76049 -14806925.14447  21773410.012    21773412.889
  20980729.314   -23347384.14249 -18160496.85748  20980729.003    20980731.807
  21377552.909   -23112950.63649 -17693908.70047  21377552.358    21377556.601
 04  7 20 20 26  0.0000000  0  4G20G11G25G 1
  21278674.235   -23508765.84649 -18299544.30247  21278673.431    21278676.786
  21784113.929   -19327962.73549 -14763096.33147  21784113.532    21784116.349
  20987061.393   -23314108.93349 -18134568.13148  20987061.040    20987063.887
  21368798.449   -23158955.54049 -17729756.66147  21368797.929    21368802.100
 04  7 20 20 26 30.0000000  0  4G20G11G25G 1
  21266342.836   -23573567.62749 -18350039.17147  21266342.048    21266345.419
  21794899.681   -19271283.56549 -14718930.77147  21794899.275    21794902.018
  20993483.593   -23280359.68749 -18108270.03048  20993483.284    20993486.121
  21360091.361   -23204711.77549 -17765410.84447  21360090.807    21360094.953
 04  7 20 20 27  0.0000000  0  4G20G11G25G 1
  21254062.825   -23638099.44649 -18400323.69147  21254062.029    21254065.447
  21805767.377   -19214173.47249 -14674429.43847  21805766.982    21805769.731
  20999995.963   -23246137.43849 -18081603.35148  20999995.606    20999998.400
  21351431.599   -23250218.81149 -17800870.84947  21351431.052    21351435.202
 04  7 20 20 27 30.0000000  0  4G20G11G25G 1
  21241834.877   -23702357.45449 -18450394.84047  21241834.094    21241837.547
  21816716.924   -19156633.37349 -14629593.02247  21816716.521    21816719.265
  21006598.266   -23211441.95849 -18054567.92248  21006597.955    21006600.723
  21342819.609   -23295475.07449 -17836135.44347  21342819.054    21342823.217
 04  7 20 20 28  0.0000000  0  4G20G11G25G 1
  21229659.869   -23766337.65749 -18500249.53047  21229659.083    21229662.522
  21827748.354   -19098663.03449 -14584421.36447  21827747.955    21827750.696
  21013290.797   -23176272.71049 -18027163.32548  21013290.462    21013293.183
  21334255.740   -23340478.46249 -17871202.99747  21334255.192    21334259.327
 04  7 20 20 28 30.0000000  0  4G20G11G25G 1
  21217536.821   -23830044.52349 -18549891.22347  21217536.046    21217539.505
  21838860.076   -19040270.63949 -14538920.83247  21838859.682    21838862.470
  21020071.810   -23140638.20449 -17999396.19048  21020071.477    21020074.252
  21325738.666   -23385235.80949 -17906078.83047  21325738.109    21325742.239
 04  7 20 20 29  0.0000000  0  4G20G11G25G 1
  21205466.960   -23893471.92249 -18599315.15147  21205466.201    21205469.667
  21850052.362   -18981454.75449 -14493090.30147  21850051.984    21850054.777
  21026941.971   -23104535.40849 -17971264.15248  21026941.621    21026944.442
  21317269.252   -23429742.67149 -17940759.48247  21317268.712    21317272.835
 04  7 20 20 29 30.0000000  0  4G20G11G25G 1
  21193450.696   -23956617.77649 -18648519.69447  21193449.940    21193453.372
  21861324.886   -18922217.46549 -14446931.40747  21861324.510    21861327.342
  21033900.875   -23067966.15649 -17942768.63548  21033900.564    21033903.338
  21308847.504   -23473999.29949 -17975245.14647  21308846.942    21308851.051
 04  7 20 20 30  0.0000000  0  4G20G11G25G 1
  21181488.639   -24019478.81449 -18697502.30047  21181487.861    21181491.307
  21872677.349   -18862559.83149 -14400444.97247  21872676.981    21872679.823
  21040948.504   -23030930.66249 -17913909.81548  21040948.165    21040951.013
  21300473.591   -23518004.57449 -18009534.94947  21300473.019    21300477.106
 04  7 20 20 30 30.0000000  0  5G20G16G11G25G 1
  21169578.479   -24082066.90249 -18746272.21747  21169577.696    21169581.138
  24657190.840    -3552696.95749  -2745317.43545  24657190.142    24657196.179
  21884106.765   -18802497.90749 -14353643.50947  21884106.388    21884109.284
  21048081.911   -22993444.15949 -17884699.57248  21048081.606    21048084.430
  21292144.766   -23561772.61249 -18043639.89347  21292144.205    21292148.275
 04  7 20 20 31  0.0000000  0  5G20G16G11G25G 1
  21157718.753   -24144389.94749 -18794835.60847  21157717.977    21157721.367
  24639788.847    -3644144.66149  -2816575.24645  24639788.070    24639794.020
  21895610.872   -18742043.63249 -14306536.31547  21895610.484    21895613.378
  21055298.972   -22955518.44049 -17855147.07248  21055298.630    21055301.443
  21283859.237   -23605313.35849 -18077567.72647  21283858.681    21283862.727
 04  7 20 20 31 30.0000000  0  5G20G16G11G25G 1
  21145916.682   -24206410.21349 -18843163.06347  21145915.907    21145919.227
  24622387.705    -3735586.64749  -2887828.56445  24622387.097    24622393.005
  21907196.096   -18681163.21949 -14259097.06347  21907195.694    21907198.597
  21062605.999   -22917119.43249 -17825225.77548  21062605.642    21062608.557
  21275623.743   -23648591.16949 -18111290.66847  21275623.213    21275627.229
 04  7 20 20 32  0.0000000  0  5G20G16G11G25G 1
  21134171.459   -24268131.84349 -18891257.81547  21134170.658    21134173.960
  24604987.315    -3827025.73849  -2959079.61545  24604986.633    24604992.878
  21918860.652   -18619865.51049 -14211332.64747  21918860.209    21918863.201
  21070001.714   -22878254.87749 -17794941.70648  21070001.402    21070004.272
  21267437.116   -23691612.29249 -18144813.59947  21267436.560    21267440.569
 04  7 20 20 32 30.0000000  0  5G20G16G11G25G 1
  21122482.503   -24329557.41649 -18939121.88547  21122481.720    21122485.050
  24587587.124    -3918463.50249  -3030329.69045  24587586.468    24587592.844
  21930603.344   -18558157.14949 -14163248.25247  21930602.909    21930605.977
  21077484.770   -22838930.93749 -17764299.69348  21077484.461    21077487.316
  21259298.432   -23734381.45049 -18178140.19847  21259297.864    21259301.887
 04  7 20 20 33  0.0000000  0  6G20G16G11G23G25G 1
  21110853.822   -24390666.52749 -18986739.35047  21110853.041    21110856.359
  24570191.155    -4009879.00549  -3101562.36845  24570190.511    24570196.935
  21942427.220   -18496022.23249 -14114831.47047  21942426.804    21942429.911
  22050621.803   -24577836.51649 -18501629.47747  22050621.213    22050622.459
  21085058.452   -22799131.02049 -17733286.77648  21085058.088    21085060.973
  21251211.081   -23776880.52449 -18211256.33147  21251210.503    21251214.578
 04  7 20 20 33 30.0000000  0  6G20G16G11G23G25G 1
  21099280.245   -24451486.18449 -19034131.27547  21099279.463    21099282.753
  24552794.500    -4101298.07449  -3172797.84145  24552793.915    24552800.288
  21954326.341   -18433491.91849 -14066106.59347  21954325.936    21954329.009
  22038160.059   -24643323.33049 -18552658.12447  22038159.430    22038160.735
  21092716.827   -22758885.81449 -17701926.89048  21092716.526    21092719.423
  21243169.551   -23819138.64149 -18244184.71447  21243169.000    21243173.103
 04  7 20 20 34  0.0000000  0  6G20G16G11G23G25G 1
  21087762.674   -24512011.44749 -19081293.79747  21087761.896    21087765.189
  24535398.267    -4192714.88849  -3244031.57745  24535397.719    24535404.024
  21966300.839   -18370565.68049 -14017073.19447  21966300.467    21966303.511
  22025737.460   -24708604.22749 -18603526.31947  22025736.850    22025738.169
  21100460.235   -22718194.17349 -17670219.13348  21100459.886    21100462.796
  21235174.476   -23861153.09249 -18276923.22547  21235173.935    21235178.011
 04  7 20 20 34 30.0000000  0  6G20G16G11G23G25G 1
  21076302.021   -24572237.37949 -19128223.07847  21076301.250    21076304.573
  24518003.670    -4284123.50649  -3315258.90745  24518002.951    24518009.300
  21978350.885   -18307242.61749 -13967730.58747  21978350.494    21978353.503
  22013354.719   -24773675.80049 -18654231.41147  22013354.112    22013355.397
  21108288.746   -22677054.75449 -17638162.45948  21108288.446    21108291.355
  21227226.315   -23902920.87549 -18309469.52547  21227225.758    21227229.821
 04  7 20 20 35  0.0000000  0  6G20G16G11G23G25G 1
  21064898.409   -24632163.71449 -19174918.89947  21064897.635    21064900.974
  24500610.852    -4375522.63649  -3386478.86745  24500609.981    24500616.456
  21990475.557   -18243527.25749 -13918082.28947  21990475.181    21990478.171
  22001011.545   -24838539.56149 -18704774.55947  22001010.927    22001012.196
  21116201.928   -22635470.99449 -17605759.53548  21116201.618    21116204.489
  21219324.694   -23944443.91249 -18341825.11547  21219324.157    21219328.223
 04  7 20 20 35 30.0000000  0  6G20G16G11G23G25G 1
  21053552.715   -24691785.56149 -19221377.46247  21053551.929    21053555.293
  24483220.887    -4466906.41149  -3457686.85645  24483220.050    24483226.661
  22002675.033   -18179418.77349 -13868127.66747  22002674.625    22002677.637
  21988708.419   -24903192.64149 -18755153.54047  21988707.815    21988709.094
  21124199.767   -22593442.09549 -17573009.76348  21124199.471    21124202.369
  21211470.195   -23985719.72349 -18373988.06347  21211469.645    21211473.710
 04  7 20 20 36  0.0000000  0  6G20G16G11G23G25G 1
  21042265.116   -24751102.11749 -19267598.13947  21042264.344    21042267.669
  24465834.270    -4558272.96149  -3528881.43245  24465833.516    24465839.915
  22014948.614   -18114920.61149 -13817869.39547  22014948.248    22014951.275
  21976445.342   -24967635.47549 -18805368.69447  21976444.764    21976446.008
  21132281.867   -22550970.64849 -17539915.13748  21132281.556    21132284.400
  21203662.516   -24026749.33149 -18405959.16647  21203661.960    21203666.002
 04  7 20 20 36 30.0000000  0  6G20G16G11G23G25G 1
  21031036.041   -24810111.39349 -19313579.37347  21031035.237    21031038.524
  24448451.735    -4649619.17749  -3600060.19445  24448451.119    24448457.114
  22027295.952   -18050035.22149 -13767309.39047  22027295.550    22027298.564
  21964222.291   -25031868.17249 -18855420.10547  21964221.686    21964222.883
  21140447.781   -22508058.63049 -17506477.21947  21140447.433    21140450.336
  21195901.610   -24067532.98549 -18437738.61847  21195901.033    21195905.094
